[[{"header":{"parameterUnit":"m.s-1","parameterCategory":1,"la1":30.6,"la2":28.766,"lo1":-90.7593,"lo2":-88.6598,"dy":0.0162,"dx":0.0183,"nx":116,"ny":114,"refTime":"2023-09-24T06:00:00:Z","depth":0,"parameterNumber":2,"parameterNumberName":"U-component_of_WINDS"},"data":[0.0,0.0,0.0,0.0,0.0,0.0,0.0,0.0,0.0,0.0,0.0,0.0,0.0,0.0,0.0,0.0,0.0,0.0,0.0,0.0,0.0,0.0,0.0,0.0,0.0,0.0,0.0,0.0,0.0,0.0,0.0,0.0,0.0,0.0,0.0,0.0,0.0,0.0,0.0,0.0,0.0,0.0,0.0,0.0,0.0,0.0,0.0,0.0,0.0,0.0,0.0,0.0,0.0,0.0,0.0,0.0,0.0,0.0,0.0,0.0,0.0,0.0,0.0,0.0,0.0,0.0,0.0,0.0,0.0,0.0,0.0,0.0,0.0,0.0,0.0,0.0,0.0,0.0,0.0,0.0,0.0,0.0,0.0,0.0,0.0,0.0,0.0,0.0,0.0,0.0,0.0,0.0,0.0,0.0,0.0,0.0,0.0,0.0,0.0,0.0,0.0,0.0,0.0,0.0,0.0,0.0,0.0,0.0,0.0,0.0,0.0,0.0,0.0,0.0,0.0,0.0,0.0,0.0,0.0,0.0,0.0,0.0,0.0,0.0,0.0,0.0,0.0,0.0,0.0,0.0,0.0,0.0,0.0,0.0,0.0,0.0,0.0,0.0,0.0,0.0,0.0,0.0,0.0,0.0,0.0,0.0,0.0,0.0,0.0,0.0,0.0,0.0,0.0,0.0,0.0,0.0,0.0,0.0,0.0,0.0,0.0,0.0,0.0,0.0,0.0,0.0,0.0,0.0,0.0,0.0,0.0,0.0,0.0,0.0,0.0,0.0,0.0,0.0,0.0,0.0,0.0,0.0,0.0,0.0,0.0,0.0,0.0,0.0,0.0,0.0,0.0,0.0,0.0,0.0,0.0,0.0,0.0,0.0,0.0,0.0,0.0,0.0,0.0,0.0,0.0,0.0,0.0,0.0,0.0,0.0,0.0,0.0,0.0,0.0,0.0,0.0,0.0,0.0,0.0,0.0,0.0,0.0,0.0,0.0,0.0,0.0,0.0,0.0,0.0,0.0,0.0,0.0,0.0,0.0,0.0,0.0,0.0,0.0,0.0,0.0,0.0,0.0,0.0,0.0,0.0,0.0,0.0,0.0,0.0,0.0,0.0,0.0,0.0,0.0,0.0,0.0,0.0,0.0,0.0,0.0,0.0,0.0,0.0,0.0,0.0,0.0,0.0,0.0,0.0,0.0,0.0,0.0,0.0,0.0,0.0,0.0,0.0,0.0,0.0,0.0,0.0,0.0,0.0,0.0,0.0,0.0,0.0,0.0,0.0,0.0,0.0,0.0,0.0,0.0,0.0,0.0,0.0,0.0,0.0,0.0,0.0,0.0,0.0,0.0,0.0,0.0,0.0,0.0,0.0,0.0,0.0,0.0,0.0,0.0,0.0,0.0,0.0,0.0,0.0,0.0,0.0,0.0,0.0,0.0,0.0,0.0,0.0,0.0,0.0,0.0,0.0,0.0,0.0,0.0,0.0,0.0,0.0,0.0,0.0,0.0,0.0,0.0,0.0,0.0,0.0,0.0,0.0,0.0,0.0,0.0,0.0,0.0,0.0,0.0,0.0,0.0,0.0,0.0,0.0,0.0,0.0,0.0,0.0,0.0,0.0,0.0,0.0,0.0,0.0,0.0,0.0,0.0,0.0,0.0,0.0,0.0,0.0,0.0,0.0,0.0,0.0,0.0,0.0,0.0,0.0,0.0,0.0,0.0,0.0,0.0,0.0,0.0,0.0,0.0,0.0,0.0,0.0,0.0,0.0,0.0,0.0,0.0,0.0,0.0,0.0,0.0,0.0,0.0,0.0,0.0,0.0,0.0,0.0,0.0,0.0,0.0,0.0,0.0,0.0,0.0,0.0,0.0,0.0,0.0,0.0,0.0,0.0,0.0,0.0,0.0,0.0,0.0,0.0,0.0,0.0,0.0,0.0,0.0,0.0,0.0,0.0,0.0,0.0,0.0,0.0,0.0,0.0,0.0,0.0,0.0,0.0,0.0,0.0,0.0,0.0,0.0,0.0,0.0,0.0,0.0,0.0,0.0,0.0,0.0,0.0,0.0,0.0,0.0,0.0,0.0,0.0,0.0,0.0,0.0,0.0,0.0,0.0,0.0,0.0,0.0,0.0,0.0,0.0,0.0,0.0,0.0,0.0,0.0,0.0,0.0,0.0,0.0,0.0,0.0,0.0,0.0,0.0,0.0,0.0,0.0,0.0,0.0,0.0,0.0,0.0,0.0,0.0,0.0,0.0,0.0,0.0,0.0,0.0,0.0,0.0,0.0,0.0,0.0,0.0,0.0,0.0,0.0,0.0,0.0,0.0,0.0,0.0,0.0,0.0,0.0,0.0,0.0,0.0,0.0,0.0,0.0,0.0,0.0,0.0,0.0,0.0,0.0,0.0,0.0,0.0,0.0,0.0,0.0,0.0,0.0,0.0,0.0,0.0,0.0,0.0,0.0,0.0,0.0,0.0,0.0,0.0,0.0,0.0,0.0,0.0,0.0,0.0,0.0,0.0,0.0,0.0,0.0,0.0,0.0,0.0,0.0,0.0,0.0,0.0,0.0,0.0,0.0,0.0,0.0,0.0,0.0,0.0,0.0,0.0,0.0,0.0,0.0,0.0,0.0,0.0,0.0,0.0,0.0,0.0,0.0,0.0,0.0,0.0,0.0,0.0,0.0,0.0,0.0,0.0,0.0,0.0,0.0,0.0,0.0,0.0,0.0,0.0,0.0,0.0,0.0,0.0,0.0,0.0,0.0,0.0,0.0,0.0,0.0,0.0,0.0,0.0,0.0,0.0,0.0,0.0,0.0,0.0,0.0,0.0,0.0,0.0,0.0,0.0,0.0,0.0,0.0,0.0,0.0,0.0,0.0,0.0,0.0,0.0,0.0,0.0,0.0,0.0,0.0,0.0,0.0,0.0,0.0,0.0,0.0,0.0,0.0,0.0,0.0,0.0,0.0,0.0,0.0,0.0,0.0,0.0,0.0,0.0,0.0,0.0,0.0,0.0,0.0,0.0,0.0,0.0,0.0,0.0,0.0,0.0,0.0,0.0,0.0,0.0,0.0,0.0,0.0,0.0,0.0,0.0,0.0,0.0,0.0,0.0,0.0,0.0,0.0,0.0,0.0,0.0,0.0,0.0,0.0,0.0,0.0,0.0,0.0,0.0,0.0,0.0,0.0,0.0,0.0,0.0,0.0,0.0,0.0,0.0,0.0,0.0,0.0,0.0,0.0,0.0,0.0,0.0,0.0,0.0,0.0,0.0,0.0,0.0,0.0,0.0,0.0,0.0,0.0,0.0,0.0,0.0,0.0,0.0,0.0,0.0,0.0,0.0,0.0,0.0,0.0,0.0,0.0,0.0,0.0,0.0,0.0,0.0,0.0,0.0,0.0,0.0,0.0,0.0,0.0,0.0,0.0,0.0,0.0,0.0,0.0,0.0,0.0,0.0,0.0,0.0,0.0,0.0,0.0,0.0,0.0,0.0,0.0,0.0,0.0,0.0,0.0,0.0,0.0,0.0,0.0,0.0,0.0,0.0,0.0,0.0,0.0,0.0,0.0,0.0,0.0,0.0,0.0,0.0,0.0,0.0,0.0,0.0,0.0,0.0,0.0,0.0,0.0,0.0,0.0,0.0,0.0,0.0,0.0,0.0,0.0,0.0,0.0,0.0,0.0,0.0,0.0,0.0,0.0,0.0,0.0,0.0,0.0,0.0,0.0,0.0,0.0,0.0,0.0,0.0,0.0,0.0,0.0,0.0,0.0,0.0,0.0,0.0,0.0,0.0,0.0,0.0,0.0,0.0,0.0,0.0,0.0,0.0,0.0,0.0,0.0,0.0,0.0,0.0,0.0,0.0,0.0,0.0,0.0,0.0,0.0,0.0,0.0,0.0,0.0,0.0,0.0,0.0,0.0,0.0,0.0,0.0,0.0,0.0,0.0,0.0,0.0,0.0,0.0,0.0,0.0,0.0,0.0,0.0,0.0,0.0,0.0,0.0,0.0,0.0,0.0,0.0,0.0,0.0,0.0,0.0,0.0,0.0,0.0,0.0,0.0,0.0,0.0,0.0,0.0,0.0,0.0,0.0,0.0,0.0,0.0,0.0,0.0,0.0,0.0,0.0,0.0,0.0,0.0,0.0,0.0,0.0,0.0,0.0,0.0,0.0,0.0,0.0,0.0,0.0,0.0,0.0,0.0,0.0,0.0,0.0,0.0,0.0,0.0,0.0,0.0,0.0,0.0,0.0,0.0,0.0,0.0,0.0,0.0,0.0,0.0,0.0,0.0,0.0,0.0,0.0,0.0,0.0,0.0,0.0,0.0,0.0,0.0,0.0,0.0,0.0,0.0,0.0,0.0,0.0,0.0,0.0,0.0,0.0,0.0,0.0,0.0,0.0,0.0,0.0,0.0,0.0,0.0,0.0,0.0,0.0,0.0,0.0,0.0,0.0,0.0,0.0,0.0,0.0,0.0,0.0,0.0,0.0,0.0,0.0,0.0,0.0,0.0,0.0,0.0,0.0,0.0,0.0,0.0,0.0,0.0,0.0,0.0,0.0,0.0,0.0,0.0,0.0,0.0,0.0,0.0,0.0,0.0,0.0,0.0,0.0,0.0,0.0,0.0,0.0,0.0,0.0,0.0,0.0,0.0,0.0,0.0,0.0,0.0,0.0,0.0,0.0,0.0,0.0,0.0,0.0,0.0,0.0,0.0,0.0,0.0,0.0,0.0,0.0,0.0,0.0,0.0,0.0,0.0,0.0,0.0,0.0,0.0,0.0,0.0,0.0,0.0,0.0,0.0,0.0,0.0,0.0,0.0,0.0,0.0,0.0,0.0,0.0,0.0,0.0,0.0,0.0,0.0,0.0,0.0,0.0,0.0,0.0,0.0,0.0,0.0,0.0,0.0,0.0,0.0,0.0,0.0,0.0,0.0,0.0,0.0,0.0,0.0,0.0,0.0,0.0,0.0,0.0,0.0,0.0,0.0,0.0,0.0,0.0,0.0,0.0,0.0,0.0,0.0,0.0,0.0,0.0,0.0,0.0,0.0,0.0,0.0,0.0,0.0,0.0,0.0,0.0,0.0,0.0,0.0,0.0,0.0,0.0,0.0,0.0,0.0,0.0,0.0,0.0,0.0,0.0,0.0,0.0,0.0,0.0,0.0,0.0,0.0,0.0,0.0,0.0,0.0,0.0,0.0,0.0,0.0,0.0,0.0,0.0,0.0,0.0,0.0,0.0,0.0,0.0,0.0,0.0,0.0,0.0,0.0,0.0,0.0,0.0,0.0,0.0,0.0,0.0,0.0,0.0,0.0,0.0,0.0,0.0,0.0,0.0,0.0,0.0,0.0,0.0,0.0,0.0,0.0,0.0,0.0,0.0,0.0,0.0,0.0,0.0,0.0,0.0,0.0,0.0,0.0,0.0,0.0,0.0,0.0,0.0,0.0,0.0,0.0,0.0,0.0,0.0,0.0,0.0,0.0,0.0,0.0,0.0,0.0,0.0,0.0,0.0,0.0,0.0,0.0,0.0,0.0,0.0,0.0,0.0,0.0,0.0,0.0,0.0,0.0,0.0,0.0,0.0,0.0,0.0,0.0,0.0,0.0,0.0,0.0,0.0,0.0,0.0,0.0,0.0,0.0,0.0,0.0,0.0,0.0,0.0,0.0,0.0,0.0,0.0,0.0,0.0,0.0,0.0,0.0,0.0,0.0,0.0,0.0,0.0,0.0,0.0,0.0,0.0,0.0,0.0,0.0,0.0,0.0,0.0,0.0,0.0,0.0,0.0,0.0,0.0,0.0,0.0,0.0,0.0,0.0,0.0,0.0,0.0,0.0,0.0,0.0,0.0,0.0,0.0,0.0,0.0,0.0,0.0,0.0,0.0,0.0,0.0,0.0,0.0,0.0,0.0,0.0,0.0,0.0,0.0,0.0,0.0,0.0,0.0,0.0,0.0,0.0,0.0,0.0,0.0,0.0,0.0,0.0,0.0,0.0,0.0,0.0,0.0,0.0,0.0,0.0,0.0,0.0,0.0,0.0,0.0,0.0,0.0,0.0,0.0,0.0,0.0,0.0,0.0,0.0,0.0,0.0,0.0,0.0,-0.0835,0.0235,0.0,0.0,0.0,0.0,0.0,0.0,0.0,0.0,0.0,0.0,0.0,0.0,0.0,0.0,0.0,0.0,0.0,0.0,0.0,0.0,0.0,0.0,0.0,0.0,0.0,0.0,0.0,0.0,0.0,0.0,0.0,0.0,0.0,0.0,0.0,0.0,0.0,0.0,0.0149,-0.0178,-0.0543,-0.0903,-0.0678,0.0,0.0,0.0,0.0,0.0,0.0,0.0,0.0,0.0,0.0,0.0,0.0,0.0,0.0,0.0,0.0,0.0,0.0,0.0,0.0,0.0,0.0,0.0,0.0,0.0,0.0,0.0,0.0,0.0,0.0,0.0,0.0,0.0,0.0,0.0,0.0,0.0,0.0,0.0,0.0,0.0,0.0,0.0,0.0,0.0,0.0,0.0,0.0,0.0,0.0,0.0,0.0,0.0,0.0,0.0,0.0,0.0,0.0,0.0,0.0,0.0,0.0,0.0,0.0,0.0,0.0,0.0,0.0,0.0,0.0,0.0,-0.2364,-0.1601,0.0,0.0,0.0,0.0,0.0,0.0,0.0,0.0,0.0,0.0,0.0,0.0,0.0,0.0,0.0,0.0,0.0,0.0,0.0,0.0,0.0,0.0,0.0,0.3512,0.3452,0.3433,0.289,0.2549,0.0,0.0,0.0,0.0,0.0,0.0,0.0,-0.005,-0.0051,-0.0202,-0.033,-0.0702,-0.1351,-0.1972,-0.161,-0.0456,-0.0282,0.0,0.0,0.0,0.0,0.0,0.0,0.0,0.0,0.0,0.0,0.0,0.0,0.0,0.0,0.0,0.0,0.0,0.0,0.0,0.0,0.0,0.0,0.0,0.0,0.0,0.0,0.0,0.0,0.0,0.0,0.0,0.0,0.0,0.0,0.0,0.0,0.0,0.0,0.0,0.0,0.0,0.0,0.0,0.0,0.0,0.0,0.0,0.0,0.0,0.0,0.0,0.0,0.0,0.0,0.0,0.0,0.0,0.0,0.0,0.0,0.0,0.0,0.0,-0.3598,-0.3712,-0.3744,-0.3908,-0.4353,-0.5001,-0.3876,-0.3586,-0.377,-0.1729,0.0,0.0,0.0,0.0,0.0,0.0,0.0,0.0,0.0,0.0,0.0,0.0,0.0,0.0,0.0,0.0,0.0,0.0,0.0,0.0,0.0,0.3126,0.2827,0.2812,0.2277,0.1926,0.1926,0.0,0.0,0.0,0.0,0.0,-0.0786,-0.0281,-0.0312,-0.0958,-0.1609,-0.2041,-0.2315,-0.2414,-0.2425,-0.2303,-0.1376,-0.0597,0.0,0.0,0.0,0.0,0.0,0.0,0.0,0.0,0.0,0.0,0.0,0.0,0.0,0.0,0.0,0.0,0.0,0.0,0.0,0.0,0.0,0.0,0.0,0.0,0.0,0.0,0.0,0.0,0.0,0.0,0.0,0.0,0.0,0.0,0.0,0.0,0.0,0.0,0.0,0.0,0.0,0.0,-0.2301,-0.2301,0.0,0.0,0.0,0.0,0.0,0.0,0.0,0.0,0.0,0.0,0.0,0.0,0.0,-0.3375,-0.3489,-0.4382,-0.4794,-0.4836,-0.578,-0.6215,-0.6239,-0.6234,-0.6335,-0.6413,-0.6254,0.0,-0.4358,-0.388,0.0,0.0,0.0,0.0,0.0,0.0,0.0,0.0,0.0,0.0,0.0,0.0,0.0,0.0,0.0,0.0,0.0,0.0,0.0,0.0,0.0,0.2562,0.2182,0.2198,0.1203,0.0589,0.0661,-0.0587,0.0,0.0,0.0,-0.1575,-0.1523,-0.1344,-0.1451,-0.1899,-0.2621,-0.3105,-0.3362,-0.3763,-0.3825,-0.3512,-0.296,-0.1974,-0.0705,-0.0203,0.0,0.0,0.0,0.0,0.0,0.0,0.0,0.0,0.0,0.0,0.0,0.0,0.0,0.0,0.0,0.0,0.0,0.0,0.0,0.0,0.0,0.0,0.0,0.0,0.0,0.0,0.0,0.0,0.0,0.0,0.0,0.0,0.0,0.0,0.0,0.0,0.0,0.0,0.0,-0.1607,-0.2126,-0.2468,-0.263,-0.2714,0.0,0.0,0.0,0.0,0.0,0.0,0.0,0.0,0.0,-0.5112,-0.5223,-0.5266,-0.5362,-0.5873,-0.6094,-0.6136,-0.6662,-0.6906,-0.6949,-0.7037,-0.7078,-0.7078,-0.7078,-0.6662,-0.5907,-0.4974,-0.4046,-0.3166,0.0,0.0,0.0,0.0,-0.2403,-0.2691,0.0,0.0,0.0,0.0,0.0,0.0,0.0,0.0,0.0,0.0,0.0,0.0,0.2478,0.1939,0.1474,0.1259,0.0131,-0.063,-0.0775,-0.1828,-0.2374,-0.2233,-0.2241,-0.2238,-0.2238,-0.2447,-0.2642,-0.282,-0.3617,-0.4117,-0.4425,-0.5019,-0.5027,-0.4614,-0.4314,-0.3251,-0.1591,-0.0711,-0.0319,-0.0255,0.0,0.0,0.0,0.0,0.0,0.0,0.0,0.0,0.0,0.0,0.0,0.0,0.0,0.0,0.0,0.0,0.0,0.0,0.0,0.0,0.0,0.0,0.0,0.0,0.0,0.0,0.0,0.0,0.0,0.0,0.0,0.0,0.0,0.0,0.0,0.0,0.0,-0.176,-0.2417,-0.2775,-0.3314,-0.3573,0.0,0.0,0.0,0.0,0.0,0.0,-0.521,-0.5989,-0.6549,-0.6803,-0.6851,-0.6892,-0.6929,-0.7078,-0.7112,-0.7112,-0.7257,-0.7324,-0.7328,-0.7489,-0.7543,-0.7543,-0.7543,-0.7455,-0.7175,-0.5921,-0.5168,-0.4711,-0.3913,-0.3461,-0.3259,-0.3481,-0.3645,-0.3861,0.0,0.0,0.0,0.0,0.0,0.0,0.0,0.0,0.0,0.0,0.0,0.249,0.1913,0.1301,0.062,-0.022,-0.0755,-0.1451,-0.2327,-0.2793,-0.2989,-0.2874,-0.2854,-0.2863,-0.2863,-0.3309,-0.3593,-0.374,-0.46,-0.5199,-0.5534,-0.5705,-0.5733,-0.5675,-0.4995,-0.3921,-0.2577,-0.1625,-0.1174,-0.0994,-0.0284,0.0,0.0,0.0,0.0,0.0,0.0,0.0,0.0,0.0,0.0,0.0,0.0,0.0,0.0,0.0,0.0,0.0,0.0,0.0,0.0,0.0,0.0,0.0,0.0,0.0,0.0,0.0,0.0,0.0,0.0,0.0,0.0,0.0,0.0,0.0,0.0,0.0,0.0,-0.3756,-0.4875,0.0,0.0,0.0,0.0,-0.6103,-0.6296,-0.6448,-0.6575,-0.6771,-0.692,-0.7068,-0.7261,-0.7407,-0.7553,-0.7695,-0.7767,-0.777,-0.7874,-0.7944,-0.7944,-0.7951,-0.7958,-0.7958,-0.7958,-0.787,-0.7733,-0.7048,-0.6127,-0.5071,-0.5026,-0.4404,-0.3661,-0.4516,-0.4899,-0.5151,0.0,0.0,0.0,0.0,0.0,0.0,0.0,0.0,0.2943,0.2719,0.2031,0.1455,0.1246,0.0185,-0.0637,-0.0946,-0.2118,-0.2938,-0.3199,-0.3573,-0.4006,-0.4426,-0.3908,-0.3737,-0.4055,-0.4232,-0.4493,-0.4845,-0.5156,-0.5569,-0.6061,-0.6112,-0.62,-0.6376,-0.6015,-0.5527,-0.4912,-0.3098,-0.2199,-0.1933,-0.116,-0.0799,0.0,0.0,0.0,0.0,0.0,0.0,0.0,0.0,0.0,0.0,0.0,0.0,0.0,0.0,0.0,0.0,0.0,0.0,0.0,0.0,0.0,0.0,0.0,0.0,0.0,0.0,0.0,0.0,0.0,0.0,0.0,0.0,0.0,0.0,0.0,0.0,0.0,-0.4647,-0.5744,0.0,-0.6318,-0.6349,-0.6427,-0.6536,-0.6681,-0.6875,-0.7119,-0.7278,-0.7472,-0.7665,-0.7773,-0.7828,-0.7833,-0.7884,-0.7911,-0.7911,-0.7965,-0.7988,-0.7988,-0.7988,-0.7988,-0.7988,-0.7988,-0.7958,-0.7891,-0.7682,-0.7224,-0.6552,-0.6417,-0.6181,-0.5884,-0.6184,-0.6441,-0.6583,0.0,0.0,0.0,0.0,0.0,0.0,0.0,0.0,0.263,0.2428,0.1529,0.0711,0.0211,-0.0719,-0.1539,-0.2081,-0.3103,-0.3773,-0.3903,-0.4251,-0.4679,-0.5208,-0.4778,-0.4729,-0.5197,-0.537,-0.564,-0.6048,-0.616,-0.6252,-0.6375,-0.6868,-0.6961,-0.6698,-0.7092,-0.6914,-0.6266,-0.4755,-0.3722,-0.3005,-0.2135,-0.1541,-0.1112,0.0,0.0,0.0,0.0,0.0,0.0,0.0,0.0,0.0,0.0,0.0,0.0,0.0,0.0,0.0,0.0,0.0,0.0,0.0,0.0,0.0,0.0,0.0,0.0,0.0,0.0,0.0,0.0,0.0,0.0,0.0,0.0,0.0,0.0,0.0,-0.511,-0.5192,-0.6292,-0.6997,-0.6797,-0.6868,-0.6946,-0.7,-0.7143,-0.7336,-0.7584,-0.7692,-0.7838,-0.7982,-0.7988,-0.7988,-0.7988,-0.7988,-0.7988,-0.7988,-0.7988,-0.7988,-0.7988,-0.7988,-0.7988,-0.7988,-0.7988,-0.7988,-0.7988,-0.7988,-0.7865,-0.7584,-0.7428,-0.7294,-0.725,-0.725,-0.736,-0.7421,0.0,0.0,0.0,0.0,0.0,0.0,0.0,0.3034,0.2428,0.1851,0.1229,0.0294,-0.1132,-0.1326,-0.2021,-0.3648,-0.3679,-0.3878,-0.448,-0.4746,-0.4948,-0.5099,-0.5382,-0.5763,-0.6224,-0.6706,-0.7055,-0.73,-0.7638,-0.734,-0.6532,-0.8026,-0.8014,-0.6843,-0.8165,-0.7968,-0.6579,-0.6579,-0.5695,-0.4203,-0.3168,-0.2201,-0.1373,0.0,0.0,0.0,0.0,0.0,0.0,0.0,0.0,0.0,0.0,0.0,0.0,0.0,0.0,0.0,0.0,0.0,0.0,0.0,0.0,0.0,0.0,0.0,0.0,0.0,0.0,0.0,0.0,0.0,0.0,0.0,0.0,0.0,-0.3572,-0.4639,-0.5463,-0.5466,-0.6634,-0.7285,-0.695,-0.7224,-0.7455,-0.76,-0.774,-0.7882,-0.7982,-0.7995,-0.7995,-0.7995,-0.8002,-0.8005,-0.8005,-0.8005,-0.8002,-0.7995,-0.7995,-0.7995,-0.7988,-0.7988,-0.7988,-0.7988,-0.7988,-0.7988,-0.7988,-0.7988,-0.7988,-0.7975,-0.7875,-0.7733,-0.7614,-0.7614,-0.7611,-0.7607,0.0,0.0,0.0,0.0,0.0,0.0,0.0,0.2075,0.134,0.1163,0.0166,-0.0707,-0.1109,-0.2226,-0.3146,-0.3615,-0.4036,-0.4488,-0.5038,-0.4881,-0.4868,-0.5081,-0.629,-0.6878,-0.671,-0.7639,-0.7987,-0.7664,-0.777,-0.7466,-0.6803,-0.81,-0.8568,-0.8359,-0.9795,-0.9692,-0.8376,-0.8511,-0.7631,-0.6039,-0.4684,-0.3849,-0.3329,0.0,0.0,0.0,0.0,0.0,0.0,0.0,0.0,0.0,0.0,0.0,0.0,0.0,0.0,0.0,0.0,0.0,0.0,0.0,0.0,0.0,0.0,0.0,0.0,0.0,0.0,0.0,0.0,0.0,0.0,0.0,0.0,-0.5249,-0.5043,-0.6159,-0.7018,-0.7118,-0.7662,-0.7946,-0.7705,-0.7759,-0.7872,-0.7867,-0.7904,-0.7944,-0.7988,-0.8147,-0.8208,-0.8208,-0.8306,-0.836,-0.836,-0.836,-0.8309,-0.8208,-0.8208,-0.8147,-0.7988,-0.7988,-0.7988,-0.7988,-0.7988,-0.7988,-0.7988,-0.7988,-0.7988,-0.7985,-0.7944,-0.7904,-0.787,-0.787,-0.7848,-0.7753,0.0,0.0,0.0,0.0,0.0,0.0,0.0,0.1674,0.0895,0.0895,0.0,-0.0895,-0.1612,-0.2476,-0.3268,-0.3919,-0.4442,-0.4843,-0.5037,-0.5217,-0.5638,-0.6374,-0.7248,-0.7911,-0.8364,-0.9178,-0.9238,-0.8508,-0.9183,-0.8896,-0.7688,-0.9403,-1.0067,-0.9883,-1.1238,-1.1169,-1.0081,-0.959,-0.8837,-0.7856,-0.6404,-0.5313,-0.4419,-0.3861,-0.3039,-0.2094,-0.1663,-0.1136,-0.0592,-0.0148,0.0,0.0,0.0,0.0,0.0,0.0,0.0,0.0,0.0,0.0,0.0,0.0,0.0,0.0,0.0,0.0,0.0,0.0,0.0,0.0,0.0,0.0,0.0,0.0,-0.5555,-0.6499,-0.6713,-0.7323,-0.7838,-0.7987,-0.816,-0.8235,-0.8143,-0.8136,-0.816,-0.8221,-0.8225,-0.8225,-0.8225,-0.8309,-0.836,-0.836,-0.8438,-0.8482,-0.8482,-0.8482,-0.8442,-0.836,-0.835,-0.8221,-0.8133,-0.8019,-0.7988,-0.7988,-0.7988,-0.7988,-0.7988,-0.7988,-0.7988,0.0,0.0,0.0,0.0,0.0,-0.7934,-0.7906,0.0,0.0,0.0,0.0,0.0,0.0,0.0,0.163,0.0873,0.0806,0.0192,-0.0787,-0.2271,-0.2431,-0.2955,-0.4354,-0.4831,-0.5019,-0.4925,-0.5705,-0.6797,-0.8157,-0.8109,-0.8809,-1.038,-1.0949,-1.0737,-0.9729,-1.1172,-1.0888,-0.9011,-1.1278,-1.1989,-1.1387,-1.257,-1.2569,-1.163,-1.0496,-0.9799,-0.9444,-0.8153,-0.6671,-0.5122,-0.4968,-0.4321,-0.3383,-0.2475,-0.1981,-0.1629,-0.0569,0.0,0.0,0.0,0.0,0.0,0.0,0.0,0.0,0.0,0.0,0.0,0.0,0.0,0.0,0.0,0.0,0.0,0.0,0.0,0.0,0.0,0.0,0.0,0.0,-0.6913,-0.7845,-0.8262,-0.8218,-0.818,-0.8282,-0.8361,-0.8364,-0.8347,-0.8347,-0.8347,-0.8472,-0.8482,-0.8482,-0.8482,0.0,0.0,0.0,0.0,-0.8533,-0.8533,-0.8533,-0.8523,-0.8506,-0.8381,-0.8364,-0.834,-0.815,-0.8039,-0.8039,-0.8039,-0.8029,-0.8015,-0.8015,-0.8005,-0.7988,-0.7988,-0.7988,-0.7988,-0.7988,-0.7988,-0.7988,0.0,0.0,0.0,0.0,0.0,0.0,0.0,0.1362,0.0716,0.0247,-0.0865,-0.1735,-0.2062,-0.3036,-0.3817,-0.4224,-0.458,-0.5194,-0.6179,-0.6105,-0.6737,-0.8288,-0.8451,-0.9127,-1.0515,-1.1795,-1.2016,-1.113,-1.163,-1.1483,-1.0686,-1.2047,-1.2742,-1.2875,-1.428,-1.4216,-1.3048,-1.3064,-1.175,-0.9703,-0.9436,-0.8253,-0.6628,-0.6401,-0.5674,-0.4717,-0.4393,-0.3724,-0.2832,-0.1804,-0.1382,-0.1142,-0.0258,0.0,0.0,0.0,0.0,0.0,0.0,0.0,0.0,0.0,0.0,0.0,0.0,0.0,0.0,0.0,0.0,0.0,0.0,0.0,0.0,-0.6091,-0.7411,-0.8384,-0.8594,-0.8706,-0.8682,-0.8469,-0.855,-0.8577,-0.8455,-0.8442,-0.8452,-0.8479,-0.8482,-0.8482,-0.8482,-0.8601,-0.8665,-0.8665,-0.8784,-0.8797,-0.8797,-0.8797,-0.8788,-0.8665,0.0,0.0,-0.8438,-0.8411,-0.8397,-0.8397,-0.8397,-0.8333,-0.8225,-0.8225,-0.815,-0.7988,-0.7988,-0.7988,-0.7988,-0.7988,-0.7988,-0.7988,0.0,0.0,0.0,0.0,0.0,0.0,0.0,0.1297,0.0694,0.009,-0.0836,-0.1592,-0.1971,-0.28,-0.3517,-0.3963,-0.4733,-0.5779,-0.715,-0.7067,-0.7717,-0.9418,-0.9392,-1.0108,-1.1657,-1.2554,-1.2555,-1.1717,-1.2703,-1.2776,-1.1965,-1.3306,-1.402,-1.4343,-1.5048,-1.5093,-1.4512,-1.3389,-1.2116,-1.072,-0.9421,-0.8361,-0.751,-0.7261,-0.6701,-0.6019,-0.5457,-0.4756,-0.3929,-0.2903,-0.2448,-0.2259,-0.1706,-0.1192,-0.0814,0.0,0.0,0.0,0.0,0.0,0.0,0.0,0.0,0.0,0.0,0.0,0.0,0.0,0.0,-0.2223,0.0,0.0,-0.6408,-0.7279,-0.8092,-0.8676,-0.8899,-0.8998,-0.8933,-0.8632,-0.8662,-0.8679,-0.8604,-0.8598,-0.8628,-0.8706,-0.871,-0.871,-0.871,-0.8781,-0.8825,-0.8825,-0.8844,-0.8885,-0.8885,-0.8885,-0.8844,-0.8825,-0.8747,-0.8669,-0.8594,-0.8516,-0.8482,-0.8479,-0.8408,-0.8388,-0.8316,-0.8187,-0.8109,-0.7988,-0.7988,-0.7988,-0.7988,-0.7988,-0.7988,-0.7988,0.0,0.0,0.0,0.0,0.0,0.0,0.0,0.1385,0.0806,0.009,-0.0623,-0.1292,-0.1901,-0.2509,-0.3207,-0.4022,-0.5121,-0.6369,-0.7797,-0.7909,-0.8702,-1.0521,-1.0266,-1.0934,-1.2764,-1.3053,-1.2893,-1.2241,-1.3687,-1.3972,-1.3173,-1.4403,-1.5135,-1.5317,-1.5431,-1.5578,-1.5556,-1.3284,-1.2139,-1.1702,-0.9312,-0.8233,-0.7961,-0.7743,-0.7468,-0.708,-0.6125,-0.5538,-0.5024,-0.3909,-0.3435,-0.3295,-0.3118,-0.2504,-0.1848,-0.1818,-0.118,0.0,0.0,0.0,0.0,0.0,0.0,0.0,0.0,0.0,-0.0516,-0.0744,-0.1984,-0.3323,-0.4283,-0.5802,-0.726,-0.8357,-0.8679,-0.8879,-0.9176,-0.921,-0.9122,-0.8825,-0.8798,-0.8784,-0.8757,-0.8754,-0.8804,-0.8875,-0.8885,-0.8885,-0.8885,-0.8885,-0.8895,-0.8981,-0.8981,-0.8994,-0.9025,-0.8994,-0.8981,-0.8977,-0.8825,-0.8754,-0.875,-0.8628,-0.857,-0.856,-0.8387,-0.8364,-0.8296,-0.8113,-0.7988,-0.7988,-0.7988,-0.7988,-0.7988,-0.7988,-0.7988,-0.7988,0.0,0.0,0.0,0.0,0.0,0.0,0.0,0.0,0.1297,0.0157,-0.0988,-0.173,-0.182,-0.2834,-0.395,-0.5038,-0.5637,-0.6505,-0.781,-0.7909,-0.8702,-1.0521,-1.0266,-1.0934,-1.2764,-1.3053,-1.3273,-1.343,-1.3884,-1.4183,-1.4298,-1.4779,-1.5028,-1.5082,-1.5551,-1.5658,-1.5365,-1.4165,-1.3006,-1.1799,-1.0342,-0.9069,-0.7971,-0.7851,-0.7689,-0.7478,-0.6814,-0.6374,-0.596,-0.4782,-0.4252,-0.3939,-0.3169,-0.2827,-0.2739,-0.2627,0.0,-0.2052,-0.1199,-0.0569,-0.0317,-0.1113,-0.0659,-0.0301,0.0,0.0,-0.2302,-0.3485,-0.4833,-0.5922,-0.6191,-0.7331,-0.8361,-0.8652,-0.892,-0.9173,-0.9204,-0.921,-0.9197,-0.9163,-0.9159,-0.9052,-0.8868,-0.8858,-0.8865,-0.8881,-0.8885,-0.8885,-0.8885,-0.8885,-0.8998,-0.918,-0.9187,-0.9251,-0.933,-0.9255,-0.9187,-0.9183,-0.8981,-0.8858,-0.8858,-0.8841,-0.8834,-0.8817,-0.8584,-0.8459,-0.8435,-0.8153,-0.7988,-0.7988,-0.7988,-0.7988,-0.7988,-0.7988,-0.7988,-0.7988,0.0,0.0,0.0,0.0,0.0,0.0,0.0,0.0,0.0,0.0157,-0.1051,-0.1808,-0.1808,-0.2882,-0.3928,-0.4718,-0.5134,-0.5952,-0.7331,-0.7909,-0.8815,-1.0236,-1.0651,-1.1475,-1.2764,-1.3053,-1.3434,-1.3901,-1.4195,-1.4402,-1.4529,-1.4823,-1.5008,-1.5028,-1.5391,-1.5504,-1.5319,-1.4349,-1.3151,-1.1799,-1.0489,-0.9155,-0.7872,-0.7496,-0.7275,-0.7041,-0.679,-0.6396,0.0,-0.5348,-0.5032,-0.4818,-0.4471,-0.391,-0.3427,-0.3355,-0.2987,0.0,-0.2227,-0.1482,0.0,0.0,-0.129,-0.1407,-0.1979,-0.2853,-0.3711,-0.4273,-0.5537,-0.6528,-0.6626,-0.7796,-0.8798,0.0,-0.9129,-0.9272,-0.9395,-0.9323,-0.921,-0.921,-0.9001,-0.8906,-0.8881,-0.8885,-0.8885,-0.8885,-0.8885,-0.8885,-0.8885,-0.8885,-0.9005,-0.9204,-0.9072,-0.91,-0.9306,-0.9103,-0.9028,-0.9028,-0.8967,-0.8885,-0.8885,-0.8885,-0.8834,-0.8794,-0.8577,-0.8482,-0.8465,-0.8258,-0.8174,-0.8174,-0.8174,-0.8119,-0.7988,-0.7988,-0.7988,-0.7988,0.0,0.0,0.0,0.0,0.0,0.0,0.0,0.0,0.0,0.0,-0.0895,-0.1674,-0.2008,-0.297,-0.3818,-0.4347,-0.4717,-0.5423,-0.6635,-0.7695,-0.8711,-0.9691,-1.0658,-1.1637,-1.2643,-1.2846,-1.3253,-1.3848,-1.4055,-1.4202,-1.4246,-1.4583,-1.4767,-1.478,-1.511,-1.5231,-1.5079,-1.4076,-1.3093,-1.2045,-1.0407,-0.9088,-0.7995,-0.7214,-0.6746,-0.6447,-0.6407,-0.6057,-0.5596,-0.5454,-0.5332,-0.5279,-0.5317,-0.4793,-0.4157,-0.4233,-0.3514,-0.2858,-0.3509,0.0,0.0,-0.2308,-0.2626,-0.2847,-0.3271,-0.4261,-0.521,-0.5591,-0.6523,-0.7237,-0.7237,-0.8141,-0.8923,-0.9072,-0.9221,-0.935,-0.9513,-0.932,-0.9193,-0.91,-0.8828,-0.8693,-0.8801,-0.8797,-0.8838,-0.8878,-0.8977,-0.8998,-0.8998,-0.9039,-0.9127,-0.933,-0.9178,-0.9174,-0.9333,-0.9174,-0.9083,-0.8998,-0.8998,-0.8977,-0.8885,-0.8885,-0.8824,-0.8764,-0.8611,-0.8547,-0.8533,-0.8387,-0.8381,-0.8381,-0.8381,-0.8262,-0.8157,-0.8116,-0.8025,-0.7988,0.0,0.0,0.0,0.0,0.0,0.0,0.0,0.0,0.0,0.0,0.0,0.0,0.0,-0.3236,-0.3818,-0.4347,-0.4717,-0.5148,-0.571,-0.7112,-0.8199,-0.882,-0.9977,-1.1162,-1.2291,-1.2325,-1.2625,-1.324,-1.3247,-1.3353,-1.3633,-1.3975,-1.4115,-1.4135,-1.476,-1.4816,-1.4475,-1.3438,-1.299,-1.274,-1.0153,-0.9027,-0.8682,-0.7114,-0.6217,-0.581,-0.5674,-0.542,-0.5096,-0.4958,-0.4908,-0.4924,-0.5063,-0.5103,0.0,-0.5304,-0.411,-0.3145,-0.5174,0.0,-0.254,-0.4896,-0.4807,-0.4526,-0.6047,-0.6508,-0.7007,-0.8313,-0.8595,-0.8656,-0.8656,-0.8659,-0.8767,-0.8865,-0.9188,-0.9378,-0.9388,-0.9309,-0.91,-0.8905,-0.8676,-0.8489,0.0,-0.8628,-0.8777,-0.8871,-0.9066,-0.9204,-0.9204,-0.9286,-0.9439,-0.9591,-0.9591,-0.9591,-0.9595,-0.9591,-0.9442,-0.9204,-0.9204,-0.9072,-0.8885,-0.8885,-0.8881,-0.8868,-0.8771,-0.8703,-0.8693,-0.8537,-0.8476,-0.8476,-0.8476,-0.8472,-0.8452,-0.8316,-0.817,-0.7988,0.0,0.0,0.0,0.0,0.0,0.0,0.0,0.0,0.0,0.0,0.0,0.0,0.0,0.0,0.0,0.0,-0.3976,-0.4365,-0.5116,-0.579,-0.6784,-0.8145,-0.8972,-0.9955,-1.1162,-1.1336,-1.1724,-1.2325,-1.2325,-1.2472,-1.2752,-1.2852,-1.3006,-1.3253,-1.3621,-1.3854,-1.3913,-1.3771,-1.2763,-1.1193,-1.0204,-0.8756,-0.7068,-0.6245,-0.5664,-0.5292,0.0,-0.4928,-0.4816,-0.4667,-0.4644,-0.4651,-0.4699,-0.4716,-0.4805,-0.5262,-0.5086,-0.4858,-0.5237,0.0,-0.4321,-0.4601,-0.5201,-0.5891,-0.6516,-0.7408,-0.8278,-0.8622,-0.8557,-0.8387,-0.8286,-0.8214,-0.8347,-0.8594,-0.8889,-0.9157,-0.9354,-0.9167,-0.8954,-0.8804,-0.8523,0.0,0.0,0.0,0.0,-0.8784,-0.9015,-0.921,-0.921,-0.93,-0.9452,-0.9605,-0.951,-0.9507,-0.9608,-0.951,-0.9354,-0.9207,-0.9055,-0.8984,-0.8878,-0.8832,-0.8842,-0.8875,-0.8777,-0.8767,-0.8849,-0.8696,-0.8632,-0.8632,-0.8632,-0.857,-0.8489,-0.8543,-0.8465,-0.8306,0.0,0.0,0.0,0.0,0.0,0.0,0.0,0.0,0.0,0.0,0.0,0.0,0.0,0.0,0.0,0.0,0.0,-0.3839,-0.4408,-0.4888,-0.5795,-0.7232,-0.7949,-0.8896,-1.0074,-1.0274,-1.0601,-1.1122,-1.1223,-1.1396,-1.1683,-1.1784,-1.1991,-1.2321,-1.2485,-1.252,-1.2473,-1.2935,-1.1881,-0.9898,-0.9642,-0.8319,-0.6427,-0.5647,-0.5192,0.0,-0.4697,-0.4638,-0.4624,-0.4525,-0.4491,-0.4491,-0.4491,-0.4638,-0.4911,-0.5405,-0.5548,-0.5599,-0.5896,-0.5858,-0.5717,-0.579,-0.6565,-0.7305,-0.7418,-0.8128,-0.8784,-0.8526,-0.8275,-0.8045,-0.7838,-0.7801,-0.7916,-0.8265,-0.8537,-0.8821,-0.9174,-0.9011,-0.8821,-0.8723,-0.8543,-0.8408,0.0,0.0,0.0,-0.8713,-0.9035,-0.9292,-0.9292,-0.9429,-0.9585,-0.9683,-0.9591,-0.9561,-0.9608,-0.9561,-0.9435,-0.9289,-0.9086,-0.8988,-0.8878,-0.8835,-0.879,-0.8878,-0.8835,-0.8849,-0.8875,-0.8832,-0.8791,-0.8791,-0.8791,-0.873,-0.8652,-0.8696,-0.8648,-0.853,0.0,0.0,0.0,0.0,0.0,0.0,0.0,0.0,0.0,0.0,0.0,0.0,0.0,0.0,0.0,0.0,0.0,0.0,-0.3556,-0.4358,-0.5222,-0.6085,-0.6955,-0.7951,-0.9076,-0.9117,-0.9291,-0.9648,-0.9893,-1.018,-1.0506,-1.0768,-1.1056,-1.1302,-1.1281,-1.0913,-1.0376,-1.0994,-1.0341,-0.8847,-0.8441,-0.7689,-0.6653,-0.5376,-0.4806,-0.466,-0.4542,-0.4491,-0.4491,-0.4491,-0.4501,-0.4515,-0.4532,-0.4941,-0.5477,-0.5745,-0.5533,-0.5537,-0.7178,-0.6998,-0.6776,-0.8305,-0.8699,-0.8699,-0.8699,-0.8686,-0.855,-0.8059,-0.7882,-0.7675,-0.7426,-0.7392,-0.7502,-0.7887,-0.816,-0.8435,-0.8821,-0.8818,-0.8733,0.0,0.0,0.0,0.0,0.0,0.0,-0.8743,0.0,-0.9384,-0.9391,-0.9666,-0.9822,-0.9822,-0.9822,-0.9754,-0.9622,-0.9747,-0.9669,-0.9391,-0.9286,-0.9083,-0.8895,-0.8888,-0.8885,-0.8885,-0.8885,-0.8885,-0.8885,-0.8885,-0.8885,-0.8885,-0.8885,-0.8885,-0.8865,-0.8774,-0.8723,-0.8703,0.0,0.0,0.0,0.0,0.0,0.0,0.0,0.0,0.0,0.0,0.0,0.0,0.0,0.0,0.0,0.0,0.0,0.0,-0.2921,-0.3557,-0.4327,-0.5194,-0.582,-0.6614,-0.7616,-0.8033,-0.8385,-0.8737,-0.8811,-0.8971,-0.9259,-0.9524,-0.9846,-1.011,-0.9781,-0.9664,-0.9717,-0.9319,-0.8452,-0.7272,-0.6996,-0.6241,-0.5225,-0.478,-0.4583,-0.4542,-0.4505,-0.4491,-0.4491,-0.4491,0.0,0.0,0.0,-0.5423,-0.5769,-0.6179,-0.6453,-0.6775,-0.752,-0.7776,-0.7911,-0.8413,-0.854,-0.854,-0.854,-0.837,-0.8066,-0.778,-0.7414,-0.7061,-0.6798,-0.6973,-0.7275,-0.7506,-0.8041,0.0,-0.8838,-0.8998,0.0,-0.9094,0.0,-0.8984,-0.8838,-0.8988,0.0,0.0,-0.9252,-0.9432,-0.9544,-0.9724,-0.9822,-0.9822,-0.9822,-0.9802,-0.9768,-0.9696,-0.9625,-0.9547,-0.934,-0.919,-0.9093,-0.8988,-0.8885,-0.8885,-0.8885,-0.8885,-0.8885,-0.8885,-0.8885,-0.8885,-0.8885,-0.8885,-0.8878,-0.8841,-0.8824,-0.8821,0.0,0.0,0.0,0.0,0.0,0.0,0.0,0.0,0.0,0.0,0.0,0.0,0.0,0.0,0.0,0.0,0.0,0.0,0.0,-0.2879,-0.3532,-0.4258,-0.483,-0.55,-0.6304,-0.6864,-0.7249,-0.7431,-0.7553,-0.7814,-0.8223,-0.8261,-0.8508,-0.8898,-0.8635,-0.8339,-0.8055,-0.7944,-0.7017,0.0,0.0,-0.5389,-0.4494,-0.4498,-0.4491,-0.4491,-0.4491,-0.4535,0.0,0.0,0.0,-0.5176,-0.5542,-0.5905,-0.6298,-0.6817,0.0,-0.75,-0.8065,-0.8333,-0.8482,-0.8564,-0.8581,-0.8496,-0.817,-0.7967,-0.7689,-0.7129,-0.6861,-0.6637,-0.6332,-0.659,-0.6939,0.0,0.0,0.0,-0.8767,-0.8967,-0.9106,0.0,-0.9313,0.0,-0.9147,-0.9266,-0.9354,0.0,-0.9432,-0.9517,-0.9605,-0.9744,-0.9822,-0.9822,-0.9822,-0.9822,-0.9822,-0.9741,-0.9673,-0.9608,-0.9435,-0.934,-0.9207,-0.9069,-0.8998,-0.8885,0.0,-0.8885,-0.8885,-0.8885,-0.8885,-0.8885,-0.8885,-0.8885,-0.8885,-0.8885,-0.8885,-0.8885,0.0,0.0,0.0,0.0,0.0,0.0,0.0,0.0,0.0,0.0,0.0,0.0,0.0,0.0,0.0,0.0,0.0,0.0,0.0,0.0,-0.2733,-0.3369,-0.3964,-0.4561,-0.5173,-0.5766,-0.6072,-0.6072,-0.6402,-0.6777,-0.7208,-0.7082,-0.7241,-0.7603,-0.7641,-0.7064,-0.6114,-0.6744,-0.5937,-0.4313,-0.505,-0.4919,-0.4264,0.0,-0.4491,-0.4491,-0.4491,0.0,0.0,0.0,-0.5433,-0.5566,-0.6003,-0.6444,-0.6898,-0.7461,-0.7729,-0.7963,-0.8526,-0.8696,-0.8706,-0.8686,-0.8652,-0.8383,-0.7583,-0.732,-0.6991,-0.6076,0.0,-0.6169,-0.586,-0.6197,-0.6644,-0.7028,0.0,-0.7882,-0.8608,-0.8859,-0.9076,-0.9374,-0.9544,-0.9585,-0.9452,-0.9561,-0.9639,-0.9639,-0.9639,-0.9639,-0.9639,-0.9754,-0.9822,-0.9822,-0.9822,-0.9822,-0.9822,-0.9822,-0.9758,-0.9639,-0.9618,-0.9469,-0.9268,-0.9228,-0.9086,-0.8964,-0.8892,-0.8885,-0.8885,-0.8885,-0.8885,-0.8885,-0.8885,-0.8895,-0.8908,-0.8892,-0.8908,-0.8935,0.0,0.0,0.0,0.0,0.0,0.0,0.0,0.0,0.0,0.0,0.4408,0.3705,0.0,0.0,0.0,0.0,0.0,0.0,0.0,0.0,0.0,-0.2782,-0.3372,-0.3942,-0.4543,-0.5151,-0.5459,-0.5459,-0.6004,-0.607,-0.5696,-0.6366,-0.6464,-0.6096,-0.6253,-0.5997,-0.5457,-0.5474,-0.5074,-0.4453,-0.4615,-0.4584,-0.4457,-0.4481,0.0,0.0,0.0,0.0,0.0,0.0,-0.5606,-0.5976,-0.6549,-0.6993,-0.7322,-0.7672,-0.7882,-0.8025,-0.8428,-0.8615,-0.8679,-0.8554,-0.8336,-0.7822,-0.6578,-0.5877,0.0,0.0,-0.4447,-0.4951,-0.4804,-0.5814,-0.6766,-0.7045,-0.7495,-0.7994,-0.8621,-0.8944,-0.9228,0.0,-0.9696,-0.9774,-0.9747,-0.9768,0.0,0.0,-0.9785,-0.9785,-0.9785,-0.9805,-0.9822,-0.9822,-0.9822,-0.9822,-0.9822,-0.9822,-0.9808,-0.9781,-0.9666,-0.9581,-0.952,-0.9326,-0.9197,-0.9166,-0.8991,0.0,-0.8885,-0.8885,-0.8885,-0.8885,-0.8885,-0.9011,-0.91,-0.8984,-0.9093,-0.9269,0.0,0.0,0.0,0.0,0.0,0.0,0.0,0.6951,0.662,0.6241,0.5685,0.4887,0.3708,0.3398,0.2992,0.0,0.0,0.0,0.0,0.0,0.0,0.0,0.0,0.0,-0.351,-0.4073,-0.4513,-0.4822,0.0,-0.5286,-0.5308,-0.5414,-0.5459,-0.5492,-0.5656,-0.5489,-0.509,-0.51,-0.4877,-0.4491,-0.4491,-0.4491,-0.4491,0.0,0.0,0.0,0.0,0.0,0.0,0.0,-0.5491,-0.5932,-0.665,-0.7238,-0.7499,-0.7027,-0.6977,-0.7016,-0.6563,-0.6477,-0.6468,-0.6295,-0.6138,-0.5791,-0.4797,0.0,0.0,0.0,-0.3766,-0.4455,-0.4491,-0.5587,0.0,-0.6865,-0.7176,-0.7624,-0.8275,-0.8686,0.0,-0.9445,-0.9686,-0.9822,0.0,-0.9822,-0.9822,-0.9822,-0.9822,-0.9822,-0.9822,-0.9822,-0.9822,-0.9822,-0.9822,-0.9822,-0.9822,-0.9822,-0.9822,-0.9822,-0.9751,-0.9683,-0.9605,-0.9456,-0.9303,-0.9207,-0.9079,-0.9049,-0.9049,-0.9049,-0.9096,-0.9167,-0.9167,-0.9164,-0.921,-0.9164,-0.9208,-0.9299,0.0,0.0,0.0,0.0,0.0,0.0,0.0,0.7621,0.7355,0.7229,0.6716,0.5978,0.4962,0.4284,0.363,0.0,0.0,0.0,0.0,0.0,0.0,0.0,0.0,0.0,0.0,0.0,0.0,-0.3836,-0.3968,0.0,0.0,0.0,0.0,0.0,-0.513,-0.5029,-0.449,-0.491,-0.4832,0.0,0.0,-0.4491,0.0,0.0,0.0,0.0,0.0,0.0,0.0,0.0,-0.5003,-0.538,-0.5958,-0.6802,-0.7321,-0.6136,-0.601,-0.5915,-0.4765,-0.4473,-0.4445,-0.4252,-0.417,-0.3917,-0.318,-0.3037,0.0,0.0,-0.2944,-0.3762,-0.4147,-0.5156,-0.612,0.0,-0.6922,-0.726,-0.7857,0.0,0.0,0.0,0.0,0.0,-0.9774,-0.9802,0.0,-0.9822,-0.9822,-0.9822,-0.9822,-0.9822,-0.9822,-0.9822,-0.9822,-0.9822,-0.9822,-0.9822,-0.9822,-0.9822,-0.9822,-0.9764,-0.9652,-0.9625,-0.9479,-0.9306,-0.9272,-0.9258,-0.9258,-0.9258,-0.933,-0.9381,-0.9381,-0.9327,-0.932,-0.9351,-0.9344,-0.934,0.0,0.0,0.0,0.0,0.0,0.0,0.0,0.786,0.8057,0.7921,0.7325,0.6776,0.6356,0.502,0.4027,0.0,0.0,0.0,0.0,0.0,0.0,0.0,0.0,0.0,0.0,0.0,0.0,-0.2051,0.0,0.0,0.0,0.0,0.0,0.0,0.0,-0.4267,-0.3168,-0.4521,0.0,0.0,0.0,0.0,0.0,0.0,0.0,0.0,0.0,0.0,0.0,0.0,0.0,-0.4089,-0.3811,-0.5123,-0.66,-0.5489,0.0,0.0,-0.4523,-0.4365,-0.4457,-0.4266,-0.4019,-0.3522,-0.2375,0.0,0.0,-0.0475,-0.1099,-0.2113,-0.3071,-0.4119,-0.526,-0.6504,-0.6841,-0.7112,0.0,0.0,0.0,0.0,0.0,0.0,-0.9629,-0.9744,-0.9822,-0.9822,-0.9822,-0.9822,-0.9822,-0.9822,-0.9822,-0.9822,-0.9822,-0.9822,-0.9822,-0.9822,-0.9822,-0.9822,-0.9822,-0.9815,-0.9795,-0.9666,-0.9595,-0.9561,-0.9418,-0.9361,0.0,-0.9361,-0.9367,-0.9381,-0.9381,-0.9456,-0.9551,-0.9425,-0.954,-0.97,0.0,0.0,0.0,0.0,0.0,0.0,0.84,0.8434,0.8581,0.8802,0.8121,0.7486,0.7193,0.593,0.4846,0.4209,0.0,0.0,0.0,0.0,0.0,0.0,0.0,0.0,0.0,0.0,0.0,-0.1266,-0.1868,0.0,0.0,0.0,0.0,0.0,0.0,0.0,-0.241,-0.3079,0.0,0.0,0.0,0.0,0.0,0.0,0.0,0.0,0.0,0.0,0.0,0.0,0.0,0.0,-0.2739,-0.3405,0.0,0.0,-0.3296,-0.3238,-0.2031,-0.1754,-0.1796,-0.1693,-0.1579,-0.1369,-0.0918,0.0,-0.0522,-0.0102,-0.0746,-0.176,-0.2884,-0.3912,-0.4992,-0.6254,-0.6488,0.0,-0.721,0.0,0.0,0.0,0.0,0.0,0.0,0.0,-0.9822,-0.9822,-0.9822,-0.9822,-0.9822,-0.9822,-0.9822,-0.9822,-0.9822,-0.9822,-0.9822,-0.9822,-0.9822,-0.9822,-0.9822,-0.9822,-0.9819,-0.9764,-0.969,-0.9605,-0.9544,-0.9517,0.0,-0.9517,-0.9568,-0.9646,-0.9646,-0.9574,-0.9476,-0.9507,-0.9476,-0.9395,0.0,0.0,0.0,0.0,0.0,0.8786,0.874,0.8656,0.8865,0.9564,0.8657,0.7976,0.8035,0.6787,0.5692,0.508,0.4339,0.0,0.0,0.0,0.0,0.0,0.0,0.0,0.0,0.0,0.0334,-0.0111,-0.0712,-0.1003,0.0,0.0,0.0,0.0,0.0,0.0,0.0,0.0,0.0,0.0,0.0,0.0,0.0,0.0,0.0,0.0,0.0,0.0,0.0,0.0,0.0,0.0,0.0,0.0,0.0,0.0,-0.1728,-0.1606,-0.0328,0.0,0.0,0.0,0.0,0.0,0.0,0.0,0.0,0.0,-0.0504,-0.1365,-0.2843,-0.3627,-0.4572,-0.6053,-0.6334,-0.6504,-0.6829,-0.7183,0.0,0.0,0.0,-0.9076,0.0,-0.9659,-0.9822,-0.9822,-0.9822,-0.9822,-0.9822,-0.9822,-0.9822,-0.9822,-0.9822,-0.9822,-0.9822,-0.9822,-0.9822,-0.9822,-0.9822,-0.9822,-0.9822,-0.9822,-0.9768,-0.9673,-0.9673,-0.9673,0.0,-0.9673,-0.973,-0.9822,-0.9822,-0.9669,-0.9466,-0.9615,-0.9479,-0.9275,0.0,0.0,0.0,0.0,0.0,0.0,0.8361,0.8354,0.8861,1.0127,0.884,0.8136,0.899,0.7542,0.6488,0.6481,0.5073,0.0,0.0,0.0,0.0,0.0,0.0,0.0,0.0,0.0,0.1784,0.1762,0.1163,0.0873,0.0851,-0.049,-0.0714,-0.0072,0.0,0.0,0.0,0.0,0.0,0.0,0.0,0.0,0.0,0.0,0.0,0.0,0.0,0.0,0.0,0.0,0.0,0.0,0.0,0.0,0.0,0.0,-0.1344,-0.1356,-0.03,0.0,0.0,0.0,0.0,0.0,0.0,0.0,0.0,0.0,0.0,-0.065,-0.2735,-0.3123,-0.3802,-0.5938,-0.6419,-0.6576,-0.6842,-0.7183,0.0,0.0,0.0,-0.8608,-0.8861,-0.9476,-0.9822,-0.9822,-0.9822,0.0,-0.9822,-0.9822,-0.9822,-0.9822,-0.9822,-0.9822,-0.9822,-0.9822,-0.9822,-0.9822,-0.9822,-0.9822,-0.9822,-0.9822,-0.9822,-0.9819,-0.9819,-0.9819,0.0,-0.9819,-0.9819,-0.9822,-0.9822,-0.9734,-0.9625,-0.9768,-0.9632,-0.9381,0.0,0.0,0.0,0.0,0.0,0.0,0.0,0.9127,0.9462,0.9354,0.9123,0.8875,0.8648,0.7845,0.7207,0.6931,0.5793,0.0,0.0,0.0,0.0,0.0,0.0,0.0,0.0,0.0,0.2406,0.2406,0.1808,0.1297,0.0895,0.0476,0.016,-0.0023,-0.0487,0.0,0.0,0.0,0.0,0.0,0.0,0.0,0.0,0.0,0.0,0.0,0.0,0.0,0.0,0.0,0.0,0.0,0.0,0.0,0.0,-0.0353,-0.0422,0.0,-0.0076,0.0,0.0,0.0,0.0,0.0,0.0,0.0,0.0,0.0,0.0,-0.0409,-0.1828,-0.2619,-0.3581,-0.5082,-0.5978,-0.658,0.0,0.0,0.0,-0.7857,-0.8543,-0.9059,0.0,0.0,-0.9717,-0.9815,-0.9822,-0.9822,-0.9822,-0.9822,-0.9822,-0.9822,-0.9822,-0.9822,-0.9822,-0.9822,-0.9822,-0.9822,-0.9822,-0.9822,-0.9822,-0.9822,-0.9822,-0.9822,-0.9822,-0.9822,-0.9822,-0.9822,-0.9822,-0.9822,-0.9822,-0.9734,-0.9615,-0.9659,-0.9486,-0.9282,0.0,0.0,0.0,0.0,0.0,0.0,0.0,0.9215,0.9416,0.9567,0.9134,0.8833,0.8844,0.8154,0.7593,0.7349,0.6568,0.0,0.0,0.0,0.0,0.0,0.0,0.0,0.0,0.3818,0.3334,0.3334,0.2536,0.183,0.1228,0.1006,0.0583,0.0,0.0,0.0,0.0,0.0,0.0,0.0,0.0,0.0,0.0,0.0,0.0,0.0,0.0,0.0,0.0,0.0,0.0,0.0,0.0,0.0,0.0,0.0,0.0,0.0,0.0,0.0,0.0,0.0,0.0,0.0,0.0,0.0,0.0,0.0,0.0,-0.0441,-0.1842,-0.2641,-0.3571,-0.5056,-0.5982,-0.6559,0.0,0.0,0.0,-0.7917,0.0,0.0,0.0,-0.954,-0.9666,-0.9812,-0.9822,-0.9822,-0.9822,-0.9822,-0.9822,-0.9822,-0.9822,-0.9822,-0.9822,-0.9822,-0.9822,-0.9822,-0.9822,-0.9822,-0.9822,-0.9822,-0.9822,-0.9822,-0.9822,-0.9822,0.0,-0.9822,-0.9822,-0.9822,-0.9822,-0.9734,-0.9608,-0.9608,-0.9757,-0.9987,0.0,0.0,0.0,0.0,0.0,0.0,0.0,0.8828,0.8926,1.0334,0.8951,0.8244,0.9352,0.8429,0.7725,0.7695,0.0,0.0,0.0,0.0,0.0,0.0,0.0,0.0,0.532,0.4738,0.4435,0.4435,0.335,0.2517,0.1917,0.1318,0.0716,0.0135,0.0135,0.0112,0.0067,0.0,0.0,0.0,0.0,0.0,0.0,0.0,0.0,0.0,0.0,0.0,0.0,0.0,0.0,0.0,0.0,0.0,0.0,0.0,0.0,0.0,0.0,0.0,0.0,0.0,0.0,0.0,0.0,0.0,0.0,0.0,0.0,-0.0543,-0.2364,-0.2926,-0.37,-0.5529,-0.6217,-0.6542,0.0,-0.6953,0.0,0.0,-0.8452,0.0,-0.918,-0.9408,-0.9642,-0.9795,-0.9795,-0.9788,-0.9788,-0.9798,-0.9802,-0.9788,-0.9798,-0.9812,-0.9822,-0.9812,-0.9812,-0.9822,-0.9822,-0.9822,-0.9822,-0.9822,-0.9822,0.0,-0.9822,-0.9822,-0.9822,-0.9822,-0.9822,-0.9822,-0.994,-0.9918,-0.98,-0.9905,-1.0566,-1.15,0.0,0.0,0.0,0.0,0.0,0.0,0.0,0.0,0.0,0.0,0.8936,0.8789,0.8205,0.8152,0.8033,0.0,0.0,0.0,0.0,0.0,0.0,0.0,0.0,0.0,0.5608,0.5076,0.4787,0.4787,0.4255,0.3701,0.3083,0.2536,0.1962,0.1385,0.1385,0.1118,0.0651,0.0186,0.0,0.0,0.0,0.0,0.0,0.0,0.0,0.0,0.0,0.0,0.0,0.0,0.0,0.0,0.0,0.0,0.0,0.0,0.0,0.0,0.0,0.0,0.0,0.0,0.0,0.0,0.0,0.0,0.0,0.0,0.0,-0.0136,-0.0593,-0.2001,-0.3279,-0.3844,-0.5479,-0.6702,-0.6854,0.0,0.0,-0.8184,-0.8611,-0.8954,-0.919,-0.9275,-0.9371,-0.9639,-0.9551,-0.9486,-0.9486,-0.9595,-0.9605,-0.949,-0.9598,-0.971,-0.9819,-0.9713,-0.9713,-0.9822,-0.9822,-0.9822,-0.9822,-0.9822,-0.9822,-0.9822,-0.9822,-0.9822,-0.9822,-0.9822,-0.9822,-0.994,-1.1137,-1.1595,-1.1718,-1.2745,-1.3164,-1.3262,0.0,0.0,0.0,0.0,0.0,0.0,0.0,0.0,0.0,0.0,0.0,0.0,0.0,0.0,0.0,0.0,0.0,0.0,0.0,0.0,0.0,0.0,0.0,0.5745,0.6284,0.5621,0.5336,0.549,0.475,0.4099,0.35,0.2956,0.2386,0.1808,0.1808,0.163,0.1298,0.0962,0.0861,0.0,0.0926,0.0,0.0,0.0,0.0,0.0,0.0615,0.0504,0.0,0.0112,0.0,0.0,0.0,0.0,0.0,0.0,0.0,0.0,0.0,0.0,0.0,0.0,0.0,0.0,0.0,0.0,0.0,0.0,0.0,0.0,0.0,-0.2286,-0.3434,-0.4498,-0.5811,0.0,0.0,0.0,-0.8119,-0.834,-0.8642,-0.892,0.0,-0.921,-0.9309,-0.9486,-0.9429,-0.9381,-0.9381,-0.9459,-0.9466,-0.9384,-0.9395,-0.9469,-0.9618,-0.9544,-0.9544,-0.9622,-0.969,-0.9724,-0.9724,-0.9724,-0.9758,-0.9815,-0.968,-0.9659,-0.972,-0.9649,-0.9968,-1.0669,-1.1547,-1.2308,-1.2979,-1.3637,-1.422,-1.4699,0.0,0.0,0.0,0.0,0.0,0.0,0.0,0.0,0.0,0.0,0.0,0.0,0.0,0.0,0.0,0.0,0.0,0.0,0.0,0.0,0.0,0.0,0.0,0.6152,0.692,0.6208,0.5937,0.6126,0.505,0.4246,0.3667,0.3101,0.2563,0.2075,0.1984,0.194,0.1941,0.1842,0.1884,0.1989,0.1999,0.0,0.0,0.0,0.0,0.0,0.0,0.0,0.0,0.0392,0.0084,0.0,0.0,0.0,0.0,0.0,0.0,0.0,0.0,-0.0086,-0.0178,-0.0029,0.0,0.0,0.0,0.0,0.0,0.0,0.0,0.0,0.0,-0.306,0.0,0.0,0.0,0.0,-0.759,-0.7919,-0.8201,-0.8452,-0.8638,0.0,-0.9152,-0.9176,-0.9238,-0.9337,-0.9327,-0.9313,-0.9313,-0.9334,-0.9337,-0.9313,-0.9265,-0.9262,-0.9313,-0.9337,-0.9357,-0.9384,-0.9513,-0.9574,-0.9574,-0.9574,-0.9639,-0.9741,0.0,0.0,-0.9564,-0.9435,-1.0235,-1.1536,-1.1765,-1.2785,-1.4061,-1.4185,-1.4988,-1.5999,0.0,0.0,0.0,0.0,0.0,0.0,0.0,0.0,0.0,0.0,0.0,0.0,0.0,0.0,0.0,0.0,0.0,0.0,0.0,0.0,0.0,0.7219,0.6512,0.6285,0.6647,0.6534,0.6229,0.5769,0.5365,0.4936,0.451,0.3786,0.342,0.3309,0.2788,0.2563,0.2524,0.2014,0.1884,0.1992,0.2004,0.0,0.0,0.0,0.0,0.0,0.0,0.0,0.0,0.0978,0.0504,0.0,0.0,0.0,0.0,0.0,0.0,0.0,0.0,-0.0527,-0.0912,-0.0178,0.0,0.0,0.0,0.0,0.0,0.0,0.0,0.0,0.0,-0.3336,-0.4789,0.0,0.0,-0.758,0.0,0.0,-0.8431,-0.8476,0.0,-0.8865,-0.8967,-0.8971,-0.9032,-0.9234,-0.9076,-0.8949,-0.8949,-0.9123,-0.9133,-0.8956,-0.91,-0.9106,-0.8952,-0.9127,-0.9309,-0.9381,-0.9405,-0.9415,-0.9415,-0.9415,-0.9429,-0.9445,0.0,-0.9395,-0.9415,-0.9391,-1.0235,-1.1655,-1.3022,-1.4441,-1.5883,-1.6923,-1.7434,-1.7611,0.0,0.0,0.0,0.0,0.0,0.0,0.0,0.0,0.0,0.0,0.0,0.0,0.0,0.0,0.0,0.0,0.0,0.0,0.0,0.0,0.0,0.7684,0.7319,0.7033,0.682,0.6667,0.6386,0.5961,0.5514,0.5048,0.4516,0.3895,0.3604,0.3578,0.3306,0.3192,0.3179,0.2959,0.296,0.3076,0.0,0.0,0.0,0.0,0.0,0.0,0.0,0.0,0.0,0.0,0.0867,0.0532,0.0112,0.0,0.0,0.0,0.0,0.0,0.0,-0.029,-0.0602,-0.0693,-0.1092,-0.1457,-0.1443,-0.1448,0.0,0.0,0.0,0.0,0.0,0.0,-0.5294,-0.6195,0.0,-0.7837,-0.7971,-0.8296,-0.8513,0.0,0.0,-0.8849,-0.8875,-0.8885,-0.8964,-0.9032,-0.8977,-0.8885,-0.8885,-0.9001,-0.9008,-0.8885,-0.8923,-0.8882,-0.8815,-0.8879,-0.8991,-0.9144,-0.9222,-0.9316,-0.9316,-0.9316,-0.9361,-0.9371,0.0,-0.9188,-0.9309,-0.9174,-1.0475,-1.2576,-1.3296,-1.4949,-1.6978,-1.7568,-1.7796,-1.7776,0.0,0.0,0.0,0.0,0.0,0.0,0.0,0.0,0.0,0.0,0.0,0.0,0.0,0.0,0.0,0.0,0.0,0.0,0.0,0.0,0.9079,0.8139,0.7974,0.7614,0.7021,0.6807,0.6473,0.5986,0.5524,0.4935,0.4198,0.3832,0.3634,0.3604,0.3604,0.3604,0.361,0.3754,0.388,0.4008,0.0,0.0,0.0,0.0,0.0,0.0,0.0,0.0,0.0,0.0,0.0,0.0,0.0,0.0,0.0,0.0,0.0,0.0,0.0,-0.0144,-0.0474,-0.1131,0.0,-0.2433,-0.2719,-0.2812,0.0,0.0,0.0,0.0,0.0,-0.5282,0.0,-0.7252,-0.7828,-0.8083,-0.8099,-0.835,-0.8567,-0.8648,-0.8659,-0.8703,-0.8821,-0.8811,-0.8831,-0.8831,-0.8831,-0.8831,-0.8831,-0.8797,-0.8832,-0.8832,-0.8716,-0.8659,-0.8659,-0.8659,-0.8733,-0.8831,-0.8998,-0.9125,-0.91,-0.9122,-0.9113,-0.9211,-0.8984,-0.8947,-0.9098,-0.9309,-1.0904,-1.3318,-1.3642,-1.537,-1.7582,-1.7582,-1.7582,-1.7582,0.0,0.0,0.0,0.0,0.0,0.0,0.0,0.0,0.0,0.0,0.0,0.0,0.0,0.0,0.0,0.0,0.0,0.0,0.0,0.0,0.9239,0.8663,0.816,0.7614,0.7021,0.698,0.6446,0.5373,0.5329,0.4744,0.3648,0.3737,0.373,0.3604,0.3604,0.3604,0.361,0.3754,0.388,0.4008,0.4133,0.0,0.0,0.0,0.0,0.0,0.0,0.0,0.0,0.0,0.0,0.0,0.0,0.0,0.0,0.0,0.0,0.0,0.0,-0.0602,-0.1214,-0.1283,-0.1356,0.0,-0.2807,-0.316,0.0,-0.3655,0.0,0.0,0.0,-0.6393,-0.7321,-0.7553,-0.8072,-0.8404,-0.8272,0.0,-0.8645,-0.8513,-0.8499,-0.8503,-0.8513,-0.8645,-0.8726,-0.8726,-0.8726,-0.8726,-0.8726,-0.8591,-0.8516,-0.8516,-0.8506,-0.8499,-0.8499,-0.8499,-0.8574,-0.8726,-0.8737,-0.8815,-0.8895,-0.8808,-0.8747,-0.8757,-0.8737,-0.8733,-0.8848,-1.0214,-1.1746,-1.3426,-1.4716,-1.6227,-1.7582,-1.7582,-1.7582,-1.7582,0.0,0.0,0.0,0.0,0.0,0.0,0.0,0.0,0.0,0.0,0.0,0.0,0.0,0.0,0.0,0.0,0.0,0.0,0.0,1.0118,0.9597,0.8736,0.85,0.7959,0.7021,0.7,0.6619,0.5852,0.5108,0.4351,0.3604,0.3658,0.3655,0.3604,0.3604,0.3651,0.3744,0.387,0.3998,0.4149,0.4321,0.444,0.0,0.0,0.0,0.0,0.0,0.0,0.0,0.0,0.1703,0.0978,0.0224,0.0,0.0,0.0,0.0,0.0,0.0,-0.0631,-0.1303,-0.1313,-0.2138,0.0,0.0,-0.4068,-0.4429,-0.5288,-0.5918,0.0,0.0,0.0,-0.7451,-0.7692,-0.8079,-0.8333,-0.833,-0.8442,-0.8547,-0.8489,-0.8482,-0.8482,-0.8482,-0.8533,-0.8567,-0.8567,-0.8567,-0.8567,-0.8567,-0.8513,-0.8482,-0.8482,-0.8394,-0.8402,-0.8402,-0.8402,-0.8381,-0.8438,-0.8526,-0.8598,-0.8652,-0.8594,-0.8567,-0.8567,-0.8567,-0.9036,-0.982,-1.0338,-1.1997,-1.4262,-1.5676,-1.6782,-1.7562,-1.7434,-1.7481,-1.7582,0.0,0.0,0.0,0.0,0.0,0.0,0.0,0.0,0.0,0.0,0.0,0.0,0.0,0.0,0.0,0.0,0.0,0.0,1.0303,1.0303,0.9824,0.8736,0.8695,0.8157,0.7021,0.7,0.6725,0.6206,0.5,0.422,0.3858,0.3689,0.3628,0.3668,0.3668,0.3727,0.3873,0.4001,0.4126,0.4207,0.4433,0.4491,0.0,0.0,0.0,0.0,0.0,0.0,0.0,0.0,0.1703,0.0978,0.0224,0.0,0.0,0.0,-0.0168,-0.0365,-0.0397,-0.104,-0.1689,0.0,0.0,0.0,-0.4478,-0.499,-0.5635,-0.6621,-0.6956,-0.7146,-0.7397,0.0,0.0,0.0,-0.8069,-0.8252,-0.8204,-0.8323,-0.8397,-0.8347,-0.8343,-0.8343,-0.8343,-0.8387,-0.8414,-0.8414,-0.8414,-0.8414,-0.8414,-0.837,-0.8343,-0.8343,-0.8248,-0.8197,-0.8197,-0.8197,-0.8197,-0.8201,-0.8296,-0.8391,-0.8479,-0.8435,-0.8414,-0.8414,-0.8414,-0.9183,-1.0351,-1.0818,-1.269,-1.5374,-1.6299,-1.7007,-1.7474,-1.7273,-1.7387,-1.7569,0.0,0.0,0.0,0.0,0.0,0.0,0.0,0.0,0.0,0.0,0.0,0.0,0.0,0.0,0.0,0.0,0.0,0.0,1.0303,1.0283,0.9804,0.8736,0.8695,0.8157,0.7021,0.7,0.6725,0.6206,0.5,0.4413,0.4387,0.3858,0.3679,0.3792,0.3792,0.388,0.4008,0.413,0.4197,0.421,0.4433,0.4491,0.4491,0.0,0.0,0.0,0.0,0.0,0.0,0.0,0.1703,0.095,0.0224,0.0,0.0,0.0,-0.0504,-0.1126,-0.1251,-0.1879,-0.253,0.0,0.0,0.0,-0.4586,-0.5836,-0.6871,-0.7478,-0.7482,-0.7421,-0.7573,-0.7478,0.0,-0.7763,-0.8069,-0.8214,-0.8012,-0.817,-0.8211,-0.8008,-0.7988,-0.7988,-0.7988,-0.8177,-0.832,-0.832,-0.832,-0.832,-0.832,-0.8123,-0.7988,-0.7988,-0.7988,-0.7988,-0.7988,-0.7988,-0.7988,-0.7988,-0.7988,-0.8194,-0.8472,-0.8333,-0.832,-0.832,-0.832,-0.9016,-1.031,-1.1823,-1.4119,-1.67,-1.67,-1.6881,-1.7199,-1.7192,-1.738,-1.7528,0.0,0.0,0.0,0.0,0.0,0.0,0.0,0.0,0.0,0.0,0.0,0.0,0.0,0.0,0.0,0.0,0.0,0.0,0.9736,0.9379,0.8857,0.816,0.8139,0.778,0.7021,0.7,0.6725,0.6206,0.5416,0.4826,0.4391,0.3945,0.3751,0.3795,0.3904,0.4011,0.413,0.4177,0.4281,0.4429,0.447,0.4491,0.4491,0.0,0.0,0.0,0.0,0.0,0.0,0.0,0.0,0.0,0.0056,0.0,0.0,0.0,-0.0168,-0.0338,-0.0379,-0.1492,0.0,-0.1879,0.0,0.0,0.0,-0.5347,0.0,0.0,-0.7634,-0.7577,-0.7723,-0.7709,0.0,-0.7797,-0.7977,-0.8092,-0.7995,-0.8029,-0.8092,-0.7995,-0.7988,-0.7988,-0.7988,-0.8029,-0.8109,-0.8109,-0.8109,-0.8109,-0.8109,-0.8015,-0.7988,-0.7988,-0.7988,-0.7988,-0.7988,-0.7988,-0.7988,-0.7988,-0.7988,-0.8035,-0.8167,-0.8126,-0.8109,-0.8156,-0.9099,-1.0227,-1.155,-1.385,-1.5441,-1.638,-1.6172,-1.6393,-1.6814,-1.6656,-1.6714,-1.6954,0.0,0.0,0.0,0.0,0.0,0.0,0.0,0.0,0.0,0.0,0.0,0.0,0.0,0.0,0.0,0.0,0.0,0.0,0.0,0.8999,0.8459,0.7919,0.7899,0.7614,0.7021,0.6789,0.652,0.6206,0.5588,0.5,0.4391,0.3993,0.3822,0.3887,0.4018,0.4169,0.4308,0.4308,0.4385,0.4491,0.4491,0.4491,0.4491,0.0,0.0,0.0,0.0,0.0,0.0,0.0,0.0,0.0,0.0,0.0,-0.0056,-0.0364,-0.0706,-0.1063,-0.1424,-0.2568,0.0,-0.3126,-0.445,-0.5851,-0.5741,0.0,0.0,0.0,-0.774,-0.7662,-0.7865,-0.7804,0.0,-0.7882,-0.7931,-0.7988,-0.7988,-0.7988,-0.7988,-0.7988,-0.7988,-0.7988,-0.7988,-0.7988,-0.7988,-0.7988,-0.7988,-0.7988,-0.7988,-0.7988,-0.7988,-0.7988,-0.7988,-0.7988,-0.7988,-0.7988,-0.7988,-0.7988,-0.7988,-0.7988,-0.7988,-0.7988,-0.8283,-0.892,-1.0774,-1.1989,-1.2866,-1.4956,-1.5939,-1.6079,-1.5899,-1.6119,-1.6513,-1.6339,-1.646,-1.6687,0.0,0.0,0.0,0.0,0.0,0.0,0.0,0.0,0.0,0.0,0.0,0.0,0.0,0.0,0.0,0.0,0.0,0.0,0.0,0.0,0.8398,0.785,0.7808,0.7551,0.7,0.6477,0.6184,0.6114,0.5524,0.4935,0.4391,0.4007,0.3887,0.4001,0.4169,0.4341,0.4491,0.4491,0.4491,0.4491,0.4491,0.4491,0.4491,0.4436,0.0,0.0,0.0,0.0,0.0,0.0,0.0,0.0,0.0,0.0,-0.014,-0.0811,-0.1658,-0.2569,-0.3353,0.0,0.0,-0.5409,-0.5758,0.0,-0.6771,-0.7275,-0.7658,-0.7891,0.0,-0.7723,-0.7941,-0.7821,-0.7729,-0.7944,-0.7988,-0.7988,-0.7988,-0.7988,-0.7988,-0.7988,-0.7988,-0.7988,-0.7988,-0.7988,-0.7988,-0.7988,-0.7988,-0.7988,-0.7988,-0.7988,-0.7988,-0.7988,-0.7988,-0.7988,-0.7988,-0.7988,-0.7988,-0.7988,-0.7988,-0.7988,-0.7988,-0.7988,-0.8775,-1.0293,-1.2813,-1.3974,-1.4166,-1.5343,-1.5784,-1.5784,-1.5784,-1.5999,-1.6233,-1.6233,-1.64,-1.6587,0.0,0.0,0.0,0.0,0.0,0.0,0.0,0.0,0.0,0.0,0.0,0.0,0.0,0.0,0.0,0.0,0.0,0.0,0.0,0.0,0.7801,0.7217,0.7196,0.7133,0.7,0.6477,0.5959,0.5502,0.4891,0.4517,0.4395,0.41,0.3964,0.4008,0.4297,0.446,0.4491,0.4491,0.4491,0.4491,0.4491,0.4491,0.4436,0.3846,0.3483,0.0,0.0,0.0,0.0,0.0,0.0,0.0,0.0,0.0,-0.0028,-0.0196,-0.086,-0.1596,-0.1799,-0.3011,0.0,0.0,-0.5461,-0.6502,-0.6943,-0.7265,-0.7472,-0.7655,-0.7828,-0.7914,-0.7978,-0.7938,-0.7917,-0.7978,-0.7988,-0.7988,-0.7988,-0.7988,-0.7988,-0.7988,-0.7988,-0.7988,-0.7988,-0.7988,-0.7988,-0.7988,-0.7988,-0.7988,-0.7988,-0.7988,-0.7988,-0.7988,-0.7988,-0.7988,-0.7988,-0.7988,-0.7988,-0.7988,-0.7988,-0.7988,-0.7988,-0.7988,-0.9262,-1.1556,-1.3199,-1.4459,-1.5391,-1.5683,-1.5784,-1.5784,-1.5784,-1.5824,-1.5925,-1.5925,-1.5917,-1.6005,0.0,0.0,0.0,0.0,0.0,0.0,0.0,0.0,0.0,0.0,0.0,0.0,0.0,0.0,0.0,0.0,0.0,0.0,0.0,0.0,0.7321,0.7021,0.7,0.6873,0.6626,0.6066,0.5516,0.5023,0.4412,0.4123,0.4104,0.4031,0.4035,0.4112,0.4389,0.4491,0.4491,0.4491,0.4491,0.4491,0.4491,0.4267,0.3873,0.3511,0.2899,0.2147,0.1368,0.0,0.0,0.0,0.0,0.0,0.0,0.0,-0.0056,-0.042,-0.0887,-0.1479,-0.2286,0.0,0.0,-0.4868,0.0,-0.6528,-0.6893,-0.7153,-0.7302,-0.7458,-0.7672,-0.7848,-0.787,-0.7875,-0.7826,-0.7968,-0.7874,-0.783,-0.7971,-0.7928,-0.7907,-0.7982,-0.7988,-0.7988,-0.7988,-0.7988,-0.7988,-0.7988,-0.7988,-0.7988,-0.7988,-0.7988,-0.7988,-0.7988,-0.7988,-0.7988,-0.7988,-0.7988,-0.7988,-0.7988,-0.7988,-0.7988,-0.8038,-0.9312,-1.097,-1.2909,-1.422,-1.5194,-1.5784,-1.5784,-1.5784,-1.5784,-1.5784,-1.5784,-1.5784,-1.5784,-1.5784,-1.5784,0.0,0.0,0.0,0.0,0.0,0.0,0.0,0.0,0.0,0.0,0.0,0.0,0.0,0.0,0.0,0.0,0.0,0.0,0.0,0.0,0.0,0.7,0.6915,0.6666,0.6243,0.5523,0.5013,0.4745,0.4107,0.3819,0.3873,0.3974,0.4102,0.4204,0.4399,0.4491,0.4491,0.4491,0.4491,0.4491,0.4491,0.4015,0.3287,0.3148,0.2286,0.109,0.095,0.0532,0.0,0.0,0.0,0.0,0.0,0.0,-0.0112,-0.0727,-0.1088,-0.1625,-0.3199,0.0,-0.4532,-0.5676,-0.6125,0.0,-0.6759,-0.694,-0.7095,-0.7268,-0.7458,-0.7634,-0.7753,-0.7678,-0.7678,-0.7874,-0.7756,-0.7685,-0.788,-0.7855,-0.7821,-0.7897,-0.7914,-0.7924,-0.7948,-0.7951,-0.7961,-0.7988,-0.7988,-0.7978,-0.7951,-0.7951,-0.7951,-0.7951,-0.7928,-0.7928,-0.7948,-0.7951,-0.7951,-0.7951,-0.7978,-0.8233,-0.8726,-1.0921,-1.2528,-1.3632,-1.5146,-1.5784,-1.5784,-1.5784,-1.5784,-1.5784,-1.5784,-1.5784,-1.5784,-1.5784,-1.5784,-1.5784,0.0,0.0,0.0,0.0,0.0,0.0,0.0,0.0,0.0,0.0,0.0,0.0,0.0,0.0,0.0,0.0,0.0,0.0,0.8736,0.0,0.0,0.7,0.6562,0.6322,0.6377,0.5152,0.463,0.4869,0.4162,0.3927,0.0,0.4157,0.4177,0.4204,0.4399,0.4491,0.4491,0.4491,0.4491,0.4491,0.4491,0.4015,0.3231,0.2591,0.184,0.1006,0.0364,0.0084,0.0,0.0,0.0,0.0,0.0,0.0,-0.0028,-0.0112,-0.0688,-0.1537,0.0,0.0,-0.5472,0.0,-0.6047,-0.6347,0.0,0.0,-0.692,0.0,-0.7312,-0.7604,-0.7624,-0.7611,-0.7611,-0.7651,-0.7628,-0.7614,-0.7651,-0.7641,-0.7634,-0.7655,-0.7658,-0.7706,-0.7831,-0.7841,-0.7896,-0.7978,-0.7988,-0.7931,-0.7848,-0.7841,-0.7841,-0.7841,-0.7723,-0.7719,-0.7841,-0.7841,-0.7841,-0.7841,-0.7928,-0.9167,-1.1409,-1.175,-1.1994,-1.2285,-1.4758,-1.5784,-1.5784,-1.5784,-1.5784,-1.5784,-1.5784,-1.5784,-1.5784,-1.5784,-1.5784,-1.5784,0.0,0.0,0.0,0.0,0.0,0.0,0.0,0.0,0.0,0.0,0.0,0.0,0.0,0.0,0.0,1.0303,0.9804,0.9206,0.8529,0.7723,0.7159,0.6908,0.6664,0.6233,0.5562,0.4982,0.4626,0.4503,0.3771,0.0,0.0,0.33,0.33,0.3713,0.3822,0.3624,0.3204,0.3204,0.3204,0.3204,0.3204,0.276,0.2037,0.0,0.0,0.0,0.0,0.0,0.0,0.0,0.0,0.0,0.0,0.0,0.0,0.0,-0.0283,0.0,-0.2306,-0.3967,-0.5389,0.0,-0.5844,-0.6102,-0.6337,0.0,-0.6698,-0.6783,-0.6956,-0.7173,-0.7424,-0.74,-0.7397,-0.757,-0.7455,-0.74,-0.7573,-0.7526,-0.7502,-0.759,-0.76,-0.7624,-0.7685,-0.7692,-0.7723,-0.7787,-0.7794,-0.7763,-0.7695,-0.7692,-0.7692,-0.7692,-0.7631,-0.7631,-0.7692,-0.7692,-0.7733,-0.7814,-0.7917,-0.9019,-1.0877,-1.156,-1.2721,-1.413,-1.5296,-1.5784,-1.5784,-1.5784,-1.5784,-1.5784,-1.5784,-1.5784,-1.5784,-1.5784,-1.5784,-1.5784,0.0,0.0,0.0,0.0,0.0,0.0,0.0,0.0,0.0,0.0,0.0,0.0,0.0,0.0,0.0,0.0,0.9399,0.8811,0.8136,0.7714,0.7292,0.6817,0.666,0.6088,0.4969,0.4758,0.4542,0.4274,0.0,0.0,0.3372,0.2565,0.2397,0.0,0.2982,0.276,0.0,0.0,0.0,0.2202,0.2202,0.0,0.0,0.0,0.0,0.0,0.0,0.0,0.0,0.0,0.0,0.0,0.0,0.0,0.0,0.0,0.0,0.0,0.0,0.0,-0.5174,-0.5511,-0.5671,-0.5827,0.0,0.0,-0.6501,0.0,-0.6675,-0.6803,-0.7139,-0.7105,-0.7071,-0.7387,-0.7189,-0.7136,-0.7444,-0.7383,-0.7356,-0.7468,-0.7482,-0.7499,-0.7539,-0.7543,-0.7556,-0.7597,-0.76,-0.7584,-0.7543,-0.7543,-0.7543,-0.7543,-0.7502,-0.7502,-0.7543,-0.7543,-0.7614,-0.776,-0.7909,-0.8807,-1.0462,-1.1434,-1.3355,-1.5784,-1.5784,-1.5784,-1.5784,-1.5784,-1.5784,-1.5784,-1.5784,-1.5784,-1.5784,-1.5784,-1.5784,-1.5784,0.0,0.0,0.0,0.0,0.0,0.0,0.0,0.0,0.0,0.0,0.0,0.0,0.9597,0.9538,0.9339,0.8817,0.8296,0.7857,0.756,0.7506,0.7292,0.6817,0.631,0.0,0.5095,0.4415,0.4187,0.4481,0.0,0.0,0.3372,0.2565,0.1842,0.1257,0.1952,0.2232,0.2202,0.0,0.0,0.0,0.0,0.0,0.0,0.0,0.0,0.0,0.0,0.0,0.0,0.0,0.0,0.0,0.0,0.0,0.0,0.0,0.0,0.0,0.0,-0.3859,0.0,-0.5511,-0.5596,0.0,0.0,0.0,-0.6351,-0.6494,-0.66,-0.6709,-0.6729,-0.6729,-0.6776,-0.6896,-0.6906,-0.695,-0.7098,-0.7112,-0.7109,-0.7119,-0.7122,-0.7221,-0.737,-0.7429,-0.7444,-0.759,-0.76,-0.7536,-0.7436,-0.7429,-0.7429,-0.7429,-0.7241,-0.7234,-0.7429,-0.7429,-0.7458,-0.7611,-0.7753,-0.9156,-1.1632,-1.1801,-1.3355,-1.5784,-1.5784,-1.5784,-1.5784,-1.5784,-1.5784,-1.5784,-1.5784,-1.5784,-1.5784,-1.5784,-1.5784,-1.5784,0.0,0.0,0.0,0.0,0.0,0.0,0.0,0.0,0.0,0.0,0.0,0.0,0.0,0.8978,0.8898,0.8716,0.8221,0.7765,0.7466,0.718,0.6691,0.587,0.5747,0.5377,0.4727,0.4461,0.4136,0.379,0.0,0.2316,0.1898,0.1146,0.0643,0.042,0.1174,0.1229,0.0783,0.0783,0.0,0.0,0.0,0.0,0.0,0.0,0.0,0.0,0.0,0.0,0.0,0.0,0.0,0.0,0.0,0.0,0.0,0.0,0.0,0.0,0.0,0.0,0.0,-0.5402,-0.5552,-0.564,-0.5837,-0.6003,-0.6156,-0.6344,-0.6419,-0.646,-0.646,-0.6573,-0.6719,-0.6773,-0.6822,-0.6903,-0.6953,-0.7038,-0.7095,-0.7095,-0.7095,-0.7119,-0.7217,-0.7224,-0.7248,-0.7257,-0.726,-0.7278,-0.7224,-0.7224,-0.7224,-0.7224,-0.7125,-0.7122,-0.7221,-0.8076,-0.8159,-0.7501,-0.9122,-1.0464,-1.1497,-1.2429,-1.3826,-1.5565,-1.5752,-1.5784,-1.5784,-1.5784,-1.5784,-1.5784,-1.5784,-1.5784,-1.5784,-1.5784,-1.5784,-1.5784,0.0,0.0,0.0,0.0,0.0,0.0,0.0,0.0,0.0,0.0,0.0,0.0,0.0,0.0,0.8419,0.8034,0.7508,0.7115,0.6947,0.6715,0.6222,0.5409,0.5452,0.5191,0.4519,0.4236,0.3873,0.34,0.2343,0.1591,0.0,0.0336,0.0,0.0028,0.0504,0.0448,0.0,0.0,0.0,-0.0028,0.0,0.0,-0.0028,0.0,0.0,0.0,0.0,0.0,0.0,0.0,0.0,0.0,0.0,0.0,0.0,0.0,0.0,0.0,-0.3715,0.0,0.0,0.0,0.0,-0.5552,-0.5698,0.0,-0.5996,-0.6152,-0.6262,-0.63,-0.63,-0.646,-0.6569,-0.6617,-0.6753,-0.6829,-0.6879,-0.7007,-0.7095,-0.7095,-0.7095,-0.7095,-0.7095,-0.7095,-0.7095,-0.7095,-0.7095,0.0,-0.7095,-0.7095,-0.7095,-0.7095,-0.7095,-0.7316,-0.7709,-0.8609,-0.8844,-0.8495,-1.0198,-1.1298,-1.1858,-1.2911,-1.4108,-1.5411,-1.5705,-1.5784,-1.5784,-1.5784,-1.5784,-1.5784,-1.5784,-1.5784,-1.5784,-1.5784,-1.5784,-1.5784,0.0,0.0,0.0,0.0,0.0,0.0,0.0,0.0,0.0,0.8736,0.0,0.0,0.0,0.0,0.0,0.6663,0.6105,0.5843,0.5951,0.6097,0.5946,0.5471,0.5456,0.5164,0.4519,0.3707,0.3317,0.3372,0.1842,0.109,0.1062,0.0336,0.0,0.0,0.0,0.0,0.0,0.0,0.0,-0.0056,0.0,-0.0643,-0.0112,0.0,0.0,0.0,-0.0867,-0.1147,0.0,-0.1956,0.0,0.0,0.0,0.0,0.0,0.0,0.0,0.0,0.0,0.0,0.0,0.0,0.0,0.0,-0.5555,0.0,-0.584,-0.5959,-0.6149,-0.6293,-0.63,-0.63,-0.6344,-0.6484,-0.66,-0.6753,-0.6859,-0.7004,-0.7095,-0.7095,-0.7095,-0.7095,-0.7095,-0.7095,-0.7095,-0.7095,-0.7139,-0.7139,-0.7095,-0.7139,-0.7139,-0.7139,-0.7183,-0.7753,-0.8934,-0.8978,-0.9536,-1.0611,-1.0789,-1.1561,-1.2821,-1.3244,-1.4149,-1.5411,-1.5705,-1.5784,-1.5784,-1.5784,-1.5784,-1.5784,-1.5784,-1.5784,-1.5784,-1.5784,-1.5784,-1.5784,0.0,0.0,0.0,0.0,0.0,0.0,0.8999,0.8918,0.8724,0.0,0.0,0.0,0.6965,0.6661,0.6369,0.6041,0.5881,0.5629,0.5222,0.5318,0.5162,0.4593,0.4701,0.4677,0.4519,0.3707,0.3037,0.2536,0.1563,0.0838,0.0308,0.0084,0.0,0.0,0.0,0.0,0.0,0.0,0.0,-0.0028,-0.0224,-0.0504,0.0,0.0,0.0,0.0,0.0,-0.2045,-0.2269,0.0,-0.2429,-0.2391,0.0,0.0,0.0,0.0,0.0,0.0,-0.4531,0.0,0.0,0.0,0.0,0.0,0.0,0.0,-0.5722,-0.5939,-0.6027,-0.6129,-0.6279,-0.63,-0.6313,-0.6354,-0.6532,-0.6715,-0.6759,-0.694,-0.7095,-0.7095,-0.7095,-0.7095,-0.7095,-0.7095,-0.7095,0.0,-0.7929,-0.8017,-0.7139,-0.7929,-0.8408,-0.8408,-0.9183,-0.9788,-1.0139,-1.0956,-1.108,-1.0611,-1.2373,-1.3034,-1.2859,-1.4026,-1.4865,-1.5411,-1.5705,-1.5784,-1.5784,-1.5784,-1.5784,-1.5784,-1.5784,-1.5784,-1.5784,-1.5784,-1.5784,-1.5784,0.0,0.0,0.0,0.0,0.0,0.0,0.859,0.8282,0.7916,0.0,0.0,0.0,0.6325,0.5927,0.5645,0.5592,0.5382,0.5067,0.4647,0.4771,0.4702,0.4338,0.4112,0.3984,0.3984,0.2926,0.2174,0.173,0.1006,0.042,0.0,0.0,0.0,0.0,0.0,0.0,0.0,0.0,0.0,0.0,-0.0671,0.0,0.0,-0.191,-0.2327,0.0,0.0,0.0,-0.3188,-0.343,-0.3498,0.0,0.0,0.0,0.0,0.0,0.0,0.0,0.0,0.0,0.0,0.0,0.0,0.0,-0.5508,-0.5545,-0.5654,-0.5888,-0.5949,-0.6078,-0.6272,-0.63,-0.63,-0.63,-0.6494,-0.6627,-0.6692,-0.6902,-0.7031,-0.7088,-0.7095,-0.7095,-0.7095,-0.7095,-0.7095,-0.7095,-0.8233,-0.8798,-0.8575,-0.9231,-0.9623,-0.9623,-1.0265,-1.0826,-1.1295,-1.1986,-1.22,-1.2083,-1.3434,-1.388,-1.3536,-1.455,-1.5169,-1.5411,-1.5705,-1.5784,-1.5784,-1.5784,-1.5784,-1.5784,-1.5784,-1.5784,-1.5784,-1.5784,-1.5784,-1.5784,0.0,0.0,0.0,0.8695,0.8565,0.8425,0.8129,0.7491,0.6959,0.0,0.6131,0.5784,0.5995,0.5628,0.5344,0.5217,0.4707,0.4297,0.4118,0.4198,0.4236,0.4236,0.3566,0.3176,0.3176,0.1814,0.109,0.109,0.0364,0.0,0.0,0.0,0.0,0.0,0.0,0.0,0.0,0.0,0.0,-0.0364,-0.1591,-0.188,0.0,0.0,-0.3326,-0.3057,-0.3691,-0.395,-0.4064,-0.47,-0.4911,0.0,0.0,0.0,0.0,0.0,-0.4887,0.0,0.0,0.0,0.0,0.0,0.0,0.0,-0.5395,-0.5501,-0.5606,-0.5749,-0.5884,-0.6034,-0.6242,-0.6276,-0.6279,-0.6296,-0.6405,-0.6542,-0.6654,-0.682,-0.6933,-0.7058,-0.7088,-0.7095,-0.7095,-0.7095,-0.7095,-0.7095,-0.8233,-0.9405,-1.0524,-1.074,-1.0778,-1.0778,-1.0913,-1.1472,-1.2504,-1.2504,-1.3033,-1.4088,-1.4122,-1.4289,-1.4583,-1.4877,-1.517,-1.5458,-1.5718,-1.5784,-1.5784,-1.5784,-1.5784,-1.5784,-1.5784,-1.5784,-1.5784,-1.5784,-1.5784,-1.5784,0.0,0.0,0.0,0.816,0.7745,0.7324,0.6853,0.6364,0.6054,0.6003,0.5542,0.5132,0.4857,0.4741,0.4694,0.4665,0.4027,0.3586,0.3564,0.2998,0.2649,0.2649,0.2508,0.2425,0.2425,0.1563,0.109,0.109,0.0364,0.0,0.0,0.0,0.0,0.0,0.0,0.0,0.0,0.0,0.0,-0.1758,-0.1452,0.0,-0.3195,-0.3486,-0.4035,-0.4631,-0.4682,-0.4851,-0.5091,-0.5068,-0.5059,-0.5036,0.0,0.0,0.0,0.0,0.0,0.0,0.0,0.0,0.0,0.0,0.0,0.0,-0.5395,-0.5419,-0.5484,-0.5599,-0.5654,-0.5755,-0.6023,-0.6074,-0.6115,-0.6279,-0.6323,-0.6392,-0.6538,-0.6756,-0.6896,-0.6923,-0.7028,-0.7095,-0.7095,-0.7095,-0.7095,-0.7095,-0.8233,-0.9405,-1.0524,-1.1466,-1.1986,-1.1986,-1.2905,-1.3519,-1.3737,-1.3737,-1.3864,-1.4088,-1.4322,-1.4589,-1.4928,-1.5177,-1.5471,-1.5698,-1.5758,-1.5784,-1.5784,-1.5784,-1.5784,-1.5784,-1.5784,-1.5784,-1.5784,-1.5784,-1.5784,-1.5784,0.0,0.0,0.0,0.7223,0.67,0.6349,0.6309,0.5809,0.5487,0.5637,0.4843,0.4176,0.3978,0.3594,0.3345,0.3345,0.301,0.2815,0.2815,0.2425,0.2202,0.2202,0.1842,0.1647,0.1647,0.0923,0.056,0.056,0.0168,0.0,0.0,0.0,-0.0196,-0.056,-0.056,0.0,0.0,0.0,-0.2093,-0.2764,-0.2471,0.0,-0.3757,-0.4179,-0.4734,-0.5237,-0.5165,-0.5269,-0.5382,-0.5274,-0.5247,0.0,0.0,-0.5142,-0.5142,0.0,-0.5142,-0.5155,0.0,0.0,0.0,-0.5375,0.0,0.0,0.0,-0.5395,-0.544,-0.5559,-0.5589,-0.5681,-0.5939,-0.5993,-0.6081,-0.6276,-0.63,-0.6323,-0.6395,-0.6559,-0.6729,-0.6807,-0.6878,-0.6906,-0.6984,-0.6991,-0.7494,-0.8738,-0.9401,-1.0529,-1.226,-1.2905,-1.3203,-1.3203,-1.3779,-1.4088,-1.4088,-1.4088,-1.4088,-1.4088,-1.4235,-1.4536,-1.5015,-1.5162,-1.5418,-1.5784,-1.5784,-1.5784,-1.5784,-1.5784,-1.5784,-1.5784,-1.5784,-1.5784,-1.5784,-1.5784,-1.5784,-1.5784,0.7635,0.0,0.0,0.6282,0.5777,0.5553,0.5933,0.5427,0.5006,0.5058,0.3975,0.3121,0.2977,0.0,0.0,0.0,0.0,0.1615,0.0,0.0,0.1618,0.1758,0.1202,0.0895,0.0895,0.0308,0.0,0.0,0.0,0.0,0.0,0.0,-0.0392,-0.109,-0.109,0.0,0.0,0.0,0.0,-0.3671,0.0,-0.3906,-0.41,-0.4822,-0.5226,-0.5395,-0.5395,-0.5395,-0.5395,-0.5395,-0.5395,-0.5399,-0.5429,-0.5419,0.0,0.0,0.0,0.0,0.0,0.0,0.0,0.0,0.0,-0.5481,0.0,0.0,0.0,-0.5606,-0.563,0.0,0.0,0.0,0.0,-0.6194,0.0,0.0,0.0,-0.6361,0.0,-0.6637,-0.6681,-0.6749,-0.6829,-0.6842,-0.7718,-0.9769,-1.0312,-1.1385,-1.3343,-1.3864,-1.4088,-1.4088,-1.4088,-1.4088,-1.4088,-1.4088,-1.4088,-1.4088,-1.4142,-1.4449,-1.5015,-1.5068,-1.5331,-1.5784,-1.5784,-1.5784,-1.5784,-1.5784,-1.5784,-1.5784,-1.5784,-1.5784,-1.5784,-1.5784,-1.5784,-1.5784,0.6307,0.6002,0.0,0.0,0.5356,0.5165,0.5207,0.4854,0.4326,0.3644,0.2841,0.0,0.0,0.0,0.0,0.0,0.0,0.0,0.0195,0.0,0.0,0.0224,0.0168,0.0112,0.0112,0.0056,0.0,0.0,0.0,0.0,0.0,0.0,-0.0392,-0.109,-0.109,0.0,0.0,0.0,-0.3716,0.0,-0.471,-0.4749,0.0,-0.5014,-0.5226,-0.5395,-0.5395,-0.5395,-0.5395,0.0,-0.5395,-0.5419,0.0,-0.5504,-0.5423,-0.5559,0.0,0.0,0.0,0.0,0.0,0.0,-0.5752,0.0,0.0,0.0,-0.5755,-0.5772,0.0,0.0,0.0,0.0,0.0,0.0,0.0,0.0,-0.5891,-0.6139,-0.6378,-0.6521,-0.6617,-0.6709,-0.6725,-0.6725,-0.6925,-0.7464,-0.9316,-1.061,-1.0988,-1.2954,-1.4088,-1.4088,-1.4088,-1.4088,-1.4088,-1.4088,-1.4088,-1.4088,-1.4349,-1.4643,-1.5015,-1.5231,-1.5524,-1.5784,-1.5784,-1.5784,-1.5784,-1.5784,-1.5784,-1.5784,-1.5784,-1.5784,-1.5784,-1.5784,-1.5784,-1.5784,0.5688,0.5376,0.0,0.0,0.489,0.4448,0.4096,0.3558,0.3037,0.2702,0.2009,0.0,0.0,0.0,0.0,0.0,0.0,-0.0975,0.0,0.0,0.0,0.0,0.0,0.0,0.0,0.0,0.0,0.0,0.0,0.0,0.0,-0.0448,-0.1034,-0.1758,-0.2232,0.0,-0.3984,0.0,-0.4263,0.0,0.0,0.0,0.0,-0.5965,-0.6396,-0.6924,-0.6924,-0.6597,-0.6141,0.0,-0.5881,0.0,0.0,0.0,0.0,0.0,0.0,0.0,0.0,0.0,0.0,0.0,0.0,0.0,-0.5943,0.0,-0.58,0.0,0.0,0.0,0.0,0.0,0.0,0.0,-0.6214,0.0,0.0,0.0,-0.6323,0.0,0.0,0.0,-0.6559,-0.6647,-0.7242,-0.8623,-0.975,-1.0988,-1.2284,-1.3471,-1.4088,-1.4088,-1.4088,-1.4088,-1.4088,-1.4088,-1.4088,-1.4088,-1.4382,-1.4583,-1.4723,-1.5184,-1.5464,-1.5585,-1.5711,-1.5784,-1.5784,-1.5784,-1.5784,-1.5784,-1.5784,-1.5784,-1.5784,-1.5784,-1.5784,-1.5784,0.481,0.0,0.0,0.0,0.0,0.377,0.3111,0.0,0.0,0.0,0.0,0.0,0.0531,-0.0168,0.0,0.0,-0.1898,-0.1953,0.0,0.0,-0.1174,0.0,0.0,0.0,0.0,-0.0112,-0.0112,-0.0308,-0.0308,-0.0392,-0.0615,-0.1146,-0.1814,-0.2565,0.0,-0.3839,-0.4552,0.0,-0.4776,-0.5177,-0.5263,-0.6055,-0.7171,-0.709,-0.7307,-0.767,-0.7929,-0.7475,-0.6833,-0.7094,-0.6861,0.0,-0.7394,0.0,0.0,0.0,0.0,0.0,-0.6328,0.0,0.0,0.0,0.0,0.0,0.0,0.0,0.0,0.0,0.0,0.0,0.0,0.0,0.0,0.0,0.0,-0.6269,0.0,-0.6245,0.0,0.0,0.0,0.0,0.0,-0.6536,-0.7256,-0.8882,-0.9748,-1.0933,-1.2624,-1.3502,-1.4001,-1.4082,-1.4088,-1.4088,-1.4088,-1.4088,-1.4128,-1.4208,-1.4342,-1.4482,-1.4656,-1.5084,-1.5317,-1.5411,-1.5705,-1.5784,-1.5784,-1.5784,-1.5784,-1.5784,-1.5784,-1.5784,-1.5784,-1.5784,-1.5784,-1.5784,0.3284,0.3728,0.0,0.0,0.0,0.0,0.0,0.0,0.0,0.0,0.0,0.0,0.0,0.0,0.0,0.0,0.0,-0.4098,-0.3372,0.0,-0.2147,0.0,0.0,-0.0336,0.0,0.0,-0.0336,-0.1062,-0.1062,-0.1424,-0.212,-0.2147,-0.2593,-0.3372,-0.34,-0.3888,-0.4684,-0.4684,-0.5325,-0.6335,-0.6343,-0.7506,-0.9128,0.0,-0.7437,-0.685,-0.7697,0.0,0.0,-0.8078,-0.849,0.0,0.0,0.0,0.0,0.0,0.0,0.0,0.0,0.0,0.0,-0.6553,0.0,0.0,0.0,0.0,-0.6286,0.0,0.0,0.0,0.0,0.0,0.0,0.0,0.0,0.0,0.0,0.0,0.0,0.0,0.0,0.0,0.0,-0.6392,-0.6433,-0.6761,-0.8609,-0.9947,-1.0455,-1.2471,-1.3746,-1.4082,-1.4088,-1.4088,-1.4088,-1.4088,-1.4229,-1.4502,-1.4229,-1.4439,-1.4995,-1.5015,-1.513,-1.5411,-1.5705,-1.5784,-1.5784,-1.5784,-1.5784,-1.5784,-1.5784,-1.5784,-1.5784,-1.5784,-1.5784,-1.5784,0.0,0.0,0.0,0.0,0.0,0.0,0.0,0.0838,0.0,0.0,0.0,0.0,0.0,-0.2162,-0.2709,0.0,0.0,-0.3929,-0.369,-0.3421,0.0,0.0,0.0,-0.1859,0.0,0.0,0.0,0.0,0.0,-0.1952,-0.2202,-0.2702,-0.3093,-0.3428,0.0,-0.465,0.0,0.0,0.0,0.0,0.0,-0.8708,-0.9274,0.0,-0.9032,-0.9338,-0.9809,-0.9468,0.0,-0.936,-0.9292,-0.9145,-0.9843,-0.963,-0.9264,-1.0003,-0.9734,-0.9148,0.0,0.0,-0.955,-0.8537,0.0,0.0,0.0,0.0,0.0,0.0,0.0,0.0,0.0,0.0,0.0,0.0,0.0,0.0,0.0,0.0,0.0,0.0,0.0,0.0,0.0,0.0,-0.661,-0.7375,-0.8841,-1.0148,-1.1196,-1.2748,-1.374,-1.4075,-1.4088,-1.4088,-1.4088,-1.4088,-1.4229,-1.4522,-1.4616,-1.4814,-1.5022,-1.5357,-1.5484,-1.5411,-1.5705,-1.5784,-1.5784,-1.5784,-1.5784,-1.5784,-1.5784,-1.5784,-1.5784,-1.5784,-1.5784,-1.5784,0.1952,0.0,0.0,0.0,0.0,0.0,0.0,0.0,0.0,0.0,-0.1465,0.0,-0.2312,0.0,-0.3159,0.0,-0.3978,-0.418,-0.418,-0.3933,0.0,-0.3503,-0.2981,0.0,0.0,0.0,0.0,0.0,0.0,-0.2822,-0.3037,-0.3511,-0.3763,-0.3821,0.0,-0.5133,-0.6068,0.0,-0.6952,0.0,0.0,-0.9754,0.0,0.0,-1.0064,-1.0341,0.0,-1.0581,-1.0087,-1.0574,-1.0515,-1.0366,-1.0997,-1.0819,-1.0496,-1.113,-1.087,-1.0271,-0.9933,-1.0303,0.0,-0.9561,-0.9296,0.0,-0.8466,0.0,0.0,0.0,0.0,0.0,0.0,0.0,0.0,0.0,0.0,0.0,0.0,-0.63,0.0,0.0,0.0,0.0,0.0,-0.6641,-0.6949,-0.7253,-0.8701,-1.0032,-1.1118,-1.2273,-1.3292,-1.4075,-1.4088,-1.4088,-1.4088,-1.4188,-1.4389,-1.4676,-1.4914,-1.5062,-1.513,-1.5504,-1.5571,-1.5411,-1.5705,-1.5784,-1.5784,-1.5784,-1.5784,-1.5784,-1.5784,-1.5784,-1.5784,-1.5784,-1.5784,-1.5784,0.0,0.0,0.0,0.0,0.0448,0.0,0.0,0.0,-0.1322,0.0,-0.2205,-0.2766,-0.2797,-0.3447,-0.385,-0.385,-0.4504,-0.4942,-0.4942,-0.4259,0.0,0.0,-0.3581,-0.3147,-0.385,0.0,0.0,0.0,0.0,0.0,-0.4501,-0.4508,-0.4508,-0.4508,-0.4662,0.0,-0.6276,-0.64,-0.758,-0.9452,-1.0276,-1.0613,-1.0667,-1.0928,-1.0506,-0.9925,-1.0731,-1.0876,-1.0785,-1.1634,-1.2078,-1.2305,-1.2305,-1.2305,-1.2305,-1.2305,-1.2305,-1.2077,-1.1124,-1.0858,-1.064,-0.9674,-0.941,0.0,0.0,0.0,-0.8161,0.0,0.0,0.0,0.0,0.0,0.0,0.0,0.0,0.0,0.0,0.0,0.0,0.0,0.0,0.0,0.0,-0.7176,-0.7326,-0.6377,-0.8161,-0.9566,0.0,-1.1215,-1.2481,-1.4068,-1.4088,-1.4088,-1.4088,-1.4376,-1.4669,-1.5008,-1.5022,-1.5182,-1.5418,-1.5418,-1.5418,-1.5431,-1.5712,-1.5784,-1.5784,-1.5784,-1.5784,-1.5784,-1.5784,-1.5784,-1.5784,-1.5784,-1.5784,-1.5784,0.042,0.028,0.0112,0.0,-0.0252,-0.0226,0.0,0.0,0.0,0.0,-0.3364,-0.3719,-0.4272,-0.4606,-0.476,-0.476,-0.5083,0.0,0.0,0.0,0.0,-0.5247,-0.4919,-0.4739,-0.476,-0.4568,0.0,-0.4556,0.0,0.0,-0.4662,-0.4748,-0.4741,-0.4665,0.0,0.0,-0.7322,-0.735,-0.8615,-1.0568,-1.0584,-1.0854,-1.1189,0.0,-1.1127,-1.1357,-1.1574,-1.1631,-1.1647,-1.2045,-1.2238,-1.2305,-1.2305,-1.2305,-1.2305,-1.2305,-1.2305,-1.2224,-1.1996,-1.1922,-1.1848,-1.1589,-1.0981,-1.0415,0.0,0.0,0.0,0.0,0.0,0.0,0.0,0.0,0.0,0.0,0.0,0.0,0.0,0.0,0.0,-0.63,0.0,0.0,-0.63,-0.6528,-0.6567,-0.6338,-0.8161,-0.9566,-1.0176,0.0,-1.3231,-1.4068,-1.4088,-1.4088,-1.4088,-1.4376,-1.4669,-1.5015,-1.5184,-1.5438,-1.5718,-1.5718,-1.5718,-1.5718,-1.5751,-1.5784,-1.5784,-1.5784,-1.5784,-1.5784,-1.5784,-1.5784,-1.5784,-1.5784,-1.5784,-1.5784,0.0084,0.0,0.0,-0.0542,0.0,0.0,-0.1697,-0.2191,0.0,-0.3779,-0.4244,0.0,-0.5079,-0.5186,-0.5233,-0.5233,-0.5344,0.0,-0.5395,0.0,0.0,-0.5395,-0.5395,-0.5354,-0.5233,-0.5233,0.0,-0.4978,0.0,0.0,-0.4792,-0.4877,-0.4874,-0.4799,0.0,-0.5794,-0.7197,-0.8149,-0.9503,-1.0989,-1.0955,-1.1136,0.0,-1.139,-1.1618,-1.1926,-1.2011,-1.2058,-1.2084,-1.2245,-1.2305,-1.2305,-1.2305,-1.2305,-1.2305,-1.2305,-1.2305,-1.2305,-1.2305,-1.2305,-1.2305,-1.2305,-1.1879,-1.1465,-1.1465,-1.0677,-1.0083,0.0,-1.036,-1.0286,0.0,0.0,0.0,0.0,0.0,0.0,0.0,0.0,0.0,0.0,-0.63,0.0,-0.63,-0.6679,-0.6756,-0.6338,-0.7744,-0.9106,-1.0135,0.0,-1.2563,-1.4068,-1.4088,-1.4088,-1.4088,-1.4502,-1.4796,-1.5015,-1.5384,-1.5671,-1.5784,-1.5784,-1.5784,-1.5784,-1.5784,-1.5784,-1.5784,-1.5784,-1.5784,-1.5784,-1.5784,-1.5784,-1.5784,-1.5784,-1.5784,-1.5784,0.0,0.0,0.0,0.0,0.0,0.0,0.0,-0.3413,0.0,-0.4156,0.0,-0.5395,-0.5395,-0.5395,-0.5395,-0.5395,0.0,-0.5402,-0.5423,-0.5426,-0.5433,-0.545,-0.5436,-0.5426,-0.5426,-0.5405,-0.5327,0.0,0.0,0.0,-0.4918,-0.4965,0.0,0.0,0.0,0.0,0.0,-0.8958,-1.0365,-1.1129,-1.1302,-1.1435,-1.1563,-1.1784,-1.1933,-1.1993,-1.2211,-1.2305,-1.2305,-1.2305,-1.2305,-1.2305,-1.2305,-1.2305,-1.2305,-1.2305,-1.2305,-1.2305,-1.2305,-1.2331,-1.2365,-1.2365,-1.2392,-1.2425,-1.2425,-1.1733,-1.1346,-1.2232,-1.1897,-1.1758,0.0,0.0,0.0,0.0,0.0,0.0,0.0,0.0,0.0,0.0,0.0,0.0,0.0,-0.7099,-0.7249,-0.6377,-0.7249,-0.8485,-1.0095,0.0,-1.153,-1.4026,-1.4088,-1.4108,-1.4142,-1.4733,-1.5028,-1.5075,-1.5571,-1.5784,-1.5784,-1.5784,-1.5784,-1.5784,-1.5784,-1.5784,-1.5784,-1.5784,-1.5784,-1.5784,-1.5784,-1.5784,-1.5784,-1.5784,-1.5784,-1.5784,0.0,0.0,0.0,0.0,0.0,-0.2715,-0.3472,-0.3821,-0.4268,-0.5038,-0.5309,-0.5395,-0.5395,-0.5395,-0.5395,-0.5395,-0.5395,0.0,0.0,0.0,0.0,-0.5718,-0.5613,-0.5549,-0.5549,-0.546,-0.5382,0.0,0.0,0.0,-0.5066,-0.5226,0.0,0.0,0.0,0.0,-0.8179,-1.0007,0.0,-1.1732,-1.1503,-1.1717,-1.2124,-1.198,-1.2053,-1.2231,-1.2285,-1.2305,-1.2305,-1.2305,-1.2305,-1.2305,-1.2305,-1.2305,-1.2305,-1.2305,-1.2305,-1.2305,-1.2305,-1.2516,-1.2703,-1.2703,-1.2859,-1.3053,-1.3053,-1.289,-1.2811,-1.3014,-1.2936,-1.2929,-1.3087,0.0,0.0,0.0,0.0,0.0,0.0,0.0,0.0,0.0,0.0,-0.7215,0.0,0.0,-0.649,-0.63,-0.7249,-0.8485,0.0,0.0,-1.2272,0.0,-1.4088,-1.4202,0.0,0.0,-1.5129,-1.5324,-1.5665,-1.5784,-1.5784,-1.5784,-1.5784,-1.5784,-1.5784,-1.5784,-1.5784,-1.5784,-1.5784,-1.5784,-1.5784,-1.5784,-1.5784,-1.5784,-1.5784,-1.5784,0.0,0.0,0.0,0.0,0.0,0.0,0.0,-0.436,-0.4879,-0.5352,-0.5395,-0.5395,-0.5395,-0.5395,-0.5426,-0.5504,-0.5515,-0.5576,-0.5691,-0.5698,-0.5732,-0.5796,-0.5735,-0.5664,-0.5593,-0.5552,-0.5474,-0.5395,0.0,0.0,-0.525,-0.5358,0.0,0.0,0.0,-0.7328,0.0,0.0,0.0,-1.1906,-1.1877,-1.2051,-1.2285,-1.2144,-1.2178,-1.2305,-1.2305,-1.2305,-1.2305,-1.2305,-1.2305,-1.2305,-1.2305,-1.2305,-1.2331,-1.2522,-1.2569,-1.2603,-1.2726,-1.2879,-1.3025,-1.3025,-1.31,-1.3213,-1.3213,-1.3213,-1.3213,-1.3213,-1.3327,-1.344,-1.3634,-1.2772,0.0,0.0,0.0,0.0,0.0,0.0,0.0,0.0,0.0,0.0,0.0,0.0,0.0,0.0,0.0,0.0,0.0,0.0,-1.2441,0.0,0.0,0.0,-1.4516,0.0,-1.511,-1.5398,-1.5691,-1.5784,-1.5784,-1.5784,-1.5784,-1.5784,-1.5784,-1.5784,-1.5784,-1.5784,-1.5784,-1.5784,-1.5784,-1.5784,-1.5784,-1.5784,-1.5784,-1.5784,0.0,-0.0276,0.0,0.0,-0.2365,-0.3195,-0.39,-0.4788,-0.5395,-0.5395,-0.5395,-0.5395,-0.5395,-0.5426,-0.5491,-0.5579,-0.5616,-0.5694,-0.584,-0.585,-0.5969,-0.6219,-0.5973,-0.6011,-0.6344,-0.6033,-0.5935,0.0,0.0,0.0,0.0,0.0,0.0,0.0,0.0,0.0,0.0,0.0,-1.1325,-1.202,-1.2204,-1.2305,-1.2305,-1.2305,-1.2305,-1.2305,-1.2305,-1.2305,-1.2305,-1.2305,-1.2305,-1.2305,-1.2305,-1.2305,-1.2345,-1.2623,-1.2737,-1.2837,-1.3046,-1.3206,-1.3307,-1.3307,-1.3347,-1.3394,-1.3394,-1.3394,-1.3394,-1.3394,-1.3581,-1.3808,-1.4041,-1.3336,0.0,0.0,0.0,0.0,0.0,0.0,0.0,0.0,0.0,0.0,-0.8203,0.0,0.0,0.0,0.0,0.0,-1.1267,0.0,0.0,0.0,0.0,-1.4255,-1.4609,0.0,-1.5137,-1.5491,-1.5718,-1.5784,-1.5784,-1.5784,-1.5784,-1.5784,-1.5784,-1.5784,-1.5784,-1.5784,-1.5784,-1.5784,-1.5784,-1.5784,-1.5784,-1.5784,-1.5967,-1.6197,0.0,0.0,0.0,0.0,0.0,-0.3903,-0.3979,-0.4788,-0.5395,-0.5395,-0.5395,-0.5395,-0.5395,-0.5521,-0.5576,-0.5589,-0.5708,-0.5844,-0.5959,-0.5973,-0.6476,-0.7571,-0.6566,-0.6844,-0.8716,-0.746,-0.7235,0.0,0.0,-0.6689,0.0,0.0,0.0,0.0,0.0,0.0,0.0,-1.141,-1.1981,-1.2265,-1.2291,-1.2305,-1.2305,-1.2305,-1.2305,-1.2305,-1.2305,-1.2305,-1.2305,-1.2305,-1.2305,-1.2305,-1.2305,-1.2305,-1.2305,-1.2338,-1.2569,-1.279,-1.2817,-1.3186,-1.356,-1.356,-1.3808,-1.4008,-1.4008,-1.4008,-1.4008,-1.4008,-1.4028,-1.4055,-1.4082,-1.3997,-1.3942,0.0,0.0,0.0,0.0,0.0,0.0,0.0,0.0,0.0,0.0,-0.8351,0.0,0.0,-0.8313,0.0,0.0,0.0,0.0,-1.4068,-1.4088,-1.4355,-1.4961,-1.4995,-1.5244,-1.5744,-1.5764,-1.5784,-1.5784,-1.5784,-1.5784,-1.5784,-1.5784,-1.5784,-1.5784,-1.5784,-1.5784,-1.5784,-1.5784,-1.5784,-1.5784,-1.5784,-1.6527,-1.7498,0.0,0.0,0.0,0.0,0.0,0.0,0.0,-0.516,-0.5395,-0.5395,-0.5395,-0.5395,-0.5395,-0.5532,-0.5623,-0.5708,-0.585,-0.6003,-0.6159,-0.6169,-0.6649,-0.774,-0.7331,-0.7726,-0.9072,-0.8535,-0.8343,0.0,0.0,0.0,0.0,0.0,0.0,0.0,0.0,-1.0753,-1.1407,-1.1906,-1.2198,-1.2305,-1.2305,-1.2305,-1.2305,-1.2305,-1.2305,-1.2305,-1.2305,-1.2305,-1.2305,-1.2305,-1.2305,-1.2305,-1.2305,-1.2305,-1.2371,-1.2739,-1.2933,-1.31,-1.3494,-1.3728,-1.3908,-1.3908,-1.4001,-1.4088,-1.4088,-1.4088,-1.4088,-1.4088,-1.4088,-1.4088,-1.4088,-1.4088,-1.4088,-1.4088,0.0,0.0,0.0,0.0,0.0,0.0,0.0,0.0,0.0,0.0,0.0,0.0,0.0,0.0,0.0,0.0,0.0,-1.4033,0.0,-1.4369,-1.5001,-1.5008,-1.5257,-1.5784,-1.5784,-1.5784,-1.5784,-1.5784,-1.5784,-1.5784,-1.5784,-1.5784,-1.5784,-1.5784,-1.5784,-1.5784,-1.5784,-1.6244,-1.6943,-1.6943,-1.7723,-1.8772,-0.302,0.0,-0.338,0.0,-0.4417,-0.4619,-0.5292,-0.5395,-0.5412,-0.5457,-0.5463,-0.5463,-0.5463,-0.5562,-0.5708,-0.5857,-0.601,-0.6256,-0.671,-0.6756,-0.7326,-0.8609,-0.8385,0.0,-1.0014,-0.9681,-0.9561,-0.9704,-0.9422,0.0,0.0,0.0,0.0,0.0,-1.0851,-1.145,-1.2047,-1.2218,-1.2305,-1.2305,-1.2305,-1.2305,-1.2305,-1.2305,-1.2305,-1.2305,-1.2305,-1.2305,-1.2305,-1.2305,-1.2305,-1.2305,-1.2305,-1.2305,-1.2405,-1.2919,-1.314,-1.332,-1.3821,-1.4021,-1.4088,-1.4088,-1.4088,-1.4088,-1.4088,-1.4088,-1.4088,-1.4088,-1.4088,-1.4088,-1.4088,-1.4088,-1.4088,-1.4088,0.0,0.0,0.0,-1.3908,0.0,0.0,-1.3146,-1.27,-1.1871,-1.1507,0.0,0.0,0.0,0.0,0.0,0.0,0.0,0.0,0.0,0.0,-1.5001,-1.5095,-1.5337,-1.5784,-1.5784,-1.5784,-1.5784,-1.5784,-1.5784,-1.5784,-1.5784,-1.5784,-1.5784,-1.5784,-1.5784,-1.5784,-1.5784,-1.6574,-1.7692,-1.7692,-1.8688,-2.0034,-0.3813,-0.3979,-0.4284,-0.5226,-0.5395,-0.5395,-0.5395,-0.5395,-0.545,-0.5566,-0.5586,-0.5586,-0.5586,-0.5715,-0.5861,-0.5976,-0.6169,-0.6718,-0.7706,-0.7783,-0.8685,0.0,0.0,-1.0233,-1.2224,-1.1015,-1.088,-1.1864,0.0,0.0,-1.0072,0.0,-1.0652,-1.0852,-1.1835,-1.2298,-1.2298,-1.2305,-1.2305,-1.2305,-1.2305,-1.2305,-1.2305,-1.2305,-1.2305,-1.2305,-1.2305,-1.2305,-1.2305,-1.2305,-1.2305,-1.2305,-1.2305,-1.2305,-1.2365,-1.2703,-1.2973,-1.3273,-1.3527,-1.3861,-1.4088,-1.4088,-1.4088,-1.4088,-1.4088,-1.4088,-1.4088,-1.4088,-1.4088,-1.4088,-1.4088,-1.4088,-1.4088,-1.4088,0.0,0.0,0.0,0.0,0.0,-1.3633,-1.3593,-1.348,-1.3194,-1.2267,0.0,0.0,0.0,0.0,0.0,0.0,0.0,-1.4075,-1.4362,0.0,-1.5008,-1.5251,-1.5538,-1.5784,-1.5784,-1.5784,-1.5784,-1.5784,-1.5784,-1.5784,-1.5784,-1.5784,-1.5784,-1.5784,-1.5784,-1.5784,-1.5784,-1.6574,-1.7692,-1.7692,-1.9222,-2.1293,-0.4891,-0.4957,-0.5057,-0.5359,-0.5395,-0.5429,-0.5535,-0.5552,-0.5569,-0.5715,-0.5735,-0.5772,-0.5878,-0.5928,-0.5939,0.0,-0.6809,-0.7442,0.0,-0.8428,-0.9405,-1.0746,-1.0484,-1.0938,-1.2268,-1.1905,-1.1859,-1.2164,0.0,0.0,0.0,-1.1717,-1.1765,-1.1842,-1.215,-1.2305,-1.2305,-1.2305,-1.2305,-1.2305,-1.2305,-1.2305,-1.2305,-1.2305,-1.2305,-1.2305,-1.2305,-1.2305,-1.2305,-1.2305,-1.2305,-1.2338,-1.2583,-1.2643,-1.2744,-1.3206,-1.3427,-1.3527,-1.3868,-1.4015,-1.4088,-1.4088,-1.4088,-1.4088,-1.4088,-1.4088,-1.4088,-1.4088,-1.4088,-1.4088,-1.4088,-1.4088,-1.4088,-1.4088,-1.4088,0.0,-1.4088,0.0,-1.3975,-1.364,-1.36,-1.3567,-1.3473,-1.3176,0.0,0.0,0.0,0.0,0.0,0.0,0.0,0.0,-1.4369,0.0,-1.5008,-1.5251,-1.5538,-1.5784,-1.5784,-1.5784,-1.5784,-1.5784,-1.5784,-1.5784,-1.5784,-1.5784,-1.5784,-1.5784,-1.5784,-1.5872,-1.6763,-1.7863,-1.9047,-1.9852,-2.1168,-2.2536,-0.5395,-0.5395,-0.5395,-0.5395,-0.5395,-0.5426,-0.5525,-0.5539,-0.5576,-0.5776,-0.58,-0.5881,-0.6095,-0.6115,0.0,-0.6636,-0.7711,-0.8537,-0.8912,-0.9518,-1.0303,-1.1316,-1.1354,-1.1657,-1.2298,-1.2305,0.0,-1.2305,-1.2305,-1.2305,-1.2305,-1.2305,-1.2305,-1.2305,-1.2305,-1.2305,-1.2305,-1.2305,-1.2305,-1.2305,-1.2305,-1.2305,-1.2305,-1.2305,-1.2305,-1.2305,-1.2305,-1.2305,-1.2305,-1.2305,-1.2378,-1.2525,-1.2864,-1.3038,-1.3153,-1.3493,-1.36,-1.3666,-1.4008,-1.4088,-1.4088,-1.4088,-1.4088,-1.4088,-1.4088,-1.4088,-1.4088,-1.4088,-1.4088,-1.4088,-1.4088,-1.4088,-1.4088,-1.4088,-1.4088,-1.4088,-1.4088,0.0,-1.4015,0.0,0.0,0.0,0.0,-1.3808,-1.3888,0.0,0.0,0.0,0.0,0.0,-1.3381,-1.4206,-1.4536,-1.483,-1.5169,-1.5418,-1.5651,-1.5784,-1.5784,-1.5784,-1.5784,-1.5784,-1.5784,-1.5784,-1.5784,-1.5784,-1.5784,-1.5784,-1.6062,-1.6574,-1.7412,-1.8726,-2.026,-2.1025,-2.2076,-2.3091,-0.5395,-0.5395,-0.5395,-0.5395,-0.5395,-0.5402,-0.5423,-0.5426,-0.5532,-0.5793,-0.5833,-0.5979,-0.6342,-0.6412,-0.6795,-0.7821,0.0,0.0,-1.064,-1.0746,-1.1205,-1.215,-1.2261,-1.2305,-1.2305,-1.2305,-1.2305,-1.2305,-1.2305,-1.2305,-1.2305,-1.2305,-1.2305,-1.2305,-1.2305,-1.2305,-1.2305,-1.2305,-1.2305,-1.2305,-1.2305,-1.2311,-1.2331,-1.2311,-1.2311,-1.2331,-1.2331,-1.2318,-1.2305,-1.2325,-1.2556,-1.2837,-1.3113,-1.3367,-1.3606,-1.3626,-1.3633,-1.3693,-1.4015,-1.4088,-1.4088,-1.4088,-1.4088,-1.4088,-1.4088,-1.4088,-1.4088,-1.4088,-1.4088,-1.4088,-1.4088,-1.4088,-1.4088,-1.4088,-1.4088,-1.4088,-1.4088,-1.4088,-1.4088,0.0,0.0,0.0,-1.4088,-1.4088,-1.4088,0.0,0.0,0.0,0.0,0.0,-1.4242,-1.4466,-1.4823,-1.5169,-1.5391,-1.5685,-1.5784,-1.5784,-1.5784,-1.5784,-1.5784,-1.5784,-1.5784,-1.5784,-1.5784,-1.5825,-1.592,-1.592,-1.6669,-1.7824,-1.7917,-1.9314,-2.1293,-2.1382,-2.2129,-2.3091,-0.5395,-0.5395,-0.5395,-0.5395,-0.5395,-0.547,-0.5664,-0.5698,-0.5806,-0.6149,-0.619,-0.652,-0.7357,-0.7442,-0.7859,-0.8846,-0.8466,-0.8575,-0.9593,-1.0378,-1.0901,-1.1124,-1.1885,-1.2305,-1.2305,-1.2305,-1.2305,-1.2305,-1.2305,-1.2305,-1.2305,-1.2305,-1.2305,-1.2305,-1.2305,-1.2305,-1.2305,-1.2305,-1.2305,-1.2305,-1.2305,-1.2438,-1.2656,-1.2385,-1.2445,-1.2683,-1.2683,-1.2529,-1.2338,-1.2603,-1.2723,-1.2837,-1.3113,-1.3367,-1.3646,-1.3915,-1.3981,-1.4001,-1.4068,-1.4088,-1.4088,-1.4088,-1.4088,-1.4088,-1.4088,-1.4088,-1.4088,-1.4088,-1.4088,-1.4088,-1.4088,-1.4088,-1.4088,-1.4088,-1.4088,-1.4088,-1.4088,-1.4088,-1.4088,0.0,-1.4088,-1.4088,-1.4088,-1.4088,-1.4088,0.0,0.0,-1.4088,-1.4088,-1.4295,-1.4449,-1.4516,-1.5023,-1.5331,-1.5398,-1.5685,-1.5784,-1.5784,-1.5784,-1.5784,-1.5784,-1.5784,-1.5784,-1.5784,-1.5784,-1.6339,-1.7271,-1.7271,-1.7948,-1.9177,-2.0079,-2.08,-2.1426,-2.235,-2.2862,-2.3091,-0.5395,-0.5395,-0.5395,-0.5395,-0.5395,-0.545,-0.561,-0.5661,-0.5786,-0.6057,-0.6112,-0.6409,-0.7053,-0.7099,-0.7706,-0.9183,-0.8803,-0.8917,-0.9927,-1.049,-1.1013,-1.1465,-1.1996,-1.2305,-1.2305,-1.2305,-1.2305,-1.2305,-1.2305,-1.2305,-1.2305,-1.2305,-1.2305,-1.2305,-1.2305,-1.2305,-1.2305,-1.2305,-1.2305,-1.2305,-1.2305,-1.2398,-1.2563,-1.2365,-1.2522,-1.2784,-1.2784,-1.277,-1.2746,-1.2906,-1.3046,-1.3186,-1.3353,-1.3607,-1.3874,-1.4041,-1.4088,-1.4088,-1.4088,-1.4088,-1.4088,-1.4088,-1.4088,-1.4088,-1.4088,-1.4088,-1.4088,-1.4088,-1.4088,-1.4088,-1.4088,-1.4088,-1.4088,-1.4088,-1.4088,-1.4088,-1.4088,-1.4088,-1.4088,-1.4088,-1.4088,-1.4088,-1.4088,-1.4088,-1.4088,-1.4088,-1.4088,0.0,-1.4088,-1.4362,-1.4522,-1.4522,-1.509,-1.5398,-1.5398,-1.5685,-1.5784,-1.5784,-1.5784,-1.5784,-1.5784,-1.5784,-1.5784,-1.5832,-1.6433,-1.7037,-1.7731,-1.8319,-1.9222,-2.0395,-2.1025,-2.1658,-2.2217,-2.2862,-2.3091,-2.3091,-0.5395,-0.5395,-0.5395,-0.5395,-0.5395,-0.5412,-0.5453,-0.5573,-0.5681,-0.585,-0.5983,-0.6149,-0.6475,-0.6377,-0.7099,-0.9112,-0.9145,-0.9556,-1.0708,-1.0783,-1.1162,-1.2033,-1.2224,-1.2305,-1.2305,-1.2305,-1.2305,-1.2305,-1.2305,-1.2305,-1.2305,-1.2305,-1.2305,-1.2305,-1.2305,-1.2305,-1.2305,-1.2305,-1.2305,-1.2305,-1.2305,-1.2325,-1.2371,-1.2371,-1.2596,-1.2857,-1.2904,-1.3019,-1.322,-1.326,-1.34,-1.36,-1.36,-1.3848,-1.4088,-1.4088,-1.4088,-1.4088,-1.4088,-1.4088,-1.4088,-1.4088,-1.4088,-1.4088,-1.4088,-1.4088,-1.4088,-1.4088,-1.4088,-1.4088,-1.4088,-1.4088,-1.4088,-1.4088,-1.4088,-1.4088,-1.4088,0.0,-1.4088,-1.4088,-1.4088,-1.4088,-1.4088,-1.4088,-1.4088,-1.4088,-1.4088,-1.4088,-1.4088,-1.4362,-1.4496,-1.4456,-1.507,-1.5418,-1.5464,-1.5665,-1.5738,-1.5784,-1.5784,-1.5784,-1.5784,-1.5784,-1.592,-1.6157,-1.7225,-1.7917,-1.8319,-1.936,-2.0486,-2.1569,-2.1569,-2.2217,-2.3091,-2.3091,-2.3091,-2.3091,-0.5395,-0.5395,-0.5395,-0.5395,-0.5395,-0.5481,-0.5694,-0.5752,-0.5871,-0.619,-0.6248,-0.6577,-0.7476,-0.6795,-0.7099,-0.9112,-0.8542,-0.8836,-1.0671,-1.0783,-1.0858,-1.1013,-1.1848,-1.2305,-1.2305,-1.2305,-1.2305,-1.2305,-1.2305,-1.2305,-1.2305,-1.2305,-1.2305,-1.2305,-1.2305,-1.2305,-1.2305,-1.2305,-1.2305,-1.2305,-1.2305,-1.2452,-1.2717,-1.2717,-1.2911,-1.3173,-1.3373,-1.338,-1.3247,-1.3453,-1.3567,-1.36,-1.36,-1.3848,-1.4088,-1.4088,-1.4088,-1.4088,-1.4088,-1.4088,-1.4088,-1.4088,-1.4088,-1.4088,-1.4088,-1.4088,-1.4088,-1.4088,-1.4088,-1.4088,-1.4088,-1.4088,-1.4088,-1.4088,-1.4088,-1.4088,-1.4088,0.0,-1.4088,-1.4088,-1.4088,-1.4088,-1.4088,-1.4088,-1.4088,-1.4088,-1.4088,-1.4088,-1.4088,-1.4362,-1.4409,-1.4162,-1.4963,-1.5518,-1.5758,-1.5565,-1.5585,-1.5784,-1.5784,-1.5784,-1.5784,-1.5784,-1.6386,-1.7412,-1.7598,-1.8864,-2.0755,-2.0935,-2.1712,-2.2818,-2.2818,-2.295,-2.3091,-2.3091,-2.3091,-2.3091,-0.5395,-0.5395,-0.5395,-0.5395,-0.5463,-0.5566,-0.5667,-0.5823,-0.5976,-0.6118,-0.6248,-0.6679,-0.7706,-0.7403,-0.7931,-0.9927,-0.9701,-1.004,-1.1502,-1.1087,-1.105,-1.1583,-1.204,-1.2305,-1.2305,-1.2305,-1.2305,-1.2305,-1.2305,-1.2305,-1.2305,-1.2305,-1.2305,-1.2305,-1.2305,-1.2305,-1.2305,-1.2305,-1.2305,-1.2318,-1.2516,-1.2663,-1.2804,-1.2971,-1.318,-1.342,-1.3553,-1.362,-1.3701,-1.3834,-1.3881,-1.3881,-1.3881,-1.3975,-1.4088,-1.4088,-1.4088,-1.4088,-1.4088,-1.4088,-1.4088,-1.4088,-1.4088,-1.4088,-1.4088,-1.4088,-1.4088,-1.4088,-1.4088,-1.4088,-1.4088,-1.4088,-1.4088,-1.4088,-1.4088,-1.4088,-1.4088,-1.4088,-1.4088,-1.4088,-1.4088,-1.4088,-1.4088,-1.4088,-1.4088,-1.4088,-1.4088,-1.4088,-1.4088,-1.4215,-1.4295,-1.4315,-1.487,-1.5304,-1.5591,-1.5618,-1.5698,-1.5784,-1.5784,-1.5784,-1.5825,-1.6527,-1.7131,-1.7777,-1.9085,-2.026,-2.1337,-2.1987,-2.2589,-2.3091,-2.3091,-2.3091,-2.3091,-2.3091,-2.3091,-2.3091,-0.5446,-0.5446,-0.5446,-0.5446,-0.5573,-0.565,-0.5688,-0.5884,-0.6003,-0.6078,-0.6186,-0.6679,-0.7706,-0.7783,-0.8609,-1.0634,-1.0783,-1.1242,-1.2224,-1.1583,-1.1502,-1.2268,-1.2305,-1.2305,-1.2305,-1.2305,-1.2305,-1.2305,-1.2305,-1.2305,-1.2305,-1.2305,-1.2305,-1.2305,-1.2305,-1.2305,-1.2305,-1.2378,-1.2405,-1.2432,-1.277,-1.2891,-1.2924,-1.3193,-1.3407,-1.3613,-1.368,-1.3895,-1.4088,-1.4088,-1.4088,-1.4088,-1.4088,-1.4088,-1.4088,-1.4088,-1.4088,-1.4088,-1.4088,-1.4088,-1.4088,-1.4088,-1.4088,-1.4088,-1.4088,-1.4088,-1.4088,-1.4088,-1.4088,-1.4088,-1.4088,-1.4088,-1.4088,-1.4088,0.0,-1.4088,-1.4088,-1.4088,-1.4088,-1.4088,-1.4088,-1.4088,-1.4088,-1.4088,-1.4088,-1.4088,-1.4088,-1.4088,-1.4088,-1.4088,-1.4188,-1.4409,-1.477,-1.5149,-1.5391,-1.5618,-1.5758,-1.5784,-1.5784,-1.5967,-1.6244,-1.7271,-1.801,-1.8634,-2.0486,-2.148,-2.18,-2.2721,-2.3091,-2.3091,-2.3091,-2.3091,-2.3091,-2.3091,-2.3091,-2.3091,-0.5572,-0.5572,-0.5572,-0.5572,-0.5691,-0.5833,-0.5939,-0.5979,-0.6081,-0.6262,-0.6293,-0.6679,-0.7706,-0.7783,-0.8609,-1.0634,-1.0783,-1.1242,-1.2224,-1.2224,-1.2224,-1.2305,-1.2305,-1.2305,-1.2305,-1.2305,-1.2305,-1.2305,-1.2305,-1.2305,-1.2305,-1.2305,-1.2305,-1.2305,-1.2305,-1.2305,-1.2318,-1.2636,-1.275,-1.2777,-1.3053,-1.3173,-1.3206,-1.346,-1.3586,-1.364,-1.3955,-1.4068,-1.4088,-1.4088,-1.4088,-1.4088,-1.4088,-1.4088,-1.4088,-1.4088,-1.4088,-1.4088,-1.4088,-1.4088,-1.4088,-1.4088,-1.4088,-1.4088,-1.4088,-1.4088,-1.4088,-1.4088,-1.4088,-1.4088,-1.4088,-1.4088,-1.4088,-1.4088,0.0,0.0,-1.4088,-1.4088,-1.4088,-1.4088,-1.4088,-1.4088,-1.4088,-1.4088,-1.4088,-1.4088,-1.4088,-1.4088,-1.4088,-1.4088,-1.4095,-1.4122,-1.4713,-1.5149,-1.5391,-1.5418,-1.5565,-1.5784,-1.5784,-1.6433,-1.7552,-1.7645,-1.891,-2.1025,-2.1203,-2.1933,-2.296,-2.3047,-2.3091,-2.3091,-2.3091,-2.3091,-2.3091,-2.3091,-2.3091,-2.3091,-0.5722,-0.5722,-0.5722,-0.5722,-0.5844,-0.5925,-0.5983,-0.6112,-0.6423,-0.7126,-0.7211,-0.7855,-0.947,-0.9658,-1.0222,-1.162,-1.1731,-1.1885,-1.2268,-1.2305,-1.2305,-1.2305,-1.2305,-1.2305,-1.2305,-1.2305,-1.2305,-1.2305,-1.2305,-1.2305,-1.2305,-1.2305,-1.2305,-1.2305,-1.2305,-1.2405,-1.2623,-1.2737,-1.2898,-1.306,-1.336,-1.344,-1.3467,-1.3808,-1.3915,-1.3935,-1.4048,-1.4088,-1.4088,-1.4088,-1.4088,-1.4088,-1.4088,-1.4088,-1.4088,-1.4088,-1.4088,-1.4088,-1.4088,-1.4088,-1.4088,-1.4088,-1.4088,-1.4088,-1.4088,-1.4088,-1.4088,-1.4088,-1.4088,-1.4088,-1.4088,-1.4088,-1.4088,-1.4088,0.0,-1.4088,-1.4088,-1.4088,-1.4088,-1.4088,-1.4088,-1.4088,-1.4088,-1.4088,-1.4088,-1.4088,-1.4088,-1.4088,-1.4088,-1.4088,-1.4088,-1.4088,-1.4476,-1.483,-1.5169,-1.5484,-1.6088,-1.699,-1.699,-1.763,-1.8818,-1.9579,-2.044,-2.1337,-2.2076,-2.2677,-2.3091,-2.3091,-2.3091,-2.3091,-2.3091,-2.3091,-2.3091,-2.3091,-2.3091,-2.3091,-0.5874,-0.5874,-0.5874,-0.5874,-0.6,-0.6101,-0.6101,-0.6492,-0.7022,-0.7706,-0.8089,-0.8912,-1.0634,-1.0783,-1.1199,-1.2224,-1.2305,-1.2305,-1.2305,-1.2305,-1.2305,-1.2305,-1.2305,-1.2305,-1.2305,-1.2305,-1.2305,-1.2305,-1.2305,-1.2305,-1.2305,-1.2305,-1.2351,-1.2445,-1.2445,-1.265,-1.2938,-1.3032,-1.3153,-1.3333,-1.362,-1.374,-1.3766,-1.4008,-1.4088,-1.4088,-1.4088,-1.4088,-1.4088,-1.4088,-1.4088,-1.4088,-1.4088,-1.4088,-1.4088,-1.4088,-1.4088,-1.4088,-1.4088,-1.4088,-1.4088,-1.4088,-1.4088,-1.4088,-1.4088,-1.4088,-1.4088,-1.4088,-1.4088,-1.4088,-1.4088,-1.4088,-1.4088,-1.4088,-1.4088,-1.4088,-1.4088,-1.4088,-1.4088,-1.4088,-1.4088,-1.4088,-1.4088,-1.4088,-1.4088,-1.4088,-1.4088,-1.4088,-1.4088,-1.4088,-1.425,-1.4573,-1.4864,-1.5336,-1.6043,-1.6162,-1.6743,-1.7692,-1.8095,-1.891,-2.0079,-2.0935,-2.1525,-2.1889,-2.2721,-2.3091,-2.3091,-2.3091,-2.3091,-2.3091,-2.3091,-2.3091,-2.3091,-2.3091,-2.3091,-2.3091,-0.5993,-0.5993,-0.5993,-0.5993,-0.6159,-0.63,-0.63,-0.7176,-0.7821,-0.7821,-0.8689,-0.9707,-1.0708,-1.082,-1.1199,-1.2224,-1.2305,-1.2305,-1.2305,-1.2305,-1.2305,-1.2305,-1.2305,-1.2305,-1.2305,-1.2305,-1.2305,-1.2305,-1.2305,-1.2305,-1.2305,-1.2305,-1.2465,-1.2784,-1.279,-1.2958,-1.3233,-1.348,-1.36,-1.3633,-1.3968,-1.4088,-1.4088,-1.4088,-1.4088,-1.4088,-1.4088,-1.4088,-1.4088,-1.4088,-1.4088,-1.4088,-1.4088,-1.4088,-1.4088,-1.4088,-1.4088,-1.4088,-1.4088,-1.4088,-1.4088,-1.4088,-1.4088,-1.4088,-1.4088,-1.4088,-1.4088,-1.4088,-1.4088,-1.4088,-1.4088,-1.4088,-1.4088,-1.4088,-1.4088,-1.4088,-1.4088,-1.4088,-1.4088,-1.4088,-1.4088,-1.4088,-1.4088,-1.4088,-1.4088,-1.4088,-1.413,-1.413,-1.413,-1.413,-1.4608,-1.5696,-1.5968,-1.6854,-1.8364,-1.7613,-1.7378,-1.7731,-1.8956,-2.0169,-2.1293,-2.1293,-2.1987,-2.3091,-2.3091,-2.3091,-2.3091,-2.3091,-2.3091,-2.3091,-2.3091,-2.3091,-2.3091,-2.3091,-2.3091,-2.3091,-0.6231,-0.6231,-0.6231,-0.6231,-0.6835,-0.7365,-0.7365,-0.8199,-0.9102,-0.9809,-1.019,-1.0752,-1.1731,-1.1848,-1.1959,-1.2268,-1.2305,-1.2305,-1.2305,-1.2305,-1.2305,-1.2305,-1.2305,-1.2305,-1.2305,-1.2305,-1.2305,-1.2305,-1.2305,-1.2305,-1.2305,-1.2556,-1.2697,-1.2797,-1.3012,-1.324,-1.348,-1.3567,-1.3726,-1.3961,-1.4048,-1.4088,-1.4088,-1.4088,-1.4088,-1.4088,-1.4088,-1.4088,-1.4088,-1.4088,-1.4088,-1.4088,-1.4088,-1.4088,-1.4088,-1.4088,-1.4088,-1.4088,-1.4088,-1.4088,-1.4088,-1.4088,-1.4088,-1.4088,-1.4088,-1.4088,-1.4088,-1.4088,-1.4088,-1.4088,-1.4088,-1.4088,-1.4088,-1.4088,-1.4088,-1.4088,-1.4088,-1.4088,-1.4088,-1.4088,-1.4088,-1.4088,-1.4088,-1.4088,-1.4088,-1.4088,-1.4817,-1.5314,-1.5489,-1.6039,-1.6486,-1.6805,-1.6909,-1.7299,-1.7959,-1.8209,-1.8946,-2.0215,-2.0567,-2.1391,-2.2536,-2.2536,-2.2765,-2.3091,-2.3091,-2.3091,-2.3091,-2.3091,-2.3091,-2.3091,-2.3091,-2.3091,-2.3091,-2.3091,-2.3091,-2.3091,-0.63,-0.63,-0.6416,-0.6834,-0.7403,-0.7931,-0.8351,-0.9253,-1.0115,-1.0714,-1.1162,-1.162,-1.2224,-1.2305,-1.2305,-1.2305,-1.2305,-1.2305,-1.2305,-1.2305,-1.2305,-1.2305,-1.2305,-1.2305,-1.2305,-1.2305,-1.2305,-1.2305,-1.2418,-1.2516,-1.2485,-1.2831,-1.3025,-1.3106,-1.33,-1.35,-1.3814,-1.3814,-1.3921,-1.4088,-1.4088,-1.4088,-1.4088,-1.4088,-1.4088,-1.4088,-1.4088,-1.4088,-1.4088,-1.4088,-1.4088,-1.4088,-1.4088,-1.4088,-1.4088,-1.4088,-1.4088,-1.4088,-1.4088,-1.4088,-1.4088,-1.4088,-1.4088,-1.4088,-1.4088,-1.4088,-1.4088,-1.4088,-1.4088,-1.4088,-1.4088,-1.4088,-1.4088,-1.4088,-1.4088,-1.4088,-1.4088,-1.4088,-1.4088,-1.4088,-1.4088,-1.4088,-1.4088,-1.4088,-1.4292,-1.4692,-1.5338,-1.5952,-1.6518,-1.7219,-1.7762,-1.8203,-1.8203,-1.8666,-1.9634,-1.9901,-2.0376,-2.1067,-2.1727,-2.2394,-2.3091,-2.3091,-2.3091,-2.3091,-2.3091,-2.3091,-2.3091,-2.3091,-2.3091,-2.3091,-2.3091,-2.3091,-2.3091,-2.3091,-2.3091,-2.3091,-0.6416,-0.6451,-0.6756,-0.7744,-0.8008,-0.8389,-0.9296,-1.0303,-1.0932,-1.0932,-1.1731,-1.2305,-1.2305,-1.2305,-1.2305,-1.2305,-1.2305,-1.2305,-1.2305,-1.2305,-1.2305,-1.2305,-1.2305,-1.2311,-1.2345,-1.2318,-1.2318,-1.2345,-1.265,-1.2797,-1.2837,-1.3106,-1.3353,-1.36,-1.3633,-1.3793,-1.4088,-1.4088,-1.4088,-1.4088,-1.4088,-1.4088,-1.4088,-1.4088,-1.4088,-1.4088,-1.4088,-1.4088,-1.4088,-1.4088,-1.4088,-1.4088,-1.4088,-1.4088,-1.4088,-1.4088,-1.4088,-1.4088,-1.4088,-1.4088,-1.4088,-1.4088,-1.4088,-1.4088,-1.4088,-1.4088,-1.4088,-1.4088,-1.4088,-1.4088,-1.4088,-1.4088,-1.4088,-1.4088,-1.4088,-1.4088,-1.4088,-1.4088,-1.4088,-1.4088,-1.4088,-1.413,-1.425,-1.4334,-1.479,-1.5824,-1.5959,-1.646,-1.7474,-1.8012,-1.8728,-1.9761,-1.9802,-2.0675,-2.2451,-2.2119,-2.1616,-2.0953,-2.2408,-2.3091,-2.3091,-2.3091,-2.3091,-2.3091,-2.3091,-2.3091,-2.3091,-2.3091,-2.3091,-2.3091,-2.3091,-2.3091,-2.3091,-2.3091,-2.3091,-2.3091,-0.7326,-0.748,-0.7783,-0.8803,-0.9626,-1.0222,-1.0453,-1.1316,-1.1959,-1.1959,-1.215,-1.2305,-1.2305,-1.2305,-1.2305,-1.2305,-1.2305,-1.2305,-1.2305,-1.2305,-1.2305,-1.2305,-1.2305,-1.2412,-1.2683,-1.2418,-1.2418,-1.269,-1.275,-1.2911,-1.312,-1.3373,-1.354,-1.3613,-1.3888,-1.4028,-1.4088,-1.4088,-1.4088,-1.4088,-1.4088,-1.4088,-1.4088,-1.4088,-1.4088,-1.4088,-1.4088,-1.4088,-1.4088,-1.4088,-1.4088,-1.4088,-1.4088,-1.4088,-1.4088,-1.4088,-1.4088,-1.4088,-1.4088,-1.4088,-1.4088,-1.4088,-1.4088,-1.4088,-1.4088,-1.4088,-1.4088,-1.4088,-1.4088,-1.4088,-1.4088,-1.4088,-1.4088,-1.4088,-1.4088,-1.4088,-1.4088,-1.4088,-1.4088,-1.4088,-1.4088,-1.4454,-1.5255,-1.6116,-1.6802,-1.733,-1.7948,-1.8603,-1.9364,-2.009,-2.0799,-2.138,-2.139,-2.161,-2.2021,-2.2256,-2.245,-2.2596,-2.2911,-2.3091,-2.3091,-2.3091,-2.3091,-2.3091,-2.3091,-2.3091,-2.3091,-2.3091,-2.3091,-2.3091,-2.3091,-2.3091,-2.3091,-2.3091,-2.3091,-2.3091,-0.7706,-0.8199,-0.8841,-0.9852,-1.0453,-1.0975,-1.1428,-1.1959,-1.2305,-1.2305,-1.2305,-1.2305,-1.2305,-1.2305,-1.2305,-1.2305,-1.2305,-1.2305,-1.2305,-1.2305,-1.2305,-1.2305,-1.2305,-1.2378,-1.2569,-1.2556,-1.2703,-1.3005,-1.3106,-1.326,-1.3387,-1.3721,-1.3854,-1.3861,-1.4015,-1.4088,-1.4088,-1.4088,-1.4088,-1.4088,-1.4088,-1.4088,-1.4088,-1.4088,-1.4088,-1.4088,-1.4088,-1.4088,-1.4088,-1.4088,-1.4088,-1.4088,-1.4088,-1.4088,-1.4088,-1.4088,-1.4088,-1.4088,-1.4088,-1.4088,-1.4088,-1.4088,-1.4088,-1.4088,-1.4088,-1.4088,-1.4088,-1.4088,-1.4088,-1.4088,-1.4088,-1.4088,-1.4088,-1.4088,-1.4088,-1.4088,-1.4088,-1.4088,-1.4292,-1.4817,-1.4852,-1.5362,-1.6672,-1.7309,-1.7995,-1.8869,-1.9336,-1.9944,-2.0843,-2.1505,-2.1953,-2.2178,-2.2187,-2.2275,-2.248,-2.25,-2.2682,-2.3091,-2.3091,-2.3091,-2.3091,-2.3091,-2.3091,-2.3091,-2.3091,-2.3091,-2.3091,-2.3091,-2.3091,-2.3091,-2.3091,-2.3091,-2.3091,-2.3091,-2.3091,-2.3091,-0.8237,-0.8993,-0.9857,-1.0864,-1.105,-1.1354,-1.2187,-1.2305,-1.2305,-1.2305,-1.2305,-1.2305,-1.2305,-1.2305,-1.2305,-1.2305,-1.2305,-1.2305,-1.2305,-1.2305,-1.2305,-1.2305,-1.2305,-1.2325,-1.2378,-1.271,-1.2991,-1.3213,-1.346,-1.3626,-1.3686,-1.3975,-1.4088,-1.4088,-1.4088,-1.4088,-1.4088,-1.4088,-1.4088,-1.4088,-1.4088,-1.4088,-1.4088,-1.4088,-1.4088,-1.4088,-1.4088,-1.4088,-1.4088,-1.4088,-1.4088,-1.4088,-1.4088,-1.4088,-1.4088,-1.4088,-1.4088,-1.4088,-1.4088,-1.4088,-1.4088,-1.4088,-1.4088,-1.4088,-1.4088,-1.4088,-1.4088,-1.4088,-1.4088,-1.4088,-1.4088,-1.4088,-1.4088,-1.4088,-1.4088,-1.4166,-1.4334,-1.437,-1.4776,-1.5869,-1.6196,-1.6905,-1.823,-1.8564,-1.9153,-2.0397,-2.0508,-2.0941,-2.1941,-2.2324,-2.2549,-2.2617,-2.2617,-2.274,-2.3091,-2.275,-2.275,-2.3091,-2.3091,-2.3091,-2.3091,-2.3091,-2.3091,-2.3091,-2.3091,-2.3091,-2.3091,-2.3091,-2.3091,-2.3091,-2.3091,-2.3091,-2.3091,-2.3091,-2.3091,-2.3091,-1.0034,-1.0484,-1.0901,-1.1922,-1.2114,-1.215,-1.2268,-1.2305,-1.2305,-1.2305,-1.2305,-1.2305,-1.2305,-1.2305,-1.2305,-1.2305,-1.2305,-1.2305,-1.2305,-1.2305,-1.2305,-1.2305,-1.2305,-1.2425,-1.2717,-1.2986,-1.3166,-1.3213,-1.346,-1.3733,-1.4028,-1.4068,-1.4088,-1.4088,-1.4088,-1.4088,-1.4088,-1.4088,-1.4088,-1.4088,-1.4088,-1.4088,-1.4088,-1.4088,-1.4088,-1.4088,-1.4088,-1.4088,-1.4088,-1.4088,-1.4088,-1.4088,-1.4088,-1.4088,-1.4088,-1.4088,-1.4088,-1.4088,-1.4088,-1.4088,-1.4088,-1.4088,-1.4088,-1.4088,-1.4088,-1.4088,-1.4088,-1.4088,-1.4088,-1.4088,-1.4088,-1.4088,-1.4088,-1.4088,-1.4088,-1.4412,-1.5338,-1.5496,-1.5869,-1.6968,-1.8263,-1.9277,-1.9826,-2.0787,-2.1476,-2.1658,-2.1658,-2.1906,-2.2402,-2.248,-2.2676,-2.3003,-2.3013,-2.3033,-2.3091,-2.3042,-2.3042,-2.3091,-2.3091,-2.3091,-2.3091,-2.3091,-2.3091,-2.3091,-2.3091,-2.3091,-2.3091,-2.3091,-2.3091,-2.3091,-2.3091,-2.3091,-2.3091,-2.3091,-2.3091,-2.3091,-1.0634,-1.1242,-1.1768,-1.2224,-1.2305,-1.2305,-1.2305,-1.2305,-1.2305,-1.2305,-1.2305,-1.2305,-1.2305,-1.2305,-1.2305,-1.2305,-1.2305,-1.2305,-1.2305,-1.2305,-1.2305,-1.2305,-1.2305,-1.2365,-1.2529,-1.2966,-1.3213,-1.3213,-1.3667,-1.3961,-1.4088,-1.4088,-1.4088,-1.4088,-1.4088,-1.4088,-1.4088,-1.4088,-1.4088,-1.4088,-1.4088,-1.4088,-1.4088,-1.4088,-1.4088,-1.4088,-1.4088,-1.4088,-1.4115,-1.4275,-1.4222,-1.4115,-1.4282,-1.4215,-1.4088,-1.4088,-1.4088,-1.4088,-1.4088,-1.4088,-1.4128,-1.4289,-1.4329,-1.4376,-1.4543,-1.4904,-1.5021,-1.4242,-1.4088,-1.4088,-1.4088,-1.4088,-1.4088,-1.4088,-1.4615,-1.5236,-1.5943,-1.6594,-1.7465,-1.8787,-2.0067,-2.1017,-2.1433,-2.1922,-2.2334,-2.2568,-2.2588,-2.2666,-2.2808,-2.2818,-2.2906,-2.3091,-2.3091,-2.3091,-2.3091,-2.3091,-2.3091,-2.3091,-2.3091,-2.3091,-2.3091,-2.3091,-2.3091,-2.3091,-2.3091,-2.3091,-2.3091,-2.3091,-2.3091,-2.3091,-2.3091,-2.3091,-2.3091,-2.3091,-2.3091,-2.3091]},{"header":{"parameterUnit":"m.s-1","parameterCategory":1,"la1":30.6,"la2":28.766,"lo1":-90.7593,"lo2":-88.6598,"dy":0.0162,"dx":0.0183,"nx":116,"ny":114,"refTime":"2023-09-24T06:00:00:Z","depth":0,"parameterNumber":3,"parameterNumberName":"V-component_of_WINDS"},"data":[0.0,0.0,0.0,0.0,0.0,0.0,0.0,0.0,0.0,0.0,0.0,0.0,0.0,0.0,0.0,0.0,0.0,0.0,0.0,0.0,0.0,0.0,0.0,0.0,0.0,0.0,0.0,0.0,0.0,0.0,0.0,0.0,0.0,0.0,0.0,0.0,0.0,0.0,0.0,0.0,0.0,0.0,0.0,0.0,0.0,0.0,0.0,0.0,0.0,0.0,0.0,0.0,0.0,0.0,0.0,0.0,0.0,0.0,0.0,0.0,0.0,0.0,0.0,0.0,0.0,0.0,0.0,0.0,0.0,0.0,0.0,0.0,0.0,0.0,0.0,0.0,0.0,0.0,0.0,0.0,0.0,0.0,0.0,0.0,0.0,0.0,0.0,0.0,0.0,0.0,0.0,0.0,0.0,0.0,0.0,0.0,0.0,0.0,0.0,0.0,0.0,0.0,0.0,0.0,0.0,0.0,0.0,0.0,0.0,0.0,0.0,0.0,0.0,0.0,0.0,0.0,0.0,0.0,0.0,0.0,0.0,0.0,0.0,0.0,0.0,0.0,0.0,0.0,0.0,0.0,0.0,0.0,0.0,0.0,0.0,0.0,0.0,0.0,0.0,0.0,0.0,0.0,0.0,0.0,0.0,0.0,0.0,0.0,0.0,0.0,0.0,0.0,0.0,0.0,0.0,0.0,0.0,0.0,0.0,0.0,0.0,0.0,0.0,0.0,0.0,0.0,0.0,0.0,0.0,0.0,0.0,0.0,0.0,0.0,0.0,0.0,0.0,0.0,0.0,0.0,0.0,0.0,0.0,0.0,0.0,0.0,0.0,0.0,0.0,0.0,0.0,0.0,0.0,0.0,0.0,0.0,0.0,0.0,0.0,0.0,0.0,0.0,0.0,0.0,0.0,0.0,0.0,0.0,0.0,0.0,0.0,0.0,0.0,0.0,0.0,0.0,0.0,0.0,0.0,0.0,0.0,0.0,0.0,0.0,0.0,0.0,0.0,0.0,0.0,0.0,0.0,0.0,0.0,0.0,0.0,0.0,0.0,0.0,0.0,0.0,0.0,0.0,0.0,0.0,0.0,0.0,0.0,0.0,0.0,0.0,0.0,0.0,0.0,0.0,0.0,0.0,0.0,0.0,0.0,0.0,0.0,0.0,0.0,0.0,0.0,0.0,0.0,0.0,0.0,0.0,0.0,0.0,0.0,0.0,0.0,0.0,0.0,0.0,0.0,0.0,0.0,0.0,0.0,0.0,0.0,0.0,0.0,0.0,0.0,0.0,0.0,0.0,0.0,0.0,0.0,0.0,0.0,0.0,0.0,0.0,0.0,0.0,0.0,0.0,0.0,0.0,0.0,0.0,0.0,0.0,0.0,0.0,0.0,0.0,0.0,0.0,0.0,0.0,0.0,0.0,0.0,0.0,0.0,0.0,0.0,0.0,0.0,0.0,0.0,0.0,0.0,0.0,0.0,0.0,0.0,0.0,0.0,0.0,0.0,0.0,0.0,0.0,0.0,0.0,0.0,0.0,0.0,0.0,0.0,0.0,0.0,0.0,0.0,0.0,0.0,0.0,0.0,0.0,0.0,0.0,0.0,0.0,0.0,0.0,0.0,0.0,0.0,0.0,0.0,0.0,0.0,0.0,0.0,0.0,0.0,0.0,0.0,0.0,0.0,0.0,0.0,0.0,0.0,0.0,0.0,0.0,0.0,0.0,0.0,0.0,0.0,0.0,0.0,0.0,0.0,0.0,0.0,0.0,0.0,0.0,0.0,0.0,0.0,0.0,0.0,0.0,0.0,0.0,0.0,0.0,0.0,0.0,0.0,0.0,0.0,0.0,0.0,0.0,0.0,0.0,0.0,0.0,0.0,0.0,0.0,0.0,0.0,0.0,0.0,0.0,0.0,0.0,0.0,0.0,0.0,0.0,0.0,0.0,0.0,0.0,0.0,0.0,0.0,0.0,0.0,0.0,0.0,0.0,0.0,0.0,0.0,0.0,0.0,0.0,0.0,0.0,0.0,0.0,0.0,0.0,0.0,0.0,0.0,0.0,0.0,0.0,0.0,0.0,0.0,0.0,0.0,0.0,0.0,0.0,0.0,0.0,0.0,0.0,0.0,0.0,0.0,0.0,0.0,0.0,0.0,0.0,0.0,0.0,0.0,0.0,0.0,0.0,0.0,0.0,0.0,0.0,0.0,0.0,0.0,0.0,0.0,0.0,0.0,0.0,0.0,0.0,0.0,0.0,0.0,0.0,0.0,0.0,0.0,0.0,0.0,0.0,0.0,0.0,0.0,0.0,0.0,0.0,0.0,0.0,0.0,0.0,0.0,0.0,0.0,0.0,0.0,0.0,0.0,0.0,0.0,0.0,0.0,0.0,0.0,0.0,0.0,0.0,0.0,0.0,0.0,0.0,0.0,0.0,0.0,0.0,0.0,0.0,0.0,0.0,0.0,0.0,0.0,0.0,0.0,0.0,0.0,0.0,0.0,0.0,0.0,0.0,0.0,0.0,0.0,0.0,0.0,0.0,0.0,0.0,0.0,0.0,0.0,0.0,0.0,0.0,0.0,0.0,0.0,0.0,0.0,0.0,0.0,0.0,0.0,0.0,0.0,0.0,0.0,0.0,0.0,0.0,0.0,0.0,0.0,0.0,0.0,0.0,0.0,0.0,0.0,0.0,0.0,0.0,0.0,0.0,0.0,0.0,0.0,0.0,0.0,0.0,0.0,0.0,0.0,0.0,0.0,0.0,0.0,0.0,0.0,0.0,0.0,0.0,0.0,0.0,0.0,0.0,0.0,0.0,0.0,0.0,0.0,0.0,0.0,0.0,0.0,0.0,0.0,0.0,0.0,0.0,0.0,0.0,0.0,0.0,0.0,0.0,0.0,0.0,0.0,0.0,0.0,0.0,0.0,0.0,0.0,0.0,0.0,0.0,0.0,0.0,0.0,0.0,0.0,0.0,0.0,0.0,0.0,0.0,0.0,0.0,0.0,0.0,0.0,0.0,0.0,0.0,0.0,0.0,0.0,0.0,0.0,0.0,0.0,0.0,0.0,0.0,0.0,0.0,0.0,0.0,0.0,0.0,0.0,0.0,0.0,0.0,0.0,0.0,0.0,0.0,0.0,0.0,0.0,0.0,0.0,0.0,0.0,0.0,0.0,0.0,0.0,0.0,0.0,0.0,0.0,0.0,0.0,0.0,0.0,0.0,0.0,0.0,0.0,0.0,0.0,0.0,0.0,0.0,0.0,0.0,0.0,0.0,0.0,0.0,0.0,0.0,0.0,0.0,0.0,0.0,0.0,0.0,0.0,0.0,0.0,0.0,0.0,0.0,0.0,0.0,0.0,0.0,0.0,0.0,0.0,0.0,0.0,0.0,0.0,0.0,0.0,0.0,0.0,0.0,0.0,0.0,0.0,0.0,0.0,0.0,0.0,0.0,0.0,0.0,0.0,0.0,0.0,0.0,0.0,0.0,0.0,0.0,0.0,0.0,0.0,0.0,0.0,0.0,0.0,0.0,0.0,0.0,0.0,0.0,0.0,0.0,0.0,0.0,0.0,0.0,0.0,0.0,0.0,0.0,0.0,0.0,0.0,0.0,0.0,0.0,0.0,0.0,0.0,0.0,0.0,0.0,0.0,0.0,0.0,0.0,0.0,0.0,0.0,0.0,0.0,0.0,0.0,0.0,0.0,0.0,0.0,0.0,0.0,0.0,0.0,0.0,0.0,0.0,0.0,0.0,0.0,0.0,0.0,0.0,0.0,0.0,0.0,0.0,0.0,0.0,0.0,0.0,0.0,0.0,0.0,0.0,0.0,0.0,0.0,0.0,0.0,0.0,0.0,0.0,0.0,0.0,0.0,0.0,0.0,0.0,0.0,0.0,0.0,0.0,0.0,0.0,0.0,0.0,0.0,0.0,0.0,0.0,0.0,0.0,0.0,0.0,0.0,0.0,0.0,0.0,0.0,0.0,0.0,0.0,0.0,0.0,0.0,0.0,0.0,0.0,0.0,0.0,0.0,0.0,0.0,0.0,0.0,0.0,0.0,0.0,0.0,0.0,0.0,0.0,0.0,0.0,0.0,0.0,0.0,0.0,0.0,0.0,0.0,0.0,0.0,0.0,0.0,0.0,0.0,0.0,0.0,0.0,0.0,0.0,0.0,0.0,0.0,0.0,0.0,0.0,0.0,0.0,0.0,0.0,0.0,0.0,0.0,0.0,0.0,0.0,0.0,0.0,0.0,0.0,0.0,0.0,0.0,0.0,0.0,0.0,0.0,0.0,0.0,0.0,0.0,0.0,0.0,0.0,0.0,0.0,0.0,0.0,0.0,0.0,0.0,0.0,0.0,0.0,0.0,0.0,0.0,0.0,0.0,0.0,0.0,0.0,0.0,0.0,0.0,0.0,0.0,0.0,0.0,0.0,0.0,0.0,0.0,0.0,0.0,0.0,0.0,0.0,0.0,0.0,0.0,0.0,0.0,0.0,0.0,0.0,0.0,0.0,0.0,0.0,0.0,0.0,0.0,0.0,0.0,0.0,0.0,0.0,0.0,0.0,0.0,0.0,0.0,0.0,0.0,0.0,0.0,0.0,0.0,0.0,0.0,0.0,0.0,0.0,0.0,0.0,0.0,0.0,0.0,0.0,0.0,0.0,0.0,0.0,0.0,0.0,0.0,0.0,0.0,0.0,0.0,0.0,0.0,0.0,0.0,0.0,0.0,0.0,0.0,0.0,0.0,0.0,0.0,0.0,0.0,0.0,0.0,0.0,0.0,0.0,0.0,0.0,0.0,0.0,0.0,0.0,0.0,0.0,0.0,0.0,0.0,0.0,0.0,0.0,0.0,0.0,0.0,0.0,0.0,0.0,0.0,0.0,0.0,0.0,0.0,0.0,0.0,0.0,0.0,0.0,0.0,0.0,0.0,0.0,0.0,0.0,0.0,0.0,0.0,0.0,0.0,0.0,0.0,0.0,0.0,0.0,0.0,0.0,0.0,0.0,0.0,0.0,0.0,0.0,0.0,0.0,0.0,0.0,0.0,0.0,0.0,0.0,0.0,0.0,0.0,0.0,0.0,0.0,0.0,0.0,0.0,0.0,0.0,0.0,0.0,0.0,0.0,0.0,0.0,0.0,0.0,0.0,0.0,0.0,0.0,0.0,0.0,0.0,0.0,0.0,0.0,0.0,0.0,0.0,0.0,0.0,0.0,0.0,0.0,0.0,0.0,0.0,0.0,0.0,0.0,0.0,0.0,0.0,0.0,0.0,0.0,0.0,0.0,0.0,0.0,0.0,0.0,0.0,0.0,0.0,0.0,0.0,0.0,0.0,0.0,0.0,0.0,0.0,0.0,0.0,0.0,0.0,0.0,0.0,0.0,0.0,0.0,0.0,0.0,0.0,0.0,0.0,0.0,0.0,0.0,0.0,0.0,0.0,0.0,0.0,0.0,0.0,0.0,0.0,0.0,0.0,0.0,0.0,0.0,0.0,0.0,0.0,0.0,0.0,0.0,0.0,0.0,0.0,0.0,0.0,0.0,0.0,0.0,0.0,0.0,0.0,0.0,0.0,0.0,0.0,0.0,0.0,0.0,0.0,0.0,0.0,0.0,0.0,0.0,0.0,0.0,0.0,0.0,0.0,0.0,0.0,0.0,0.0,0.0,0.0,0.0,0.0,0.0,0.0,0.0,0.0,0.0,0.0,0.0,0.0,0.0,0.0,0.0,0.0,0.0,0.0,0.0,0.0,0.0,0.0,0.0,0.0,0.0,0.0,0.0,0.0,0.0,0.0,0.0,0.0,0.0,0.0,0.0,0.0,0.0,0.0,0.0,0.0,0.0,0.0,0.0,0.0,0.0,0.0,0.0,0.0,0.0,0.0,0.0,0.0,0.0,0.0,0.0,0.0,0.0,0.0,0.0,0.0,0.0,0.0,0.0,0.0,0.0,0.0,0.0,0.0,0.0,0.0,0.0,0.0,0.0,0.0,0.0,0.0,0.0,0.0,0.0,0.0,0.0,0.0,0.0,0.0,0.0,0.0,0.0,0.0,0.0,0.0,0.0,0.0,0.0,0.0,0.0,0.0,0.0,0.0,0.0,0.0,0.0,0.0,2.6393,2.6893,0.0,0.0,0.0,0.0,0.0,0.0,0.0,0.0,0.0,0.0,0.0,0.0,0.0,0.0,0.0,0.0,0.0,0.0,0.0,0.0,0.0,0.0,0.0,0.0,0.0,0.0,0.0,0.0,0.0,0.0,0.0,0.0,0.0,0.0,0.0,0.0,0.0,0.0,2.2714,2.3359,2.3685,2.3635,2.3897,2.4375,0.0,0.0,0.0,0.0,0.0,0.0,0.0,0.0,0.0,0.0,0.0,0.0,0.0,0.0,0.0,0.0,0.0,0.0,0.0,0.0,0.0,0.0,0.0,0.0,0.0,0.0,0.0,0.0,0.0,0.0,0.0,0.0,0.0,0.0,0.0,0.0,0.0,0.0,0.0,0.0,0.0,0.0,0.0,0.0,0.0,0.0,0.0,0.0,0.0,0.0,0.0,0.0,0.0,0.0,0.0,0.0,0.0,0.0,0.0,0.0,0.0,0.0,0.0,0.0,0.0,0.0,0.0,0.0,0.0,0.0,2.8084,2.7668,0.0,0.0,0.0,0.0,0.0,0.0,0.0,0.0,0.0,0.0,0.0,0.0,0.0,0.0,0.0,0.0,0.0,0.0,0.0,0.0,0.0,0.0,0.0,2.0304,2.0354,2.0515,2.0402,2.0388,0.0,0.0,0.0,0.0,0.0,0.0,0.0,2.2832,2.3242,2.3105,2.3279,2.3837,2.4748,2.5412,2.5868,2.6109,2.5819,0.0,0.0,0.0,0.0,0.0,0.0,0.0,0.0,0.0,0.0,0.0,0.0,0.0,0.0,0.0,0.0,0.0,0.0,0.0,0.0,0.0,0.0,0.0,0.0,0.0,0.0,0.0,0.0,0.0,0.0,0.0,0.0,0.0,0.0,0.0,0.0,0.0,0.0,0.0,0.0,0.0,0.0,0.0,0.0,0.0,0.0,0.0,0.0,0.0,0.0,0.0,0.0,0.0,0.0,0.0,0.0,0.0,0.0,0.0,0.0,0.0,0.0,0.0,3.2202,3.2582,3.193,3.3326,3.3921,3.3713,3.1009,2.947,2.8876,2.8776,0.0,0.0,0.0,0.0,0.0,0.0,0.0,0.0,0.0,0.0,0.0,0.0,0.0,0.0,0.0,0.0,0.0,0.0,0.0,0.0,0.0,2.0308,2.0608,2.1359,2.0794,2.0711,2.1476,0.0,0.0,0.0,0.0,0.0,2.1822,2.3397,2.3865,2.3105,2.3754,2.4897,2.6461,2.659,2.704,2.7717,2.6253,2.6067,2.6777,0.0,0.0,0.0,0.0,0.0,0.0,0.0,0.0,0.0,0.0,0.0,0.0,0.0,0.0,0.0,0.0,0.0,0.0,0.0,0.0,0.0,0.0,0.0,0.0,0.0,0.0,0.0,0.0,0.0,0.0,0.0,0.0,0.0,0.0,0.0,0.0,0.0,0.0,0.0,0.0,0.0,2.6639,2.6639,0.0,0.0,0.0,0.0,0.0,0.0,0.0,0.0,0.0,0.0,0.0,0.0,0.0,3.2796,3.3549,3.5059,3.5813,3.5827,3.6755,3.714,3.7037,3.7255,3.7357,3.7324,3.6876,0.0,3.2285,3.1599,0.0,0.0,0.0,0.0,0.0,0.0,0.0,0.0,0.0,0.0,0.0,0.0,0.0,0.0,0.0,0.0,0.0,0.0,0.0,0.0,0.0,2.1056,2.1432,2.2314,2.2487,2.2512,2.2432,2.2434,0.0,0.0,0.0,2.2876,2.2487,2.4142,2.5075,2.5182,2.5471,2.6479,2.814,2.8109,2.8573,2.94,2.8165,2.737,2.6924,2.6581,0.0,0.0,0.0,0.0,0.0,0.0,0.0,0.0,0.0,0.0,0.0,0.0,0.0,0.0,0.0,0.0,0.0,0.0,0.0,0.0,0.0,0.0,0.0,0.0,0.0,0.0,0.0,0.0,0.0,0.0,0.0,0.0,0.0,0.0,0.0,0.0,0.0,0.0,0.0,2.6749,2.7398,2.6859,2.7629,2.819,0.0,0.0,0.0,0.0,0.0,0.0,0.0,0.0,0.0,3.4723,3.5477,3.6043,3.6424,3.7611,3.8208,3.8202,3.9025,3.9419,3.9411,3.9912,4.0142,4.0142,4.0142,3.9025,3.7032,3.4842,3.3251,3.2149,0.0,0.0,0.0,0.0,3.2333,3.327,0.0,0.0,0.0,0.0,0.0,0.0,0.0,0.0,0.0,0.0,0.0,0.0,2.1538,2.1887,2.2491,2.354,2.4003,2.4054,2.3679,2.3229,2.259,2.1702,2.2506,2.2977,2.2977,2.4841,2.6234,2.7119,2.7241,2.8177,2.983,2.9993,3.0447,3.1105,3.0694,2.9391,2.7493,2.7139,2.66,2.5995,0.0,0.0,0.0,0.0,0.0,0.0,0.0,0.0,0.0,0.0,0.0,0.0,0.0,0.0,0.0,0.0,0.0,0.0,0.0,0.0,0.0,0.0,0.0,0.0,0.0,0.0,0.0,0.0,0.0,0.0,0.0,0.0,0.0,0.0,0.0,0.0,0.0,2.7776,2.8707,2.7556,2.9089,2.9904,0.0,0.0,0.0,0.0,0.0,0.0,3.5123,3.6029,3.7142,3.8584,3.8854,3.9084,3.9296,4.0142,4.0593,4.0593,4.142,4.1805,4.1824,4.247,4.2777,4.2777,4.2777,4.2277,4.1216,3.7919,3.5919,3.4898,3.4348,3.4004,3.3847,3.3825,3.4319,3.4904,0.0,0.0,0.0,0.0,0.0,0.0,0.0,0.0,0.0,0.0,0.0,2.0651,2.1595,2.2482,2.3664,2.5233,2.4715,2.4606,2.5323,2.3821,2.2517,2.1646,2.2436,2.2908,2.2908,2.5351,2.7067,2.7934,2.8637,2.9863,3.1589,3.2352,3.2724,3.2814,3.3674,3.2223,2.9085,2.755,2.6888,2.6778,2.6014,0.0,0.0,0.0,0.0,0.0,0.0,0.0,0.0,0.0,0.0,0.0,0.0,0.0,0.0,0.0,0.0,0.0,0.0,0.0,0.0,0.0,0.0,0.0,0.0,0.0,0.0,0.0,0.0,0.0,0.0,0.0,0.0,0.0,0.0,0.0,0.0,0.0,0.0,2.9272,3.1223,0.0,0.0,0.0,0.0,3.5059,3.5937,3.6803,3.7772,3.8649,3.9496,4.0342,4.1181,4.2008,4.2835,4.3643,4.4047,4.4066,4.494,4.5344,4.5344,4.5383,4.5421,4.5421,4.5421,4.4921,4.3855,4.0485,3.8144,3.6663,3.6629,3.6198,3.5574,3.5495,3.5996,3.6651,0.0,0.0,0.0,0.0,0.0,0.0,0.0,0.0,2.0296,2.0307,2.0858,2.1827,2.3287,2.4198,2.5383,2.7093,2.6909,2.6557,2.629,2.4645,2.3469,2.3036,2.2891,2.3593,2.5243,2.6164,2.7586,2.9547,2.9811,3.1385,3.4154,3.4442,3.5161,3.6161,3.5945,3.4897,3.3114,3.0429,2.8333,2.6805,2.6576,2.614,0.0,0.0,0.0,0.0,0.0,0.0,0.0,0.0,0.0,0.0,0.0,0.0,0.0,0.0,0.0,0.0,0.0,0.0,0.0,0.0,0.0,0.0,0.0,0.0,0.0,0.0,0.0,0.0,0.0,0.0,0.0,0.0,0.0,0.0,0.0,0.0,0.0,3.333,3.5515,0.0,3.5834,3.6007,3.6449,3.7065,3.7892,3.8988,4.0373,4.1277,4.2374,4.3748,4.4085,4.4393,4.471,4.4998,4.5152,4.5152,4.546,4.5594,4.5594,4.5594,4.5594,4.5594,4.5594,4.5421,4.5037,4.3844,4.204,3.9955,3.9403,3.9025,3.8794,3.8768,3.928,3.987,0.0,0.0,0.0,0.0,0.0,0.0,0.0,0.0,2.0319,2.0324,2.1195,2.2469,2.4179,2.5361,2.6596,2.8009,2.8051,2.7496,2.6314,2.4576,2.3523,2.3372,2.3484,2.4469,2.6427,2.7309,2.8848,3.1117,3.1692,3.3325,3.5923,3.6389,3.7107,3.7988,3.7579,3.6857,3.5764,3.3571,3.087,2.8003,2.7515,2.7144,2.6813,0.0,0.0,0.0,0.0,0.0,0.0,0.0,0.0,0.0,0.0,0.0,0.0,0.0,0.0,0.0,0.0,0.0,0.0,0.0,0.0,0.0,0.0,0.0,0.0,0.0,0.0,0.0,0.0,0.0,0.0,0.0,0.0,0.0,0.0,0.0,3.5789,3.6369,3.8632,3.9681,3.8546,3.895,3.9392,3.97,4.0508,4.1604,4.3008,4.3624,4.4451,4.5556,4.5594,4.5594,4.5594,4.5594,4.5594,4.5594,4.5594,4.5594,4.5594,4.5594,4.5594,4.5594,4.5594,4.5594,4.5594,4.5594,4.4605,4.3008,4.2124,4.1631,4.1381,4.1381,4.1739,4.2085,0.0,0.0,0.0,0.0,0.0,0.0,0.0,2.0302,2.0324,2.0385,2.1234,2.2478,2.4114,2.5845,2.7191,2.7946,2.7942,2.7166,2.5409,2.359,2.255,2.2536,2.4154,2.5469,2.6305,2.876,3.0864,3.2591,3.4276,3.5679,3.6808,3.8169,3.8531,3.8081,3.8619,3.8101,3.6839,3.6839,3.4494,3.0631,2.8929,2.8764,2.9245,0.0,0.0,0.0,0.0,0.0,0.0,0.0,0.0,0.0,0.0,0.0,0.0,0.0,0.0,0.0,0.0,0.0,0.0,0.0,0.0,0.0,0.0,0.0,0.0,0.0,0.0,0.0,0.0,0.0,0.0,0.0,0.0,0.0,3.3285,3.6149,3.8264,3.8284,4.0456,4.1316,3.9669,4.0969,4.2277,4.3104,4.3893,4.4701,4.5556,4.5633,4.5633,4.5633,4.5671,4.5691,4.5691,4.5691,4.5671,4.5633,4.5633,4.5633,4.5594,4.5594,4.5594,4.5594,4.5594,4.5594,4.5594,4.5594,4.5594,4.5518,4.4662,4.3855,4.3181,4.3181,4.3162,4.3143,0.0,0.0,0.0,0.0,0.0,0.0,0.0,2.0383,2.0444,2.0475,2.1796,2.3134,2.4193,2.5763,2.7083,2.7931,2.6807,2.5784,2.5185,2.2963,2.2187,2.34,2.5465,2.7331,2.8919,3.008,3.1886,3.4391,3.4867,3.6291,3.8584,3.8732,3.9051,3.9536,4.003,4.0176,4.0051,4.0043,3.8807,3.6575,3.3068,3.1071,3.009,0.0,0.0,0.0,0.0,0.0,0.0,0.0,0.0,0.0,0.0,0.0,0.0,0.0,0.0,0.0,0.0,0.0,0.0,0.0,0.0,0.0,0.0,0.0,0.0,0.0,0.0,0.0,0.0,0.0,0.0,0.0,0.0,3.7644,3.7672,4.0017,4.1936,4.2533,4.4303,4.5066,4.3978,4.4286,4.4643,4.4902,4.5114,4.5344,4.5594,4.6201,4.6547,4.6547,4.7105,4.7413,4.7413,4.7413,4.7124,4.6547,4.6547,4.6201,4.5594,4.5594,4.5594,4.5594,4.5594,4.5594,4.5594,4.5594,4.5594,4.5575,4.5344,4.5114,4.4921,4.4921,4.4509,4.397,0.0,0.0,0.0,0.0,0.0,0.0,0.0,2.042,2.0508,2.0508,2.2031,2.344,2.4185,2.5427,2.638,2.6825,2.5515,2.4347,2.3569,2.2709,2.293,2.4537,2.6932,2.9019,3.0677,3.1747,3.3313,3.5438,3.5995,3.7233,3.9095,3.8979,3.9459,4.039,4.0521,4.0966,4.1589,4.1745,4.1351,4.0415,3.7762,3.5286,3.3006,3.1443,3.0513,2.9946,2.9289,2.8923,2.8568,2.7226,0.0,0.0,0.0,0.0,0.0,0.0,0.0,0.0,0.0,0.0,0.0,0.0,0.0,0.0,0.0,0.0,0.0,0.0,0.0,0.0,0.0,0.0,0.0,0.0,3.9218,4.1328,4.2382,4.3469,4.4451,4.5297,4.6278,4.6701,4.6182,4.6144,4.6278,4.6624,4.6644,4.6644,4.6644,4.7124,4.7413,4.7413,4.7855,4.8105,4.8105,4.8105,4.7875,4.7413,4.7058,4.6624,4.6124,4.5768,4.5594,4.5594,4.5594,4.5594,4.5594,4.5594,4.5594,0.0,0.0,0.0,0.0,0.0,4.5287,4.4836,0.0,0.0,0.0,0.0,0.0,0.0,0.0,2.0423,2.0509,2.0511,2.1972,2.3268,2.3857,2.4685,2.5198,2.5173,2.415,2.2874,2.1333,2.2672,2.42,2.5771,2.8396,3.0471,3.1827,3.3449,3.4848,3.5993,3.7268,3.8286,3.9032,3.917,3.9836,4.0885,4.0639,4.111,4.2115,4.2492,4.2658,4.2598,4.2188,4.0133,3.703,3.4527,3.3964,3.4345,3.2817,3.1265,2.9838,2.8998,0.0,0.0,0.0,0.0,0.0,0.0,0.0,0.0,0.0,0.0,0.0,0.0,0.0,0.0,0.0,0.0,0.0,0.0,0.0,0.0,0.0,0.0,0.0,0.0,4.2448,4.4489,4.6855,4.6605,4.6394,4.6971,4.7115,4.7135,4.7038,4.7038,4.7336,4.8048,4.8105,4.8105,4.8105,0.0,0.0,0.0,0.0,4.8394,4.8394,4.8394,4.8336,4.824,4.7528,4.7135,4.7,4.622,4.5883,4.5883,4.5883,4.5825,4.5748,4.5748,4.5691,4.5594,4.5594,4.5594,4.5594,4.5594,4.5594,4.5594,0.0,0.0,0.0,0.0,0.0,0.0,0.0,2.0443,2.0515,2.0565,2.1408,2.2041,2.217,2.2866,2.36,2.4264,2.2766,2.1531,2.0943,2.2588,2.4501,2.659,2.9232,3.1314,3.2727,3.4133,3.5399,3.6546,3.7455,3.8765,4.0408,4.0186,4.0565,4.1465,4.1767,4.2181,4.2679,4.3409,4.3661,4.3541,4.346,4.197,3.9605,3.7742,3.6337,3.5232,3.4231,3.3662,3.32,3.1765,3.1649,3.1698,2.953,2.8359,0.0,0.0,0.0,0.0,0.0,0.0,0.0,0.0,0.0,0.0,0.0,0.0,0.0,0.0,0.0,0.0,0.0,0.0,0.0,4.2337,4.5197,4.7548,4.874,4.9375,4.924,4.8029,4.849,4.8644,4.7952,4.7875,4.7932,4.8086,4.8105,4.8105,4.8105,4.8779,4.9144,4.9144,4.9817,5.0212,5.0212,5.0212,4.9837,4.9144,0.0,0.0,4.7855,4.7702,4.7625,4.7625,4.7625,4.7259,4.6644,4.6644,4.622,4.5594,4.5594,4.5594,4.5594,4.5594,4.5594,4.5594,0.0,0.0,0.0,0.0,0.0,0.0,0.0,2.0467,2.0516,2.0586,2.1273,2.1739,2.1708,2.201,2.2362,2.2763,2.1797,2.1199,2.1292,2.3389,2.5641,2.7845,3.0133,3.218,3.3974,3.5087,3.6205,3.7305,3.8382,3.9468,4.0557,4.0651,4.1154,4.1952,4.2202,4.2621,4.3214,4.3963,4.425,4.4227,4.4562,4.4037,4.2863,4.1181,3.9514,3.8003,3.7634,3.6429,3.4818,3.3605,3.2936,3.2304,3.0636,2.9527,2.868,0.0,0.0,0.0,0.0,0.0,0.0,0.0,0.0,0.0,0.0,0.0,0.0,0.0,0.0,3.7004,0.0,0.0,4.3199,4.5317,4.74,4.9202,5.0471,5.1029,5.0664,4.8952,4.9125,4.9221,4.8798,4.8759,4.8933,4.9375,4.9394,4.9394,4.9394,4.9798,5.0048,5.0048,5.0481,5.0712,5.0712,5.0712,5.0481,5.0048,4.9606,4.9163,4.874,4.8298,4.8105,4.8086,4.7682,4.7269,4.6865,4.6432,4.599,4.5594,4.5594,4.5594,4.5594,4.5594,4.5594,4.5594,0.0,0.0,0.0,0.0,0.0,0.0,0.0,2.0441,2.0511,2.0586,2.1143,2.1504,2.1459,2.1396,2.1303,2.1184,2.1227,2.1417,2.1792,2.4251,2.6683,2.8906,3.0795,3.2796,3.4949,3.5862,3.6791,3.7814,3.9058,3.9869,4.0243,4.0814,4.1444,4.2084,4.2396,4.28,4.3327,4.4138,4.4527,4.4644,4.5263,4.5531,4.5441,4.3912,4.2354,4.0935,4.0378,3.8194,3.5466,3.4643,3.3378,3.2018,3.131,3.0542,2.9689,2.8692,2.7729,0.0,0.0,0.0,0.0,0.0,0.0,0.0,0.0,0.0,3.6363,3.7903,3.9501,4.1077,4.2539,4.4073,4.5835,4.8008,4.9221,5.0356,5.1712,5.1904,5.1404,5.0048,4.9894,4.9817,4.9663,4.9644,4.9933,5.0654,5.0712,5.0712,5.0712,5.0712,5.077,5.0933,5.0933,5.101,5.1183,5.101,5.0933,5.0914,5.0048,4.9644,4.9625,4.8933,4.8606,4.8548,4.7567,4.7135,4.7048,4.6009,4.5594,4.5594,4.5594,4.5594,4.5594,4.5594,4.5594,4.5594,0.0,0.0,0.0,0.0,0.0,0.0,0.0,0.0,2.0467,2.0585,2.0562,2.0552,2.0544,2.0488,2.0323,2.002,2.1318,2.2049,2.1828,2.4251,2.6683,2.8906,3.0795,3.2796,3.4949,3.5862,3.6717,3.7533,3.8407,3.9234,3.996,4.0742,4.115,4.1297,4.2727,4.302,4.2503,4.3596,4.4261,4.4618,4.5019,4.5332,4.5498,4.4528,4.3605,4.2412,3.9395,3.7093,3.538,3.4573,3.3717,3.2969,3.2914,3.2318,3.1306,2.9649,0.0,2.6816,2.679,2.7435,2.9061,3.2911,3.3568,3.4452,0.0,0.0,4.054,4.1396,4.2834,4.4234,4.5124,4.6614,4.8028,4.9067,5.0587,5.1692,5.1865,5.1904,5.1827,5.1635,5.1615,5.1337,5.0616,5.0558,5.0596,5.0693,5.0712,5.0712,5.0712,5.0712,5.1029,5.1731,5.1769,5.2135,5.2914,5.2154,5.1769,5.175,5.0933,5.0558,5.0558,5.0462,5.0423,5.0327,4.8682,4.7971,4.7836,4.624,4.5594,4.5594,4.5594,4.5594,4.5594,4.5594,4.5594,4.5594,0.0,0.0,0.0,0.0,0.0,0.0,0.0,0.0,0.0,2.0585,2.0481,2.0408,2.0408,2.0344,2.0208,1.9938,2.0982,2.1739,2.1911,2.4251,2.644,2.822,3.0395,3.2631,3.4949,3.5862,3.6909,3.8193,3.9001,3.957,3.9918,4.0726,4.1095,4.115,4.2286,4.2598,4.2375,4.3515,4.4219,4.4618,4.4985,4.4996,4.4643,4.2786,4.1258,3.9931,3.8507,3.6276,0.0,3.3066,3.2227,3.1529,3.156,3.1004,3.0079,2.8888,2.8418,0.0,2.9525,3.0863,0.0,0.0,3.695,3.9076,4.1202,4.2815,4.4082,4.4895,4.635,4.7581,4.7903,4.8874,4.9894,0.0,5.1442,5.225,5.328,5.2538,5.1904,5.1904,5.1048,5.051,5.0693,5.0712,5.0712,5.0712,5.0712,5.0712,5.0712,5.0712,5.1068,5.1865,5.1452,5.1606,5.2442,5.1625,5.1202,5.1202,5.0856,5.0712,5.0712,5.0712,5.0423,4.9875,4.8644,4.8105,4.8009,4.6836,4.6355,4.6355,4.6355,4.6047,4.5594,4.5594,4.5594,4.5594,0.0,0.0,0.0,0.0,0.0,0.0,0.0,0.0,0.0,0.0,2.0508,2.042,2.039,2.0331,2.0229,2.0022,2.074,2.1353,2.1704,2.395,2.594,2.7461,2.9584,3.1971,3.4619,3.5293,3.6413,3.8046,3.8615,3.9019,3.9273,4.0065,4.0435,4.0471,4.1515,4.1846,4.1713,4.2844,4.3502,4.3804,4.3981,4.3694,4.2874,4.0396,3.8257,3.6565,3.6334,3.4353,3.1737,3.0929,3.0237,2.975,2.9962,2.9634,2.9119,2.8753,2.9144,3.002,3.172,0.0,0.0,3.7077,4.007,4.2718,4.3373,4.5288,4.7095,4.7681,4.8725,4.9533,4.9533,4.9986,5.0606,5.1452,5.1962,5.2692,5.3953,5.2856,5.1808,5.1606,5.0067,4.9298,4.9913,5.0212,5.0442,5.0673,5.0914,5.1029,5.1029,5.126,5.176,5.2577,5.2049,5.2029,5.2596,5.2029,5.151,5.1029,5.1029,5.0914,5.0712,5.0712,5.0366,4.9702,4.8836,4.8471,4.8394,4.7567,4.7231,4.7231,4.7231,4.6855,4.6259,4.6028,4.5806,4.5594,0.0,0.0,0.0,0.0,0.0,0.0,0.0,0.0,0.0,0.0,0.0,0.0,0.0,2.029,2.0229,2.0022,2.074,2.114,2.1036,2.3171,2.5142,2.6747,2.8272,3.0564,3.377,3.3862,3.4688,3.6376,3.6395,3.6813,3.7584,3.8395,3.8781,3.8836,4.0416,4.0708,4.0042,4.1204,4.1675,4.167,4.1491,4.093,3.9986,3.7694,3.5257,3.2949,3.2179,3.0737,2.9088,2.8299,2.8011,2.8107,2.8896,2.9127,0.0,3.0083,3.0446,3.0895,3.2441,0.0,3.5769,4.0604,4.2601,4.3986,4.6326,4.8215,4.9467,4.9344,4.9375,4.9404,4.9404,4.9423,4.9721,5.0596,5.2106,5.3183,5.3241,5.2462,5.1606,5.0827,4.9202,4.8144,0.0,4.8933,4.9779,5.0635,5.1414,5.1865,5.1865,5.2664,5.353,5.4395,5.4395,5.4395,5.4414,5.4395,5.3549,5.1865,5.1865,5.1452,5.0712,5.0712,5.0693,5.0616,4.974,4.9356,4.9298,4.8413,4.8067,4.8067,4.8067,4.8048,4.7932,4.7163,4.6336,4.5594,0.0,0.0,0.0,0.0,0.0,0.0,0.0,0.0,0.0,0.0,0.0,0.0,0.0,0.0,0.0,0.0,2.0457,2.0757,2.1107,2.2388,2.3757,2.516,2.6717,2.8507,3.0564,3.1146,3.221,3.3862,3.3862,3.4266,3.5037,3.5312,3.5734,3.6288,3.7422,3.8065,3.8355,3.9297,3.9575,3.9357,3.8757,3.7928,3.6788,3.4319,3.2122,3.0204,0.0,2.7948,2.7313,2.6467,2.6173,2.6212,2.6481,2.6577,2.7077,2.9654,3.1229,3.2747,3.5574,0.0,3.9452,4.2879,4.4777,4.6306,4.8273,4.9567,5.0141,4.9528,4.8529,4.7567,4.699,4.6883,4.7336,4.874,5.0414,5.1933,5.3049,5.1991,5.0779,4.9933,4.8336,0.0,0.0,0.0,0.0,4.9817,5.1125,5.1904,5.1904,5.2741,5.3606,5.4472,5.3933,5.3914,5.4491,5.3933,5.3049,5.1885,5.1356,5.0952,5.0673,5.0087,5.0144,5.0654,4.9779,4.9721,5.0183,4.9317,4.8952,4.8952,4.8952,4.8606,4.8144,4.8452,4.8009,4.7105,0.0,0.0,0.0,0.0,0.0,0.0,0.0,0.0,0.0,0.0,0.0,0.0,0.0,0.0,0.0,0.0,0.0,2.0463,2.0848,2.1602,2.2508,2.3563,2.4833,2.6207,2.7677,2.8227,2.9127,3.0454,3.073,3.1311,3.21,3.2375,3.2944,3.3738,3.4302,3.4871,3.5468,3.5905,3.5897,3.5542,3.5066,3.4158,3.2874,3.1033,2.9448,0.0,2.664,2.6135,2.6058,2.55,2.5308,2.5308,2.5308,2.6135,2.7673,3.0462,3.2716,3.5103,3.8872,4.0713,4.235,4.5512,4.7083,4.816,4.9269,4.9909,4.9817,4.8355,4.6932,4.5624,4.4451,4.4239,4.4893,4.6874,4.8413,5.0029,5.2029,5.1106,5.0029,4.9471,4.8452,4.7682,0.0,0.0,0.0,4.9413,5.1241,5.2365,5.2365,5.3472,5.4357,5.4914,5.4395,5.4222,5.4491,5.4222,5.351,5.2346,5.1529,5.0971,5.0673,5.0106,5.0173,5.0673,5.0106,5.0183,5.0654,5.0087,4.9856,4.9856,4.9856,4.951,4.9067,4.9317,4.9048,4.8375,0.0,0.0,0.0,0.0,0.0,0.0,0.0,0.0,0.0,0.0,0.0,0.0,0.0,0.0,0.0,0.0,0.0,0.0,2.0296,2.0838,2.1443,2.2128,2.275,2.3764,2.5192,2.5219,2.5613,2.6418,2.7181,2.797,2.8767,2.9586,3.0375,3.1158,3.1207,3.1359,3.1581,3.1372,3.1017,3.0602,3.0696,2.9866,2.8531,2.7984,2.7255,2.6428,2.5596,2.5308,2.5308,2.5308,2.5365,2.5442,2.5538,2.7846,3.0865,3.2583,3.4936,3.7898,4.2048,4.3266,4.4348,4.8334,4.9336,4.9336,4.9336,4.926,4.849,4.5998,4.4701,4.3528,4.1846,4.1654,4.2547,4.5017,4.6278,4.7836,5.0346,5.001,4.9529,0.0,0.0,0.0,0.0,0.0,0.0,4.9586,0.0,5.3222,5.326,5.4818,5.5703,5.5703,5.5703,5.5318,5.4568,5.528,5.4838,5.326,5.2327,5.151,5.077,5.0731,5.0712,5.0712,5.0712,5.0712,5.0712,5.0712,5.0712,5.0712,5.0712,5.0712,5.0596,4.976,4.9471,4.9356,0.0,0.0,0.0,0.0,0.0,0.0,0.0,0.0,0.0,0.0,0.0,0.0,0.0,0.0,0.0,0.0,0.0,0.0,2.0299,2.0435,2.0805,2.143,2.1532,2.1975,2.2846,2.2765,2.3116,2.3923,2.4125,2.4649,2.5438,2.6256,2.7053,2.7871,2.8609,2.9307,2.9906,3.0012,2.972,2.9166,2.859,2.7864,2.7039,2.6268,2.5827,2.5596,2.5385,2.5308,2.5308,2.5308,0.0,0.0,0.0,3.0558,3.2718,3.5045,3.7555,4.0215,4.3198,4.4957,4.6341,4.8018,4.8432,4.8432,4.8432,4.7471,4.6037,4.4124,4.2047,4.0046,3.8308,3.9546,4.1258,4.2566,4.5605,0.0,5.0442,5.1029,0.0,5.125,0.0,5.0952,5.0125,5.0971,0.0,0.0,5.2472,5.3491,5.4126,5.5145,5.5703,5.5703,5.5703,5.5588,5.5395,5.4991,5.4587,5.4145,5.2635,5.1788,5.1568,5.0971,5.0712,5.0712,5.0712,5.0712,5.0712,5.0712,5.0712,5.0712,5.0712,5.0712,5.0673,5.0462,5.0366,5.0346,0.0,0.0,0.0,0.0,0.0,0.0,0.0,0.0,0.0,0.0,0.0,0.0,0.0,0.0,0.0,0.0,0.0,0.0,0.0,2.0324,2.0419,2.0699,2.0613,2.0708,2.1029,2.0893,2.1053,2.1506,2.1857,2.2221,2.2593,2.3492,2.4109,2.453,2.5078,2.5856,2.6763,2.6817,2.6771,0.0,0.0,2.605,2.5486,2.5346,2.5308,2.5308,2.5308,2.5558,0.0,0.0,0.0,2.9352,3.1429,3.3487,3.5718,3.8661,0.0,4.2805,4.574,4.7259,4.8105,4.8567,4.8663,4.8182,4.6336,4.5182,4.3605,4.0431,3.8911,3.7642,3.5911,3.7373,3.9354,0.0,0.0,0.0,4.9721,5.0856,5.1645,0.0,5.2818,0.0,5.1875,5.2549,5.3049,0.0,5.3491,5.3972,5.4472,5.5261,5.5703,5.5703,5.5703,5.5703,5.5703,5.5241,5.4857,5.4491,5.351,5.2635,5.1885,5.1433,5.1029,5.0712,0.0,5.0712,5.0712,5.0712,5.0712,5.0712,5.0712,5.0712,5.0712,5.0712,5.0712,5.0712,0.0,0.0,0.0,0.0,0.0,0.0,0.0,0.0,0.0,0.0,0.0,0.0,0.0,0.0,0.0,0.0,0.0,0.0,0.0,0.0,2.0246,2.013,2.0041,1.9954,1.9824,1.9701,1.9629,1.9629,2.0304,2.0552,2.0426,2.1398,2.1798,2.1695,2.1805,2.2491,2.3535,2.3423,2.3701,2.4308,2.4823,2.473,2.4336,0.0,2.5308,2.5308,2.5308,0.0,0.0,0.0,3.0615,3.1365,3.4045,3.6546,3.9123,4.2316,4.3835,4.5163,4.8355,4.9317,4.9375,4.926,4.9067,4.7845,4.3841,4.2598,4.095,3.6311,0.0,3.59,3.4328,3.5597,3.768,4.0112,0.0,4.4701,4.8817,5.024,5.1471,5.3164,5.4126,5.4357,5.3606,5.4222,5.4664,5.4664,5.4664,5.4664,5.4664,5.5318,5.5703,5.5703,5.5703,5.5703,5.5703,5.5703,5.5338,5.4664,5.4549,5.3703,5.2231,5.2,5.1529,5.0837,5.075,5.0712,5.0712,5.0712,5.0712,5.0712,5.0712,5.077,5.0846,5.075,5.0846,5.1,0.0,0.0,0.0,0.0,0.0,0.0,0.0,0.0,0.0,0.0,1.9988,2.0111,0.0,0.0,0.0,0.0,0.0,0.0,0.0,0.0,0.0,2.0279,2.0149,2.0046,1.9978,1.983,1.9768,1.9768,1.9793,1.9854,1.9945,2.0662,2.1062,2.1171,2.1898,2.2778,2.3756,2.3712,2.426,2.5096,2.5206,2.5192,2.5115,2.525,0.0,0.0,0.0,0.0,0.0,0.0,3.1795,3.4109,3.738,3.9662,4.1527,4.3508,4.4701,4.5806,4.7798,4.8856,4.9221,4.8509,4.7278,4.5524,4.2739,3.9921,0.0,0.0,3.4657,3.4411,3.3387,3.5701,3.8373,4.0208,4.2508,4.5336,4.8894,5.0721,5.2337,0.0,5.4991,5.5434,5.528,5.5395,0.0,0.0,5.5491,5.5491,5.5491,5.5607,5.5703,5.5703,5.5703,5.5703,5.5703,5.5703,5.5626,5.5472,5.4818,5.4337,5.3991,5.2558,5.1827,5.1654,5.0991,0.0,5.0712,5.0712,5.0712,5.0712,5.0712,5.1106,5.1606,5.0952,5.1568,5.2568,0.0,0.0,0.0,0.0,0.0,0.0,0.0,1.7876,1.8313,1.9351,1.9663,1.9877,2.013,1.9392,1.9301,0.0,0.0,0.0,0.0,0.0,0.0,0.0,0.0,0.0,2.0165,2.002,1.9945,1.9893,0.0,1.9815,1.9809,2.0205,2.0375,2.0407,2.1293,2.2223,2.3198,2.3616,2.438,2.5308,2.5308,2.5308,2.5308,0.0,0.0,0.0,0.0,0.0,0.0,0.0,3.1141,3.3641,3.7957,4.1046,4.336,4.4685,4.5997,4.7295,4.8621,4.9618,4.9974,4.8637,4.7023,4.4744,4.0911,0.0,0.0,0.0,3.2733,3.3001,3.2997,3.5026,0.0,3.8931,4.0958,4.3517,4.6932,4.926,0.0,5.3568,5.4934,5.5703,0.0,5.5703,5.5703,5.5703,5.5703,5.5703,5.5703,5.5703,5.5703,5.5703,5.5703,5.5703,5.5703,5.5703,5.5703,5.5703,5.5299,5.4914,5.4472,5.3626,5.276,5.1885,5.1491,5.1318,5.1318,5.1318,5.1587,5.1991,5.1991,5.1972,5.1904,5.1972,5.2222,5.2404,0.0,0.0,0.0,0.0,0.0,0.0,0.0,1.7217,1.7756,1.8711,1.8901,1.9106,1.9536,1.8555,1.8355,0.0,0.0,0.0,0.0,0.0,0.0,0.0,0.0,0.0,0.0,0.0,0.0,2.0086,2.0061,0.0,0.0,0.0,0.0,0.0,2.1064,2.1891,2.2705,2.3476,2.429,0.0,0.0,2.5308,0.0,0.0,0.0,0.0,0.0,0.0,0.0,0.0,2.9897,3.1933,3.6331,4.0111,4.3173,4.4363,4.6035,4.774,4.8929,4.9878,5.0174,4.8603,4.6493,4.3672,3.9305,3.6554,0.0,0.0,3.1288,3.2085,3.2884,3.4243,3.5849,0.0,3.9258,4.1439,4.4844,0.0,0.0,0.0,0.0,0.0,5.5434,5.5588,0.0,5.5703,5.5703,5.5703,5.5703,5.5703,5.5703,5.5703,5.5703,5.5703,5.5703,5.5703,5.5703,5.5703,5.5703,5.5376,5.4741,5.4587,5.376,5.2442,5.225,5.2173,5.2173,5.2173,5.2577,5.3203,5.3203,5.2895,5.2519,5.3029,5.2991,5.2635,0.0,0.0,0.0,0.0,0.0,0.0,0.0,1.5723,1.6519,1.7532,1.7154,1.7147,1.8075,1.8491,1.8452,0.0,0.0,0.0,0.0,0.0,0.0,0.0,0.0,0.0,0.0,0.0,0.0,2.0366,0.0,0.0,0.0,0.0,0.0,0.0,0.0,2.2609,2.2907,2.3534,0.0,0.0,0.0,0.0,0.0,0.0,0.0,0.0,0.0,0.0,0.0,0.0,0.0,2.9799,3.1902,3.5334,3.8917,4.0666,0.0,0.0,4.697,4.8083,4.8506,4.7563,4.4271,4.0766,3.8834,0.0,0.0,3.1071,3.1465,3.2235,3.3022,3.3852,3.5195,3.7606,3.8796,4.0593,0.0,0.0,0.0,0.0,0.0,0.0,5.4607,5.5261,5.5703,5.5703,5.5703,5.5703,5.5703,5.5703,5.5703,5.5703,5.5703,5.5703,5.5703,5.5703,5.5703,5.5703,5.5703,5.5665,5.5549,5.4818,5.4414,5.4222,5.3414,5.3087,0.0,5.3087,5.3126,5.3203,5.3203,5.3626,5.4164,5.3453,5.4107,5.5011,0.0,0.0,0.0,0.0,0.0,0.0,1.4297,1.5177,1.6054,1.6909,1.7073,1.7063,1.6998,1.6921,1.7039,1.7449,0.0,0.0,0.0,0.0,0.0,0.0,0.0,0.0,0.0,0.0,0.0,2.0332,2.0324,0.0,0.0,0.0,0.0,0.0,0.0,0.0,2.2233,2.2998,0.0,0.0,0.0,0.0,0.0,0.0,0.0,0.0,0.0,0.0,0.0,0.0,0.0,0.0,2.7815,2.9885,0.0,0.0,4.0746,4.3571,4.5384,4.7272,4.8404,4.7001,4.3839,4.0465,3.8231,0.0,3.189,3.1074,3.1065,3.1611,3.296,3.3365,3.4168,3.6162,3.6796,0.0,4.0893,0.0,0.0,0.0,0.0,0.0,0.0,0.0,5.5703,5.5703,5.5703,5.5703,5.5703,5.5703,5.5703,5.5703,5.5703,5.5703,5.5703,5.5703,5.5703,5.5703,5.5703,5.5703,5.5684,5.5376,5.4953,5.4472,5.4126,5.3972,0.0,5.3972,5.426,5.4703,5.4703,5.4299,5.3741,5.3914,5.3741,5.328,0.0,0.0,0.0,0.0,0.0,1.2874,1.3653,1.4622,1.5472,1.6036,1.6455,1.6536,1.6072,1.5471,1.5429,1.6297,1.6853,0.0,0.0,0.0,0.0,0.0,0.0,0.0,0.0,0.0,2.0388,2.0332,2.0398,2.0425,0.0,0.0,0.0,0.0,0.0,0.0,0.0,0.0,0.0,0.0,0.0,0.0,0.0,0.0,0.0,0.0,0.0,0.0,0.0,0.0,0.0,0.0,0.0,0.0,0.0,0.0,3.7695,4.0867,4.2928,4.5195,4.668,4.5449,4.2578,3.9492,0.0,0.0,3.1641,3.1035,3.0816,3.1259,3.2905,3.3122,3.3596,3.5226,3.5692,3.6654,3.8977,4.0739,0.0,0.0,0.0,5.1471,0.0,5.478,5.5703,5.5703,5.5703,5.5703,5.5703,5.5703,5.5703,5.5703,5.5703,5.5703,5.5703,5.5703,5.5703,5.5703,5.5703,5.5703,5.5703,5.5703,5.5395,5.4857,5.4857,5.4857,0.0,5.4857,5.5184,5.5703,5.5703,5.4838,5.3683,5.453,5.376,5.2269,0.0,0.0,0.0,0.0,0.0,0.0,1.2968,1.387,1.4567,1.4701,1.4785,1.4984,1.5377,1.4526,1.3913,1.3938,1.5273,0.0,0.0,0.0,0.0,0.0,0.0,0.0,0.0,0.0,2.0391,2.0393,2.0475,2.0509,2.0529,2.1381,2.1824,2.1914,0.0,0.0,0.0,0.0,0.0,0.0,0.0,0.0,0.0,0.0,0.0,0.0,0.0,0.0,0.0,0.0,0.0,0.0,0.0,0.0,0.0,0.0,3.3293,3.6557,3.9237,4.1172,4.2461,4.2441,3.9863,3.7109,0.0,3.3379,3.0918,3.0898,3.0898,3.136,3.2914,3.3193,3.3692,3.5245,3.6173,3.7296,3.9053,4.0739,0.0,0.0,0.0,4.8817,5.0577,5.3741,5.5703,5.5703,5.5703,0.0,5.5703,5.5703,5.5703,5.5703,5.5703,5.5703,5.5703,5.5703,5.5703,5.5703,5.5703,5.5703,5.5703,5.5703,5.5703,5.5684,5.5684,5.5684,0.0,5.5684,5.5684,5.5703,5.5703,5.5203,5.4587,5.5395,5.4626,5.3203,0.0,0.0,0.0,0.0,0.0,0.0,0.0,1.3279,1.3831,1.4233,1.415,1.4238,1.4718,1.4008,1.3555,1.3676,1.4994,0.0,0.0,0.0,0.0,0.0,0.0,0.0,0.0,0.0,2.0327,2.0327,2.0408,2.0467,2.0508,2.0776,2.0956,2.1016,2.1264,0.0,0.0,0.0,0.0,0.0,0.0,0.0,0.0,0.0,0.0,0.0,0.0,0.0,0.0,0.0,0.0,0.0,0.0,0.0,0.0,2.699,2.9763,0.0,3.4922,3.6719,3.7871,3.7285,3.5469,3.373,3.3476,3.1641,3.0176,3.0781,3.0898,3.1208,3.2194,3.2825,3.3717,3.532,3.6209,3.7315,0.0,0.0,0.0,4.4844,4.8452,5.1375,0.0,0.0,5.5107,5.5665,5.5703,5.5703,5.5703,5.5703,5.5703,5.5703,5.5703,5.5703,5.5703,5.5703,5.5703,5.5703,5.5703,5.5703,5.5703,5.5703,5.5703,5.5703,5.5703,5.5703,5.5703,5.5703,5.5703,5.5703,5.5703,5.5203,5.453,5.478,5.3799,5.2308,0.0,0.0,0.0,0.0,0.0,0.0,0.0,1.2859,1.3292,1.3568,1.3605,1.3733,1.4119,1.3671,1.3387,1.35,1.4371,0.0,0.0,0.0,0.0,0.0,0.0,0.0,0.0,2.0109,2.0195,2.0195,2.0291,2.0406,2.0451,2.0483,2.0539,2.0605,2.0605,2.0605,0.0,0.0,0.0,0.0,0.0,0.0,2.5703,0.0,0.0,0.0,0.0,0.0,0.0,0.0,0.0,0.0,0.0,0.0,0.0,0.0,2.7246,2.9375,0.0,3.3242,3.4434,3.3887,3.2715,0.0,0.0,3.0371,2.9746,3.0293,3.0664,3.111,3.1822,3.2647,3.3619,3.487,3.599,3.7199,0.0,0.0,0.0,4.519,0.0,0.0,0.0,5.4107,5.4818,5.5645,5.5703,5.5703,5.5703,5.5703,5.5703,5.5703,5.5703,5.5703,5.5703,5.5703,5.5703,5.5703,5.5703,5.5703,5.5703,5.5703,5.5703,5.5703,5.5703,5.5703,0.0,5.5703,5.5703,5.5703,5.5703,5.5203,5.4491,5.4491,5.3294,5.168,0.0,0.0,0.0,0.0,0.0,0.0,0.0,1.2607,1.2896,1.2818,1.3116,1.3388,1.3575,1.3457,1.3379,1.3396,0.0,0.0,0.0,0.0,0.0,0.0,0.0,0.0,1.9684,1.9832,1.9902,1.9902,2.0153,2.0313,2.0379,2.0446,2.0515,2.0585,2.0585,2.0586,2.0605,0.0,0.0,0.0,0.0,0.0,0.0,0.0,0.0,0.0,0.0,0.0,0.0,0.0,0.0,0.0,0.0,0.0,0.0,0.0,0.0,0.0,0.0,3.0508,3.1738,0.0,0.0,0.0,2.9668,2.9512,0.0,2.9668,3.0332,3.1108,3.1807,3.2623,3.3448,3.4185,3.5713,3.7103,0.0,3.9688,0.0,0.0,4.7932,0.0,5.1731,5.3356,5.4684,5.5549,5.5549,5.5511,5.5511,5.5568,5.5588,5.5511,5.5568,5.5645,5.5703,5.5645,5.5645,5.5703,5.5703,5.5703,5.5703,5.5703,5.5703,0.0,5.5703,5.5703,5.5703,5.5703,5.5703,5.5703,5.5662,5.519,5.4536,5.4438,5.3119,5.1345,0.0,0.0,0.0,0.0,0.0,0.0,0.0,0.0,0.0,0.0,1.2674,1.2729,1.3389,1.3238,1.3173,0.0,0.0,0.0,0.0,0.0,0.0,0.0,0.0,0.0,1.8709,1.886,1.8935,1.8935,1.9702,2.0092,2.0176,2.0291,2.0374,2.0441,2.0441,2.0477,2.0576,2.1288,0.0,0.0,0.0,0.0,0.0,0.0,0.0,0.0,2.5703,2.5703,0.0,0.0,0.0,0.0,0.0,0.0,0.0,0.0,2.5703,2.582,2.6445,0.0,2.7226,2.7226,2.707,2.7226,0.0,2.8613,2.8984,3.0312,0.0,3.1152,3.1987,3.2712,3.3669,3.5103,3.6663,3.8007,3.8873,0.0,0.0,4.6413,4.8836,5.0779,5.1788,5.2269,5.3145,5.4664,5.4164,5.3799,5.3799,5.4414,5.4472,5.3818,5.4434,5.5068,5.5684,5.5088,5.5088,5.5703,5.5703,5.5703,5.5703,5.5703,5.5703,5.5703,5.5703,5.5703,5.5703,5.5703,5.5703,5.5662,5.5356,5.5142,5.4836,5.3864,5.2798,5.1745,0.0,0.0,0.0,0.0,0.0,0.0,0.0,0.0,0.0,0.0,0.0,0.0,0.0,0.0,0.0,0.0,0.0,0.0,0.0,0.0,0.0,0.0,0.0,1.7232,1.8781,1.8603,1.8687,1.9069,1.9689,2.0034,2.0108,2.0234,2.0349,2.0408,2.0408,2.0423,2.0486,2.0994,2.1917,0.0,2.3576,0.0,0.0,0.0,0.0,0.0,2.5637,2.5659,0.0,2.5683,2.5703,2.5703,0.0,0.0,0.0,0.0,2.5703,2.5703,2.5703,2.5996,2.6309,2.6309,2.6602,2.7148,2.8086,0.0,0.0,0.0,0.0,0.0,0.0,3.2694,3.3732,3.5359,3.6948,0.0,0.0,0.0,4.6047,4.7298,4.9009,5.0587,0.0,5.1904,5.2462,5.3799,5.3472,5.3203,5.3203,5.3645,5.3683,5.3222,5.328,5.3703,5.4549,5.4126,5.4126,5.4568,5.4953,5.5145,5.5145,5.5145,5.5338,5.5665,5.4895,5.478,5.5126,5.4722,5.4446,5.4254,5.4034,5.3846,5.3547,5.2496,5.1713,5.1051,0.0,0.0,0.0,0.0,0.0,0.0,0.0,0.0,0.0,0.0,0.0,0.0,0.0,0.0,0.0,0.0,0.0,0.0,0.0,0.0,0.0,0.0,0.0,1.6903,1.9077,1.8621,1.8689,1.9428,1.9796,2.0083,2.0277,2.0292,2.0327,2.0383,2.0372,2.0377,2.0396,2.0542,2.1539,2.302,2.3136,0.0,0.0,0.0,0.0,0.0,0.0,0.0,0.0,2.5661,2.5683,2.5703,2.5703,0.0,0.0,0.0,0.0,0.0,2.5703,2.6426,2.7148,2.7031,2.7656,2.832,2.8476,0.0,0.0,0.0,0.0,0.0,0.0,3.2905,0.0,0.0,0.0,0.0,4.3047,4.4913,4.6509,4.7932,4.899,0.0,5.1577,5.1712,5.2058,5.2953,5.2895,5.2818,5.2818,5.2933,5.2953,5.2818,5.2212,5.2192,5.2818,5.2953,5.3068,5.3222,5.3953,5.4299,5.4299,5.4299,5.4664,5.5241,0.0,0.0,5.4241,5.351,5.2965,5.2577,5.2527,5.2247,5.1797,5.0933,5.0397,4.9982,0.0,0.0,0.0,0.0,0.0,0.0,0.0,0.0,0.0,0.0,0.0,0.0,0.0,0.0,0.0,0.0,0.0,0.0,0.0,0.0,0.0,1.7537,1.7019,1.7209,1.8262,1.8198,1.8284,1.8578,1.9429,2.0267,2.1105,2.0553,2.03,2.0318,2.0317,2.0327,2.0372,2.1154,2.2088,2.3059,2.3802,0.0,0.0,0.0,0.0,0.0,0.0,0.0,0.0,2.5606,2.5659,2.5703,2.5703,0.0,0.0,0.0,0.0,0.0,2.5703,2.6831,2.7856,2.7167,2.7656,2.8496,2.9238,0.0,0.0,0.0,0.0,0.0,0.0,3.4252,3.5775,0.0,0.0,4.2989,0.0,0.0,4.7817,4.8067,0.0,5.0596,5.0856,5.0875,5.1221,5.2038,5.1471,5.1077,5.1077,5.1741,5.1798,5.1116,5.1606,5.1645,5.1097,5.176,5.2462,5.3203,5.3337,5.3395,5.3395,5.3395,5.3472,5.3568,0.0,5.328,5.3395,5.326,5.2965,5.2571,5.2229,5.1855,5.135,5.0213,4.9748,4.9561,0.0,0.0,0.0,0.0,0.0,0.0,0.0,0.0,0.0,0.0,0.0,0.0,0.0,0.0,0.0,0.0,0.0,0.0,0.0,0.0,0.0,1.838,1.8171,1.8263,1.8739,1.8317,1.8416,1.905,1.955,2.0058,2.0585,2.0393,2.0308,2.0292,2.0299,2.0297,2.0359,2.122,2.2107,2.2979,0.0,0.0,0.0,0.0,0.0,0.0,0.0,0.0,0.0,0.0,2.563,2.5658,2.5683,0.0,0.0,0.0,0.0,0.0,2.5703,2.6619,2.7571,2.7628,2.8592,2.9652,3.0043,3.0141,0.0,0.0,0.0,0.0,0.0,0.0,3.7085,3.9675,0.0,4.4729,4.5498,4.7048,4.8279,0.0,0.0,5.0183,5.0654,5.0712,5.0837,5.1221,5.0914,5.0712,5.0712,5.1048,5.1087,5.0712,5.0606,5.0375,4.999,5.0356,5.0991,5.1856,5.2299,5.25,5.25,5.25,5.275,5.3145,0.0,5.2106,5.2462,5.2029,5.1484,5.0911,5.0728,5.0265,4.9658,4.91,4.8893,4.8838,0.0,0.0,0.0,0.0,0.0,0.0,0.0,0.0,0.0,0.0,0.0,0.0,0.0,0.0,0.0,0.0,0.0,0.0,0.0,0.0,1.841,1.8887,1.8958,1.9084,1.9289,1.8702,1.88,1.9656,1.975,1.9885,2.0073,2.0425,2.0481,2.0308,2.0308,2.0308,2.0346,2.1154,2.2004,2.2874,0.0,0.0,0.0,0.0,0.0,0.0,0.0,0.0,0.0,0.0,0.0,0.0,0.0,0.0,0.0,2.5703,2.5703,2.5703,2.5703,2.6328,2.7164,2.8004,0.0,3.0489,3.1073,3.1358,0.0,0.0,0.0,0.0,0.0,3.6712,0.0,4.1659,4.4393,4.6133,4.5932,4.7355,4.8586,4.9048,4.9106,4.9356,5.0029,5.0289,5.0404,5.0404,5.0404,5.0404,5.0404,5.0212,5.0087,5.0087,4.9433,4.9106,4.9106,4.9106,4.9529,5.0404,5.1029,5.1423,5.1606,5.1404,5.1683,5.2241,5.0952,5.0741,5.1269,5.0536,4.9957,4.9489,4.9401,4.8932,4.8306,4.8306,4.8306,4.8306,0.0,0.0,0.0,0.0,0.0,0.0,0.0,0.0,0.0,0.0,0.0,0.0,0.0,0.0,0.0,0.0,0.0,0.0,0.0,0.0,1.833,1.8631,1.8878,1.9084,1.9289,1.9242,1.9407,1.9792,1.9803,1.9952,2.03,2.1058,2.1019,2.0308,2.0308,2.0308,2.0346,2.1154,2.2004,2.2874,2.3744,0.0,0.0,0.0,0.0,0.0,0.0,0.0,0.0,0.0,0.0,0.0,0.0,0.0,2.5703,2.5703,2.5703,2.5703,2.5703,2.6282,2.7121,2.7978,2.8894,0.0,3.2496,3.3582,0.0,3.6301,0.0,0.0,0.0,3.9802,4.1785,4.2835,4.5778,4.7663,4.6913,0.0,4.9029,4.8279,4.8202,4.8221,4.8279,4.9029,4.949,4.949,4.949,4.949,4.949,4.8721,4.8298,4.8298,4.824,4.8202,4.8202,4.8202,4.8625,4.949,4.9548,4.999,5.077,4.9952,4.9606,4.9663,4.9548,4.9529,4.9548,4.9105,4.9163,4.946,4.9092,4.8675,4.8306,4.8306,4.8306,4.8306,0.0,0.0,0.0,0.0,0.0,0.0,0.0,0.0,0.0,0.0,0.0,0.0,0.0,0.0,0.0,0.0,0.0,0.0,0.0,1.7883,1.8146,1.8576,1.8706,1.8922,1.9289,1.9297,1.9431,1.9676,1.9841,2.0041,2.0308,2.0615,2.0596,2.0308,2.0308,2.0577,2.1096,2.1947,2.2816,2.3682,2.4505,2.5019,0.0,0.0,0.0,0.0,0.0,0.0,0.0,0.0,2.5549,2.5606,2.5683,2.5703,2.5703,2.5703,2.5703,2.5703,2.5703,2.6281,2.7117,2.7977,2.8768,0.0,0.0,3.374,3.4817,3.6474,3.79,0.0,0.0,0.0,4.2258,4.3624,4.5817,4.7259,4.6942,4.7875,4.8471,4.8144,4.8105,4.8105,4.8105,4.8394,4.8586,4.8586,4.8586,4.8586,4.8586,4.8279,4.8105,4.8105,4.7605,4.7346,4.7346,4.7346,4.7528,4.7855,4.8355,4.8759,4.9067,4.874,4.8586,4.8586,4.8586,4.8461,4.8269,4.8121,4.7895,4.7576,4.7191,4.7555,4.8251,4.7736,4.7865,4.8306,0.0,0.0,0.0,0.0,0.0,0.0,0.0,0.0,0.0,0.0,0.0,0.0,0.0,0.0,0.0,0.0,0.0,0.0,1.78,1.78,1.8046,1.8576,1.8595,1.8816,1.9289,1.9297,1.9394,1.9608,1.9869,2.0069,2.0201,2.0273,2.0442,2.0673,2.0673,2.1139,2.1966,2.2836,2.3548,2.4168,2.4981,2.5308,0.0,0.0,0.0,0.0,0.0,0.0,0.0,0.0,2.5549,2.5606,2.5683,2.5703,2.5703,2.5703,2.5683,2.574,2.5993,2.6464,2.7135,0.0,0.0,0.0,3.3176,3.4682,3.6086,3.8279,3.945,4.0527,4.195,0.0,0.0,0.0,4.5759,4.6797,4.6528,4.7201,4.7625,4.7336,4.7317,4.7317,4.7317,4.7567,4.7721,4.7721,4.7721,4.7721,4.7721,4.7471,4.7317,4.7317,4.6778,4.649,4.649,4.649,4.649,4.6509,4.7048,4.7586,4.8086,4.7836,4.7721,4.7721,4.7721,4.7519,4.7178,4.7094,4.6746,4.6283,4.6027,4.6728,4.7846,4.7296,4.7608,4.8269,0.0,0.0,0.0,0.0,0.0,0.0,0.0,0.0,0.0,0.0,0.0,0.0,0.0,0.0,0.0,0.0,0.0,0.0,1.78,1.7811,1.8057,1.8576,1.8595,1.8816,1.9289,1.9297,1.9394,1.9608,1.9869,2.0007,1.9993,2.0201,2.0731,2.1504,2.1504,2.2004,2.2874,2.3725,2.411,2.4187,2.4981,2.5308,2.5308,0.0,0.0,0.0,0.0,0.0,0.0,0.0,2.5549,2.5607,2.5683,2.5703,2.5703,2.5703,2.5659,2.5796,2.665,2.6868,2.7207,0.0,0.0,0.0,3.4836,3.6845,3.8969,4.2412,4.2431,4.2085,4.2951,4.2412,0.0,4.4028,4.5759,4.6586,4.5729,4.6336,4.6567,4.571,4.5594,4.5594,4.5594,4.6374,4.6885,4.6885,4.6885,4.6885,4.6885,4.6067,4.5594,4.5594,4.5594,4.5594,4.5594,4.5594,4.5594,4.5594,4.5594,4.6471,4.8048,4.7259,4.6885,4.6885,4.6885,4.6656,4.6267,4.5924,4.5823,4.5883,4.5883,4.6379,4.7094,4.7076,4.759,4.8159,0.0,0.0,0.0,0.0,0.0,0.0,0.0,0.0,0.0,0.0,0.0,0.0,0.0,0.0,0.0,0.0,0.0,0.0,1.8072,1.8259,1.8518,1.8878,1.8887,1.9017,1.9289,1.9297,1.9394,1.9608,1.978,1.9912,2.0012,2.0781,2.1273,2.1523,2.2139,2.2893,2.3725,2.3995,2.4432,2.4962,2.5192,2.5308,2.5308,0.0,0.0,0.0,0.0,0.0,0.0,0.0,0.0,0.0,2.5683,2.5703,2.5703,2.5703,2.5683,2.5857,2.6736,2.7323,0.0,2.9158,0.0,0.0,0.0,3.688,0.0,0.0,4.3297,4.297,4.3797,4.372,0.0,4.422,4.524,4.5893,4.5633,4.5825,4.5893,4.5633,4.5594,4.5594,4.5594,4.5825,4.599,4.599,4.599,4.599,4.599,4.5748,4.5594,4.5594,4.5594,4.5594,4.5594,4.5594,4.5594,4.5594,4.5594,4.5864,4.6317,4.6086,4.599,4.5962,4.5744,4.5425,4.5067,4.4434,4.4528,4.5002,4.4433,4.5039,4.6195,4.5608,4.592,4.6581,0.0,0.0,0.0,0.0,0.0,0.0,0.0,0.0,0.0,0.0,0.0,0.0,0.0,0.0,0.0,0.0,0.0,0.0,0.0,1.845,1.8725,1.9002,1.901,1.9084,1.9289,1.9372,1.9485,1.9608,1.9732,1.9869,2.0012,2.1031,2.1677,2.2043,2.2932,2.3798,2.4586,2.4586,2.487,2.5308,2.5308,2.5308,2.5308,0.0,0.0,0.0,0.0,0.0,0.0,0.0,0.0,0.0,2.5703,2.5703,2.5683,2.5661,2.5889,2.6326,2.717,2.7949,0.0,3.0053,3.1918,3.4052,3.6504,0.0,0.0,0.0,4.3893,4.3451,4.4605,4.4259,0.0,4.4701,4.5267,4.5594,4.5594,4.5594,4.5594,4.5594,4.5594,4.5594,4.5594,4.5594,4.5594,4.5594,4.5594,4.5594,4.5594,4.5594,4.5594,4.5594,4.5594,4.5594,4.5594,4.5594,4.5594,4.5594,4.5594,4.5594,4.5594,4.5594,4.5522,4.5362,4.4877,4.4548,4.4323,4.3744,4.3791,4.4176,4.3681,4.4287,4.5369,4.4892,4.5223,4.5847,0.0,0.0,0.0,0.0,0.0,0.0,0.0,0.0,0.0,0.0,0.0,0.0,0.0,0.0,0.0,0.0,0.0,0.0,0.0,0.0,1.8752,1.9009,1.9026,1.9109,1.9297,1.9499,1.9614,1.9616,1.975,1.9885,2.0012,2.1107,2.2043,2.2836,2.3798,2.462,2.5308,2.5308,2.5308,2.5308,2.5308,2.5308,2.5308,2.5317,0.0,0.0,0.0,0.0,0.0,0.0,0.0,0.0,2.5703,2.5703,2.5683,2.5632,2.6178,2.6987,2.7806,0.0,0.0,3.1274,3.3077,0.0,3.8649,4.1258,4.3431,4.5037,0.0,4.3797,4.5325,4.4355,4.3835,4.5344,4.5594,4.5594,4.5594,4.5594,4.5594,4.5594,4.5594,4.5594,4.5594,4.5594,4.5594,4.5594,4.5594,4.5594,4.5594,4.5594,4.5594,4.5594,4.5594,4.5594,4.5594,4.5594,4.5594,4.5594,4.5594,4.5594,4.5594,4.5594,4.541,4.503,4.4318,4.3986,4.3924,4.3631,4.3515,4.3515,4.3515,4.3956,4.4599,4.4599,4.5057,4.5571,0.0,0.0,0.0,0.0,0.0,0.0,0.0,0.0,0.0,0.0,0.0,0.0,0.0,0.0,0.0,0.0,0.0,0.0,0.0,0.0,1.9008,1.9238,1.9246,1.9269,1.9297,1.9499,1.9643,1.9756,1.9896,1.9964,2.0031,2.1726,2.2624,2.2874,2.437,2.5135,2.5308,2.5308,2.5308,2.5308,2.5308,2.5308,2.5317,2.5354,2.5387,0.0,0.0,0.0,0.0,0.0,0.0,0.0,2.5703,2.5703,2.5703,2.5683,2.6255,2.7062,2.7911,2.8651,0.0,0.0,3.3998,3.6873,3.9631,4.12,4.2374,4.3412,4.4393,4.5171,4.5537,4.5306,4.519,4.5537,4.5594,4.5594,4.5594,4.5594,4.5594,4.5594,4.5594,4.5594,4.5594,4.5594,4.5594,4.5594,4.5594,4.5594,4.5594,4.5594,4.5594,4.5594,4.5594,4.5594,4.5594,4.5594,4.5594,4.5594,4.5594,4.5594,4.5594,4.5594,4.5273,4.4682,4.4204,4.3849,4.3614,4.3531,4.3515,4.3515,4.3515,4.3625,4.3754,4.3754,4.3882,4.3975,0.0,0.0,0.0,0.0,0.0,0.0,0.0,0.0,0.0,0.0,0.0,0.0,0.0,0.0,0.0,0.0,0.0,0.0,0.0,0.0,1.9198,1.9289,1.9297,1.9342,1.9449,1.9611,1.9975,2.0527,2.0647,2.0727,2.075,2.2156,2.3028,2.3471,2.4731,2.5308,2.5308,2.5308,2.5308,2.5308,2.5308,2.5327,2.535,2.5383,2.5441,2.5496,2.5569,0.0,0.0,0.0,0.0,0.0,0.0,0.0,2.5683,2.5661,2.6235,2.7089,2.7875,0.0,0.0,3.2331,0.0,3.6788,3.9342,4.0566,4.1412,4.2297,4.3508,4.4509,4.4921,4.4662,4.4671,4.5479,4.494,4.469,4.5498,4.5248,4.5133,4.5556,4.5594,4.5594,4.5594,4.5594,4.5594,4.5594,4.5594,4.5594,4.5594,4.5594,4.5594,4.5594,4.5594,4.5594,4.5594,4.5594,4.5594,4.5594,4.5594,4.5594,4.5586,4.5263,4.483,4.429,4.3927,4.3662,4.3515,4.3515,4.3515,4.3515,4.3515,4.3515,4.3515,4.3515,4.3515,4.3515,0.0,0.0,0.0,0.0,0.0,0.0,0.0,0.0,0.0,0.0,0.0,0.0,0.0,0.0,0.0,0.0,0.0,0.0,0.0,0.0,0.0,1.9297,1.9327,1.9497,1.9801,1.9831,2.0389,2.1514,2.1506,2.1658,2.1966,2.2682,2.3413,2.4149,2.4947,2.5308,2.5308,2.5308,2.5308,2.5308,2.5308,2.5348,2.5394,2.5411,2.5484,2.5602,2.5607,2.5658,2.5703,2.5703,0.0,0.0,0.0,0.0,2.5683,2.5634,2.6227,2.7061,2.7805,0.0,3.0327,3.3249,3.4737,0.0,3.8334,3.9611,4.0496,4.1219,4.2297,4.3297,4.397,4.3547,4.3547,4.494,4.3989,4.3585,4.4979,4.4547,4.4355,4.5075,4.5171,4.5229,4.5364,4.5383,4.5441,4.5594,4.5594,4.5537,4.5383,4.5383,4.5383,4.5383,4.5248,4.5248,4.5364,4.5383,4.5383,4.5383,4.5537,4.5531,4.5419,4.4842,4.4419,4.4073,4.3679,4.3515,4.3515,4.3515,4.3515,4.3515,4.3515,4.3515,4.3515,4.3515,4.3515,4.3515,0.0,0.0,0.0,0.0,0.0,0.0,0.0,0.0,0.0,0.0,0.0,0.0,0.0,0.0,0.0,0.0,0.0,0.0,1.8576,0.0,0.0,1.9297,1.9471,1.9899,2.0618,2.0193,2.0779,2.2427,2.1794,2.2274,0.0,2.3879,2.3995,2.4149,2.4947,2.5308,2.5308,2.5308,2.5308,2.5308,2.5308,2.5348,2.5401,2.5454,2.552,2.5605,2.5661,2.5683,2.5703,2.5703,2.5703,0.0,0.0,0.0,2.5703,2.5683,2.626,2.7066,0.0,0.0,3.164,0.0,3.4295,3.5769,0.0,0.0,3.9496,0.0,4.147,4.3124,4.3239,4.3162,4.3162,4.3393,4.3258,4.3181,4.3393,4.3335,4.3297,4.3412,4.3431,4.3701,4.4412,4.447,4.4778,4.5537,4.5594,4.5267,4.4509,4.447,4.447,4.447,4.3797,4.3778,4.447,4.447,4.447,4.447,4.5248,4.5312,4.472,4.4631,4.4567,4.4487,4.3791,4.3515,4.3515,4.3515,4.3515,4.3515,4.3515,4.3515,4.3515,4.3515,4.3515,4.3515,0.0,0.0,0.0,0.0,0.0,0.0,0.0,0.0,0.0,0.0,0.0,0.0,0.0,0.0,0.0,1.78,1.8057,1.8566,1.9442,1.9797,2.0215,2.0797,2.0897,2.1213,2.1802,2.1581,2.2119,2.3439,2.3152,0.0,0.0,2.486,2.486,2.4841,2.52,2.5387,2.5404,2.5404,2.5404,2.5404,2.5404,2.5456,2.5524,0.0,0.0,0.0,0.0,0.0,2.5703,2.5703,2.5703,2.5703,2.5703,0.0,0.0,0.0,2.5955,0.0,2.7756,2.9145,3.0564,0.0,3.3141,3.4385,3.5712,0.0,3.7988,3.8469,3.945,4.0681,4.2104,4.197,4.195,4.2931,4.2277,4.197,4.2951,4.2681,4.2547,4.3047,4.3104,4.3239,4.3585,4.3624,4.3797,4.4162,4.4201,4.4028,4.3643,4.3624,4.3624,4.3624,4.3278,4.3278,4.3624,4.3624,4.3855,4.4316,4.519,4.5342,4.4872,4.4701,4.4364,4.3977,4.3647,4.3515,4.3515,4.3515,4.3515,4.3515,4.3515,4.3515,4.3515,4.3515,4.3515,4.3515,0.0,0.0,0.0,0.0,0.0,0.0,0.0,0.0,0.0,0.0,0.0,0.0,0.0,0.0,0.0,0.0,1.8249,1.895,2.02,2.0428,2.0955,2.1954,2.2043,2.2329,2.2885,2.275,2.3232,2.4394,0.0,0.0,2.5402,2.5477,2.5473,0.0,2.5431,2.5456,0.0,0.0,0.0,2.5491,2.5491,0.0,0.0,0.0,0.0,0.0,0.0,0.0,0.0,0.0,0.0,2.5703,2.5703,2.5703,0.0,0.0,0.0,0.0,0.0,0.0,2.9531,3.1256,3.216,3.3045,0.0,0.0,3.6635,0.0,3.7853,3.8584,4.0489,4.0296,4.0362,4.1893,4.1035,4.0727,4.222,4.1873,4.172,4.2354,4.2431,4.2527,4.2758,4.2777,4.2854,4.3085,4.3104,4.3008,4.2777,4.2777,4.2777,4.2777,4.2547,4.2547,4.2777,4.2777,4.3181,4.4008,4.4855,4.5045,4.465,4.4613,4.4198,4.3515,4.3515,4.3515,4.3515,4.3515,4.3515,4.3515,4.3515,4.3515,4.3515,4.3515,4.3515,4.3515,0.0,0.0,0.0,0.0,0.0,0.0,0.0,0.0,0.0,0.0,0.0,0.0,1.8146,1.8177,1.828,1.8537,1.8798,1.9386,2.0423,2.0484,2.0955,2.1954,2.2187,0.0,2.3717,2.3117,2.3596,2.525,0.0,0.0,2.5402,2.5477,2.5539,2.5594,2.5511,2.5508,2.5491,0.0,0.0,0.0,0.0,0.0,0.0,0.0,0.0,0.0,0.0,0.0,0.0,0.0,0.0,0.0,0.0,0.0,0.0,0.0,0.0,0.0,0.0,2.8588,0.0,3.1256,3.1737,0.0,0.0,0.0,3.5788,3.6596,3.743,3.8046,3.8161,3.8161,3.843,3.9361,3.9419,3.9669,4.0516,4.0593,4.0573,4.0631,4.065,4.095,4.1797,4.1865,4.222,4.3047,4.3104,4.2739,4.1904,4.1865,4.1865,4.1865,4.1066,4.1027,4.1865,4.1865,4.2297,4.3162,4.397,4.4019,4.341,4.4234,4.4198,4.3515,4.3515,4.3515,4.3515,4.3515,4.3515,4.3515,4.3515,4.3515,4.3515,4.3515,4.3515,4.3515,0.0,0.0,0.0,0.0,0.0,0.0,0.0,0.0,0.0,0.0,0.0,0.0,0.0,1.846,1.8499,1.8585,1.8852,1.9402,2.0374,2.1076,2.1972,2.3114,2.3708,2.4255,2.4748,2.4519,2.4715,2.5363,0.0,2.5206,2.5535,2.5599,2.5636,2.5661,2.5598,2.5595,2.5633,2.5633,0.0,0.0,0.0,0.0,0.0,0.0,0.0,0.0,0.0,0.0,0.0,0.0,0.0,0.0,0.0,0.0,0.0,0.0,0.0,0.0,0.0,0.0,0.0,3.0442,3.1288,3.1987,3.3103,3.4045,3.4911,3.575,3.6173,3.6404,3.6404,3.7276,3.8104,3.8411,3.8938,3.94,3.9688,4.0169,4.0496,4.0496,4.0496,4.0631,4.0931,4.0969,4.1104,4.142,4.1439,4.1277,4.0969,4.0969,4.0969,4.0969,4.0669,4.065,4.095,4.1308,4.1729,4.2269,4.2688,4.2762,4.2536,4.3168,4.3193,4.2763,4.3277,4.3515,4.3515,4.3515,4.3515,4.3515,4.3515,4.3515,4.3515,4.3515,4.3515,4.3515,0.0,0.0,0.0,0.0,0.0,0.0,0.0,0.0,0.0,0.0,0.0,0.0,0.0,0.0,1.9191,1.9335,1.9817,2.0375,2.099,2.1965,2.3021,2.4148,2.4718,2.5094,2.5303,2.5312,2.535,2.5398,2.5498,2.5556,0.0,2.5662,2.5703,2.5703,2.5659,2.566,0.0,0.0,0.0,2.5703,0.0,0.0,2.5703,0.0,0.0,0.0,0.0,0.0,0.0,0.0,0.0,0.0,0.0,0.0,0.0,0.0,0.0,0.0,2.7524,0.0,0.0,0.0,0.0,3.1487,3.2314,0.0,3.4007,3.4891,3.5288,3.55,3.55,3.6404,3.7257,3.7526,3.8296,3.8977,3.9265,3.9996,4.0496,4.0496,4.0496,4.0496,4.0496,4.0496,4.0496,4.0496,4.0496,0.0,4.0496,4.0496,4.0496,4.0496,4.0496,4.0457,4.0364,4.0721,4.095,4.1064,4.148,4.1619,4.1524,4.2394,4.2628,4.2341,4.3149,4.3515,4.3515,4.3515,4.3515,4.3515,4.3515,4.3515,4.3515,4.3515,4.3515,4.3515,0.0,0.0,0.0,0.0,0.0,0.0,0.0,0.0,0.0,1.8576,0.0,0.0,0.0,0.0,0.0,2.0815,2.1737,2.2294,2.2306,2.3055,2.3961,2.4934,2.4997,2.5099,2.5303,2.5375,2.5409,2.5402,2.5539,2.5602,2.5603,2.5662,2.5703,2.5703,2.5703,2.5703,2.5703,0.0,2.5703,2.5683,0.0,2.5636,2.5683,0.0,0.0,0.0,2.563,2.5638,0.0,2.557,0.0,0.0,0.0,0.0,0.0,0.0,0.0,0.0,0.0,0.0,0.0,0.0,0.0,0.0,3.1506,0.0,3.3122,3.4013,3.4872,3.5462,3.55,3.55,3.575,3.6538,3.743,3.8296,3.915,3.9977,4.0496,4.0496,4.0496,4.0496,4.0496,4.0496,4.0496,4.0496,4.0489,4.0489,4.0496,4.0489,4.0489,4.0489,4.0481,4.0356,4.0091,4.0081,3.9912,3.9599,4.0441,4.0654,4.0356,4.2004,4.2594,4.2341,4.3149,4.3515,4.3515,4.3515,4.3515,4.3515,4.3515,4.3515,4.3515,4.3515,4.3515,4.3515,0.0,0.0,0.0,0.0,0.0,0.0,1.845,1.8489,1.8603,0.0,0.0,0.0,2.0592,2.1287,2.1763,2.1876,2.2142,2.2369,2.2508,2.3267,2.3902,2.4336,2.4912,2.5234,2.5303,2.5375,2.5425,2.546,2.5558,2.5611,2.5662,2.5683,2.5703,0.0,2.5703,2.5703,2.5703,2.5703,0.0,2.5703,2.5683,2.5659,0.0,0.0,0.0,0.0,0.0,2.6347,2.7308,0.0,2.6432,2.6337,0.0,0.0,0.0,0.0,0.0,0.0,2.7441,0.0,0.0,0.0,0.0,0.0,0.0,0.0,3.2449,3.3898,3.4398,3.4757,3.5385,3.55,3.5577,3.5808,3.7046,3.8084,3.8334,3.9611,4.0496,4.0496,4.0496,4.0496,4.0496,4.0496,4.0496,0.0,4.0321,4.0304,4.0489,4.0321,4.0204,4.0204,3.9974,3.981,3.9742,3.9505,3.945,3.9599,3.9392,3.9672,4.0323,4.1172,4.1832,4.2341,4.3149,4.3515,4.3515,4.3515,4.3515,4.3515,4.3515,4.3515,4.3515,4.3515,4.3515,4.3515,0.0,0.0,0.0,0.0,0.0,0.0,1.918,1.9336,1.9594,0.0,0.0,0.0,2.1877,2.2817,2.329,2.2962,2.3313,2.3463,2.3231,2.3983,2.4474,2.4601,2.5075,2.5333,2.5333,2.5438,2.5493,2.5547,2.5605,2.5661,2.5703,2.5703,2.5703,2.5703,0.0,0.0,0.0,0.0,0.0,0.0,2.5636,0.0,0.0,2.6082,2.6598,0.0,0.0,0.0,2.7983,2.7443,2.7257,0.0,0.0,0.0,0.0,0.0,0.0,0.0,0.0,0.0,0.0,0.0,0.0,0.0,3.1038,3.1448,3.2064,3.3391,3.3955,3.4468,3.5346,3.55,3.55,3.55,3.6596,3.7584,3.795,3.9142,4.0131,4.0458,4.0496,4.0496,4.0496,4.0496,4.0496,4.0496,4.0241,4.0101,4.0129,3.9983,3.9891,3.9891,3.969,3.9541,3.9389,3.9205,3.9139,3.9216,3.8877,3.9197,4.0163,4.0804,4.1535,4.2341,4.3149,4.3515,4.3515,4.3515,4.3515,4.3515,4.3515,4.3515,4.3515,4.3515,4.3515,4.3515,0.0,0.0,0.0,1.8595,1.8741,1.9146,2.0119,2.0511,2.1027,0.0,2.2297,2.2773,2.3606,2.4499,2.4742,2.403,2.4791,2.5005,2.4282,2.4922,2.5312,2.5312,2.5376,2.5408,2.5408,2.5541,2.5602,2.5602,2.5661,2.5703,2.5703,2.5703,2.5703,2.5703,0.0,0.0,0.0,0.0,0.0,2.5661,2.5556,2.6065,0.0,0.0,2.7337,2.8194,2.8039,2.8103,2.8244,2.8086,2.803,0.0,0.0,0.0,0.0,0.0,2.7895,0.0,0.0,0.0,0.0,0.0,0.0,0.0,3.0404,3.1,3.1795,3.2602,3.3372,3.4218,3.5173,3.5365,3.5385,3.5481,3.6096,3.6865,3.7738,3.8681,3.9573,4.0285,4.0458,4.0496,4.0496,4.0496,4.0496,4.0496,4.0241,3.9943,3.9622,3.9564,3.9534,3.9534,3.9517,3.9358,3.9063,3.9063,3.8952,3.8707,3.8799,3.9258,4.0065,4.0873,4.168,4.247,4.3185,4.3515,4.3515,4.3515,4.3515,4.3515,4.3515,4.3515,4.3515,4.3515,4.3515,4.3515,0.0,0.0,0.0,1.8878,1.9599,2.026,2.063,2.1398,2.2015,2.2211,2.2974,2.3888,2.4842,2.5123,2.5172,2.5018,2.5247,2.5314,2.5159,2.5331,2.5468,2.5468,2.5463,2.5471,2.5471,2.5558,2.5602,2.5602,2.5661,2.5703,2.5703,2.5703,2.5703,2.5703,0.0,0.0,0.0,0.0,0.0,2.5545,2.5564,0.0,2.6743,2.6707,2.7617,2.883,2.8168,2.8793,2.9822,2.9113,2.8876,2.8742,0.0,0.0,0.0,0.0,0.0,0.0,0.0,0.0,0.0,0.0,0.0,0.0,3.0404,3.0538,3.0904,3.1756,3.2064,3.2641,3.416,3.4449,3.468,3.5385,3.5635,3.6019,3.6846,3.8315,3.9361,3.9515,4.0112,4.0496,4.0496,4.0496,4.0496,4.0496,4.0241,3.9943,3.9622,3.9339,3.9205,3.9205,3.8994,3.8848,3.8792,3.8792,3.8747,3.8707,3.935,4.0084,4.0875,4.1699,4.2506,4.3276,4.3441,4.3515,4.3515,4.3515,4.3515,4.3515,4.3515,4.3515,4.3515,4.3515,4.3515,4.3515,0.0,0.0,0.0,1.9777,2.0392,2.1096,2.2004,2.2666,2.3188,2.3594,2.4208,2.4787,2.5295,2.5372,2.5406,2.5406,2.5428,2.545,2.545,2.5471,2.5491,2.5491,2.5539,2.5552,2.5552,2.5628,2.5658,2.5658,2.5683,2.5703,2.5703,2.5703,2.5683,2.5658,2.5658,0.0,0.0,0.0,2.552,2.5495,2.5957,0.0,2.738,2.7754,2.8674,2.9698,2.9294,2.9692,3.0327,2.991,2.9756,0.0,0.0,2.9159,2.9159,0.0,2.9159,2.9236,0.0,0.0,0.0,3.0288,0.0,0.0,0.0,3.0404,3.0654,3.1525,3.1698,3.2218,3.3898,3.4205,3.4487,3.5365,3.55,3.5635,3.6038,3.7199,3.8161,3.8604,3.9008,3.9419,3.9861,3.99,3.9948,4.0034,3.9924,3.9641,3.9181,3.8994,3.8894,3.8894,3.8777,3.8707,3.8707,3.8707,3.8707,3.8707,3.9111,3.9937,4.1113,4.1517,4.2359,4.3515,4.3515,4.3515,4.3515,4.3515,4.3515,4.3515,4.3515,4.3515,4.3515,4.3515,4.3515,4.3515,1.9076,0.0,0.0,2.0709,2.1281,2.2066,2.336,2.3863,2.4334,2.5001,2.5275,2.5415,2.5392,0.0,0.0,0.0,0.0,2.5496,0.0,0.0,2.5535,2.5545,2.5597,2.5629,2.5629,2.5662,2.5703,2.5703,2.5703,2.5703,2.5703,2.5703,2.5661,2.5602,2.5602,0.0,0.0,0.0,0.0,2.5716,0.0,2.7359,2.8061,2.8818,2.964,3.0404,3.0404,3.0404,3.0404,3.0404,3.0404,3.0423,3.0596,3.0538,0.0,0.0,0.0,0.0,0.0,0.0,0.0,0.0,0.0,3.0885,0.0,0.0,0.0,3.1795,3.1929,0.0,0.0,0.0,0.0,3.4904,0.0,0.0,0.0,3.5846,0.0,3.7642,3.7892,3.8277,3.8977,3.9053,3.9248,3.9735,3.9517,3.9221,3.8888,3.8747,3.8707,3.8707,3.8707,3.8707,3.8707,3.8707,3.8707,3.8707,3.8854,3.9698,4.1113,4.126,4.2121,4.3515,4.3515,4.3515,4.3515,4.3515,4.3515,4.3515,4.3515,4.3515,4.3515,4.3515,4.3515,4.3515,1.9555,2.0263,0.0,0.0,2.2416,2.3542,2.3732,2.4544,2.5178,2.5325,2.5428,0.0,0.0,0.0,0.0,0.0,0.0,0.0,2.5507,0.0,0.0,2.5663,2.5683,2.5683,2.5683,2.5703,2.5703,2.5703,2.5703,2.5703,2.5703,2.5703,2.5661,2.5602,2.5602,0.0,0.0,0.0,2.5828,0.0,2.7411,2.782,0.0,2.8805,2.964,3.0404,3.0404,3.0404,3.0404,0.0,3.0404,3.0538,0.0,3.1019,3.0558,3.1327,0.0,0.0,0.0,0.0,0.0,0.0,3.2622,0.0,0.0,0.0,3.2641,3.2737,0.0,0.0,0.0,0.0,0.0,0.0,0.0,0.0,3.341,3.4596,3.5942,3.675,3.7526,3.8046,3.8142,3.8142,3.8781,4.0271,3.9181,3.8749,3.9455,3.8998,3.8707,3.8707,3.8707,3.8707,3.8707,3.8707,3.8707,3.8707,3.9423,4.023,4.1113,4.1846,4.2653,4.3515,4.3515,4.3515,4.3515,4.3515,4.3515,4.3515,4.3515,4.3515,4.3515,4.3515,4.3515,4.3515,2.0596,2.0882,0.0,0.0,2.3381,2.4144,2.4642,2.512,2.5425,2.5443,2.5526,0.0,0.0,0.0,0.0,0.0,0.0,2.5528,0.0,0.0,0.0,0.0,2.5703,0.0,2.5703,2.5703,2.5703,2.5703,2.5703,2.5703,2.5703,2.566,2.5604,2.5545,2.5508,0.0,2.5333,0.0,2.5822,0.0,0.0,0.0,0.0,2.9321,2.977,2.9992,2.9992,3.0066,3.0182,0.0,3.0612,0.0,0.0,0.0,0.0,0.0,0.0,0.0,0.0,0.0,0.0,0.0,0.0,0.0,3.2865,0.0,3.2891,0.0,0.0,0.0,0.0,0.0,0.0,0.0,3.5019,0.0,0.0,0.0,3.5635,0.0,0.0,0.0,3.7199,3.77,3.8147,3.8499,3.8391,3.8319,3.8375,3.8575,3.8707,3.8707,3.8707,3.8707,3.8707,3.8707,3.8707,3.8707,3.9515,4.0065,4.0451,4.1717,4.2488,4.2818,4.3313,4.3515,4.3515,4.3515,4.3515,4.3515,4.3515,4.3515,4.3515,4.3515,4.3515,4.3515,2.204,0.0,0.0,0.0,0.0,2.4674,2.5337,0.0,0.0,0.0,0.0,0.0,2.56,2.5624,0.0,0.0,2.5535,2.5531,0.0,0.0,2.5598,0.0,0.0,0.0,0.0,2.5683,2.5683,2.5662,2.5662,2.5661,2.5637,2.5599,2.5541,2.5477,0.0,2.5494,2.5654,0.0,2.6249,2.7267,2.7887,2.8485,2.903,2.9673,2.9861,2.979,2.9722,2.9981,3.0354,3.0274,3.0948,0.0,3.1868,0.0,0.0,0.0,0.0,0.0,3.3132,0.0,0.0,0.0,0.0,0.0,0.0,0.0,0.0,0.0,0.0,0.0,0.0,0.0,0.0,0.0,0.0,3.5327,0.0,3.5192,0.0,0.0,0.0,0.0,0.0,3.7065,3.7329,3.7357,3.7524,3.7664,3.7729,3.8129,3.8469,3.8689,3.8707,3.8707,3.8707,3.8707,3.8817,3.9038,3.9405,3.979,4.0267,4.1442,4.2084,4.2341,4.3149,4.3515,4.3515,4.3515,4.3515,4.3515,4.3515,4.3515,4.3515,4.3515,4.3515,4.3515,2.3936,2.4049,0.0,0.0,0.0,0.0,0.0,0.0,0.0,0.0,0.0,0.0,0.0,0.0,0.0,0.0,0.0,2.5335,2.5402,0.0,2.5496,0.0,0.0,2.5662,0.0,0.0,2.5662,2.5603,2.5603,2.5566,2.5517,2.5496,2.5474,2.5402,2.5398,2.5822,2.6563,2.6563,2.7397,2.8724,2.8762,2.9025,2.9397,0.0,2.9829,2.9969,2.9763,0.0,0.0,3.0956,3.1412,0.0,0.0,0.0,0.0,0.0,0.0,0.0,0.0,0.0,0.0,3.5355,0.0,0.0,0.0,0.0,3.5423,0.0,0.0,0.0,0.0,0.0,0.0,0.0,0.0,0.0,0.0,0.0,0.0,0.0,0.0,0.0,0.0,3.6019,3.625,3.7858,3.6739,3.6643,3.8184,3.7821,3.7896,3.8689,3.8707,3.8707,3.8707,3.8707,3.9093,3.9845,3.9093,3.9536,4.1058,4.1113,4.157,4.2341,4.3149,4.3515,4.3515,4.3515,4.3515,4.3515,4.3515,4.3515,4.3515,4.3515,4.3515,4.3515,0.0,0.0,0.0,0.0,0.0,0.0,0.0,2.5611,0.0,0.0,0.0,0.0,0.0,2.6024,2.6326,0.0,0.0,2.7099,2.7113,2.7129,0.0,0.0,0.0,2.7006,0.0,0.0,0.0,0.0,0.0,2.5511,2.5491,2.5443,2.5418,2.5395,0.0,2.5716,0.0,0.0,0.0,0.0,0.0,2.9279,2.9412,0.0,2.9426,2.9392,2.9856,3.0375,0.0,3.1347,3.2141,3.2974,3.3098,3.3446,3.3833,3.3907,3.4087,3.4289,0.0,0.0,3.4584,3.4889,0.0,0.0,0.0,0.0,0.0,0.0,0.0,0.0,0.0,0.0,0.0,0.0,0.0,0.0,0.0,0.0,0.0,0.0,0.0,0.0,0.0,0.0,3.5662,3.605,3.596,3.6283,3.7199,3.7419,3.7878,3.867,3.8707,3.8707,3.8707,3.8707,3.9093,3.99,4.0157,4.0563,4.1132,4.2194,4.2543,4.2341,4.3149,4.3515,4.3515,4.3515,4.3515,4.3515,4.3515,4.3515,4.3515,4.3515,4.3515,4.3515,2.5511,0.0,0.0,0.0,0.0,0.0,0.0,0.0,0.0,0.0,2.6307,0.0,2.6422,0.0,2.72,0.0,2.7645,2.7971,2.7971,2.7987,0.0,2.8024,2.8065,0.0,0.0,0.0,0.0,0.0,0.0,2.5764,2.5425,2.5383,2.5367,2.5378,0.0,2.6102,2.6682,0.0,2.7756,0.0,0.0,2.9257,0.0,0.0,2.9647,2.9613,0.0,3.0729,3.1511,3.1948,3.2727,3.3512,3.3351,3.3799,3.433,3.4129,3.4213,3.4398,3.4497,3.4368,0.0,3.4622,3.4694,0.0,3.4926,0.0,0.0,0.0,0.0,0.0,0.0,0.0,0.0,0.0,0.0,0.0,0.0,3.55,0.0,0.0,0.0,0.0,0.0,3.5398,3.5339,3.5258,3.5391,3.587,3.6794,3.7084,3.7665,3.867,3.8707,3.8707,3.8707,3.8982,3.9533,4.0322,4.0838,4.1242,4.157,4.2598,4.2782,4.2341,4.3149,4.3515,4.3515,4.3515,4.3515,4.3515,4.3515,4.3515,4.3515,4.3515,4.3515,4.3515,0.0,0.0,0.0,0.0,2.566,0.0,0.0,0.0,2.6901,0.0,2.7627,2.8087,2.8084,2.807,2.8057,2.8057,2.8039,2.8025,2.8025,2.8077,0.0,0.0,2.8152,2.8165,2.8057,0.0,0.0,0.0,0.0,0.0,2.5365,2.5404,2.5404,2.5404,2.6269,0.0,2.7596,2.8429,2.9047,2.9417,2.9119,2.906,2.9207,2.9922,3.0404,3.066,3.0408,3.1475,3.2948,3.274,3.3183,3.3807,3.3807,3.3807,3.3807,3.3807,3.3807,3.3868,3.4111,3.4176,3.4265,3.4591,3.4663,0.0,0.0,0.0,3.4999,0.0,0.0,0.0,0.0,0.0,0.0,0.0,0.0,0.0,0.0,0.0,0.0,0.0,0.0,0.0,0.0,3.5273,3.5223,3.5486,3.4999,3.539,0.0,3.6826,3.7303,3.8652,3.8707,3.8707,3.8707,3.9496,4.0304,4.1095,4.1132,4.1572,4.2359,4.2359,4.2359,4.2396,4.3167,4.3515,4.3515,4.3515,4.3515,4.3515,4.3515,4.3515,4.3515,4.3515,4.3515,4.3515,2.5661,2.5662,2.5664,0.0,2.5663,2.5897,0.0,0.0,0.0,0.0,2.7903,2.8016,2.7957,2.8478,2.8828,2.8828,2.9388,0.0,0.0,0.0,0.0,2.9756,2.9792,2.9505,2.8828,2.884,0.0,2.7595,0.0,0.0,2.6269,2.6928,2.689,2.6288,0.0,0.0,2.8185,2.842,2.9083,2.9948,2.9278,2.9721,3.0742,0.0,3.0993,3.2072,3.2015,3.2285,3.2777,3.3319,3.3623,3.3807,3.3807,3.3807,3.3807,3.3807,3.3807,3.3815,3.3876,3.3902,3.3928,3.4018,3.4177,3.4334,0.0,0.0,0.0,0.0,0.0,0.0,0.0,0.0,0.0,0.0,0.0,0.0,0.0,0.0,0.0,3.55,0.0,0.0,3.55,3.5439,3.5432,3.5493,3.4999,3.539,3.7005,0.0,3.7106,3.8652,3.8707,3.8707,3.8707,3.9496,4.0304,4.1113,4.1717,4.2415,4.3185,4.3185,4.3185,4.3185,4.3423,4.3515,4.3515,4.3515,4.3515,4.3515,4.3515,4.3515,4.3515,4.3515,4.3515,4.3515,2.5683,0.0,0.0,2.6147,0.0,0.0,2.6782,2.7452,0.0,2.8461,2.883,0.0,2.8992,2.941,2.9679,2.9679,3.0115,0.0,3.0404,0.0,0.0,3.0404,3.0404,3.0173,2.9679,2.9679,0.0,2.8415,0.0,0.0,2.7178,2.7659,2.764,2.7217,0.0,2.8479,2.86,2.9136,2.9688,3.0191,3.0099,3.0595,0.0,3.1292,3.1812,3.2656,3.2999,3.3128,3.3201,3.3642,3.3807,3.3807,3.3807,3.3807,3.3807,3.3807,3.3807,3.3807,3.3807,3.3807,3.3807,3.3807,3.3897,3.4018,3.4018,3.4253,3.4453,0.0,3.4697,3.5004,0.0,0.0,0.0,0.0,0.0,0.0,0.0,0.0,0.0,0.0,3.55,0.0,3.55,3.5391,3.5376,3.5493,3.5113,3.5531,3.7016,0.0,3.7276,3.8652,3.8707,3.8707,3.8707,3.9845,4.0653,4.1113,4.2268,4.3057,4.3515,4.3515,4.3515,4.3515,4.3515,4.3515,4.3515,4.3515,4.3515,4.3515,4.3515,4.3515,4.3515,4.3515,4.3515,4.3515,2.5859,0.0,0.0,0.0,0.0,0.0,0.0,2.8311,0.0,2.9336,0.0,3.0404,3.0404,3.0404,3.0404,3.0404,0.0,3.0442,3.0558,3.0577,3.0615,3.0712,3.0635,3.0577,3.0577,3.0462,3.0019,0.0,0.0,0.0,2.8068,2.8159,0.0,0.0,0.0,0.0,0.0,3.0122,3.0535,3.0577,3.1158,3.1525,3.177,3.2375,3.2674,3.2839,3.355,3.3807,3.3807,3.3807,3.3807,3.3807,3.3807,3.3807,3.3807,3.3807,3.3807,3.3807,3.3807,3.388,3.3972,3.3972,3.4045,3.4137,3.4137,3.4319,3.4408,3.4186,3.4924,3.5527,0.0,0.0,0.0,0.0,0.0,0.0,0.0,0.0,0.0,0.0,0.0,0.0,0.0,3.5289,3.5239,3.5486,3.5239,3.5685,3.7027,0.0,3.7567,3.8667,3.8707,3.8762,3.8854,4.0343,4.115,4.1279,4.2782,4.3515,4.3515,4.3515,4.3515,4.3515,4.3515,4.3515,4.3515,4.3515,4.3515,4.3515,4.3515,4.3515,4.3515,4.3515,4.3515,4.3515,0.0,0.0,0.0,0.0,0.0,2.8857,2.8795,2.9027,2.9438,3.0109,3.03,3.0404,3.0404,3.0404,3.0404,3.0404,3.0404,0.0,0.0,0.0,0.0,3.2429,3.1833,3.1468,3.1468,3.0769,3.0327,0.0,0.0,0.0,2.8915,2.964,0.0,0.0,0.0,0.0,3.0525,3.0346,0.0,3.2124,3.1604,3.2192,3.3311,3.2803,3.3005,3.3605,3.3752,3.3807,3.3807,3.3807,3.3807,3.3807,3.3807,3.3807,3.3807,3.3807,3.3807,3.3807,3.3807,3.427,3.4784,3.4784,3.533,3.5862,3.5862,3.5901,3.5929,3.5877,3.6029,3.6135,3.6079,0.0,0.0,0.0,0.0,0.0,0.0,0.0,0.0,0.0,0.0,3.5266,0.0,0.0,3.5446,3.55,3.5239,3.5685,0.0,0.0,3.7352,0.0,3.8707,3.9019,0.0,0.0,4.1425,4.2103,4.3039,4.3515,4.3515,4.3515,4.3515,4.3515,4.3515,4.3515,4.3515,4.3515,4.3515,4.3515,4.3515,4.3515,4.3515,4.3515,4.3515,4.3515,0.0,0.0,0.0,0.0,0.0,0.0,0.0,2.9839,2.9957,3.0352,3.0404,3.0404,3.0404,3.0404,3.0577,3.1019,3.1077,3.1423,3.2275,3.2314,3.2506,3.2872,3.2526,3.2122,3.1718,3.1288,3.0846,3.0404,0.0,0.0,2.9775,3.0192,0.0,0.0,0.0,3.082,0.0,0.0,0.0,3.2601,3.2632,3.3109,3.3752,3.3366,3.3458,3.3807,3.3807,3.3807,3.3807,3.3807,3.3807,3.3807,3.3807,3.3807,3.388,3.4289,3.4417,3.4509,3.4963,3.5385,3.5665,3.5665,3.5991,3.6303,3.6303,3.6303,3.6303,3.6303,3.6615,3.7052,3.7459,3.7762,0.0,0.0,0.0,0.0,0.0,0.0,0.0,0.0,0.0,0.0,0.0,0.0,0.0,0.0,0.0,0.0,0.0,0.0,3.7317,0.0,0.0,0.0,3.9882,0.0,4.1515,4.2304,4.3112,4.3515,4.3515,4.3515,4.3515,4.3515,4.3515,4.3515,4.3515,4.3515,4.3515,4.3515,4.3515,4.3515,4.3515,4.3515,4.3515,4.3515,0.0,2.8085,0.0,0.0,2.9632,2.977,3.0395,3.0446,3.0404,3.0404,3.0404,3.0404,3.0404,3.0577,3.0942,3.1641,3.1852,3.2295,3.3122,3.3179,3.3218,3.3351,3.3237,3.2833,3.2074,3.1776,3.1258,0.0,0.0,0.0,0.0,0.0,0.0,0.0,0.0,0.0,0.0,0.0,3.289,3.2913,3.3532,3.3807,3.3807,3.3807,3.3807,3.3807,3.3807,3.3807,3.3807,3.3807,3.3807,3.3807,3.3807,3.3807,3.3917,3.4564,3.4876,3.5151,3.5844,3.6285,3.656,3.656,3.667,3.6798,3.6798,3.6798,3.6798,3.6798,3.7312,3.7936,3.8579,3.8869,0.0,0.0,0.0,0.0,0.0,0.0,0.0,0.0,0.0,0.0,3.5009,0.0,0.0,0.0,0.0,0.0,3.6708,0.0,0.0,0.0,0.0,3.9166,4.0139,0.0,4.1589,4.2561,4.3185,4.3515,4.3515,4.3515,4.3515,4.3515,4.3515,4.3515,4.3515,4.3515,4.3515,4.3515,4.3515,4.3515,4.3515,4.3515,4.3427,4.3321,0.0,0.0,0.0,0.0,0.0,3.0415,3.0483,3.0446,3.0404,3.0404,3.0404,3.0404,3.0404,3.1115,3.1621,3.1698,3.2372,3.3141,3.4013,3.409,3.4316,3.4871,3.4379,3.3826,3.3252,3.1993,3.1183,0.0,0.0,3.0806,0.0,0.0,0.0,0.0,0.0,0.0,0.0,3.2674,3.3031,3.3697,3.377,3.3807,3.3807,3.3807,3.3807,3.3807,3.3807,3.3807,3.3807,3.3807,3.3807,3.3807,3.3807,3.3807,3.3807,3.3899,3.4417,3.5023,3.5096,3.6229,3.7382,3.7382,3.7936,3.8487,3.8487,3.8487,3.8487,3.8487,3.8542,3.8615,3.8689,3.8719,3.8698,0.0,0.0,0.0,0.0,0.0,0.0,0.0,0.0,0.0,0.0,3.4954,0.0,0.0,3.4963,0.0,0.0,0.0,0.0,3.8652,3.8707,3.9441,4.0967,4.1058,4.1882,4.3404,4.346,4.3515,4.3515,4.3515,4.3515,4.3515,4.3515,4.3515,4.3515,4.3515,4.3515,4.3515,4.3515,4.3515,4.3515,4.3515,4.3196,4.277,0.0,0.0,0.0,0.0,0.0,0.0,0.0,3.0425,3.0404,3.0404,3.0404,3.0404,3.0404,3.1173,3.1891,3.2372,3.3179,3.4045,3.493,3.4988,3.5019,3.5094,3.4863,3.4317,3.3419,3.2855,3.2259,0.0,0.0,0.0,0.0,0.0,0.0,0.0,0.0,3.2609,3.2779,3.3162,3.3513,3.3807,3.3807,3.3807,3.3807,3.3807,3.3807,3.3807,3.3807,3.3807,3.3807,3.3807,3.3807,3.3807,3.3807,3.3807,3.399,3.5,3.5532,3.5991,3.6949,3.7716,3.8212,3.8212,3.8469,3.8707,3.8707,3.8707,3.8707,3.8707,3.8707,3.8707,3.8707,3.8707,3.8707,3.8707,0.0,0.0,0.0,0.0,0.0,0.0,0.0,0.0,0.0,0.0,0.0,0.0,0.0,0.0,0.0,0.0,0.0,3.8686,0.0,3.9478,4.1077,4.1095,4.1919,4.3515,4.3515,4.3515,4.3515,4.3515,4.3515,4.3515,4.3515,4.3515,4.3515,4.3515,4.3515,4.3515,4.3515,4.3303,4.3014,4.3014,4.2656,4.2162,2.9671,0.0,3.0556,0.0,3.0463,3.0452,3.0402,3.0404,3.05,3.075,3.0788,3.0788,3.0788,3.1545,3.2372,3.3218,3.4083,3.4813,3.5345,3.5376,3.5223,3.4851,3.4925,0.0,3.3537,3.335,3.2937,3.2243,3.2327,0.0,0.0,0.0,0.0,0.0,3.3029,3.3136,3.2986,3.3568,3.3807,3.3807,3.3807,3.3807,3.3807,3.3807,3.3807,3.3807,3.3807,3.3807,3.3807,3.3807,3.3807,3.3807,3.3807,3.3807,3.4082,3.5495,3.6101,3.6597,3.7973,3.8524,3.8707,3.8707,3.8707,3.8707,3.8707,3.8707,3.8707,3.8707,3.8707,3.8707,3.8707,3.8707,3.8707,3.8707,0.0,0.0,0.0,3.8212,0.0,0.0,3.6119,3.574,3.5736,3.5814,0.0,0.0,0.0,0.0,0.0,0.0,0.0,0.0,0.0,0.0,4.1077,4.1334,4.2139,4.3515,4.3515,4.3515,4.3515,4.3515,4.3515,4.3515,4.3515,4.3515,4.3515,4.3515,4.3515,4.3515,4.3515,4.3178,4.2711,4.2711,4.2221,4.1534,3.0505,3.0483,3.0482,3.0414,3.0404,3.0404,3.0404,3.0404,3.0712,3.1564,3.1679,3.1679,3.1679,3.241,3.3237,3.4109,3.4988,3.5383,3.5122,3.5105,3.4832,0.0,0.0,3.4409,3.3815,3.3283,3.2875,3.2596,0.0,0.0,3.1823,0.0,3.3401,3.4157,3.3891,3.3788,3.3788,3.3807,3.3807,3.3807,3.3807,3.3807,3.3807,3.3807,3.3807,3.3807,3.3807,3.3807,3.3807,3.3807,3.3807,3.3807,3.3807,3.3807,3.3972,3.4784,3.5642,3.6468,3.729,3.8083,3.8707,3.8707,3.8707,3.8707,3.8707,3.8707,3.8707,3.8707,3.8707,3.8707,3.8707,3.8707,3.8707,3.8707,0.0,0.0,0.0,0.0,0.0,3.7584,3.7474,3.7162,3.6372,3.653,0.0,0.0,0.0,0.0,0.0,0.0,0.0,3.867,3.946,0.0,4.1095,4.1901,4.269,4.3515,4.3515,4.3515,4.3515,4.3515,4.3515,4.3515,4.3515,4.3515,4.3515,4.3515,4.3515,4.3515,4.3515,4.3178,4.2711,4.2711,4.1937,4.0903,3.0449,3.0439,3.0422,3.039,3.0404,3.0596,3.1192,3.1288,3.1583,3.241,3.2526,3.2737,3.3333,3.3622,3.3898,0.0,3.4829,3.5198,0.0,3.4935,3.4645,3.4211,3.4292,3.4171,3.382,3.3618,3.3489,3.3421,0.0,0.0,0.0,3.3436,3.3688,3.391,3.3842,3.3807,3.3807,3.3807,3.3807,3.3807,3.3807,3.3807,3.3807,3.3807,3.3807,3.3807,3.3807,3.3807,3.3807,3.3807,3.3807,3.3899,3.4454,3.4619,3.4894,3.6285,3.689,3.729,3.8102,3.8505,3.8707,3.8707,3.8707,3.8707,3.8707,3.8707,3.8707,3.8707,3.8707,3.8707,3.8707,3.8707,3.8707,3.8707,3.8707,0.0,3.8707,0.0,3.8395,3.7603,3.7492,3.7401,3.7144,3.7208,0.0,0.0,0.0,0.0,0.0,0.0,0.0,0.0,3.9478,0.0,4.1095,4.1901,4.269,4.3515,4.3515,4.3515,4.3515,4.3515,4.3515,4.3515,4.3515,4.3515,4.3515,4.3515,4.3515,4.3462,4.3105,4.2598,4.2038,4.1621,4.099,4.0343,3.0404,3.0404,3.0404,3.0404,3.0404,3.0577,3.1135,3.1212,3.1621,3.2756,3.2891,3.3353,3.4564,3.468,0.0,3.4544,3.478,3.4889,3.4774,3.4614,3.4368,3.4068,3.4056,3.3974,3.3788,3.3807,0.0,3.3807,3.3807,3.3807,3.3807,3.3807,3.3807,3.3807,3.3807,3.3807,3.3807,3.3807,3.3807,3.3807,3.3807,3.3807,3.3807,3.3807,3.3807,3.3807,3.3807,3.3807,3.3807,3.3807,3.4009,3.4412,3.5224,3.5701,3.6138,3.7199,3.7492,3.7676,3.8487,3.8707,3.8707,3.8707,3.8707,3.8707,3.8707,3.8707,3.8707,3.8707,3.8707,3.8707,3.8707,3.8707,3.8707,3.8707,3.8707,3.8707,3.8707,0.0,3.8505,0.0,0.0,0.0,0.0,3.7936,3.8157,0.0,0.0,0.0,0.0,0.0,3.8999,3.9163,3.9937,4.0744,4.1535,4.2359,4.3002,4.3515,4.3515,4.3515,4.3515,4.3515,4.3515,4.3515,4.3515,4.3515,4.3515,4.3515,4.3392,4.3178,4.2826,4.2183,4.1424,4.1041,4.0552,4.0096,3.0404,3.0404,3.0404,3.0404,3.0404,3.0442,3.0558,3.0577,3.1173,3.2852,3.3083,3.3692,3.5294,3.546,3.5369,3.5096,0.0,0.0,3.4265,3.4211,3.4105,3.3842,3.3802,3.3807,3.3807,3.3807,3.3807,3.3807,3.3807,3.3807,3.3807,3.3807,3.3807,3.3807,3.3807,3.3807,3.3807,3.3807,3.3807,3.3807,3.3807,3.3825,3.388,3.3825,3.3825,3.388,3.388,3.3844,3.3807,3.3862,3.438,3.5151,3.6028,3.685,3.7511,3.7566,3.7584,3.7749,3.8505,3.8707,3.8707,3.8707,3.8707,3.8707,3.8707,3.8707,3.8707,3.8707,3.8707,3.8707,3.8707,3.8707,3.8707,3.8707,3.8707,3.8707,3.8707,3.8707,3.8707,0.0,0.0,0.0,3.8707,3.8707,3.8707,0.0,0.0,0.0,0.0,0.0,3.9129,3.9879,4.0726,4.1535,4.2286,4.3094,4.3515,4.3515,4.3515,4.3515,4.3515,4.3515,4.3515,4.3515,4.3515,4.3479,4.3444,4.3444,4.3142,4.2635,4.2596,4.1895,4.0903,4.0856,4.0546,4.0096,3.0404,3.0404,3.0404,3.0404,3.0404,3.0827,3.2122,3.2314,3.2929,3.4654,3.4885,3.4964,3.5176,3.5198,3.5088,3.4832,3.4926,3.4879,3.4593,3.4345,3.4183,3.4111,3.3915,3.3807,3.3807,3.3807,3.3807,3.3807,3.3807,3.3807,3.3807,3.3807,3.3807,3.3807,3.3807,3.3807,3.3807,3.3807,3.3807,3.3807,3.3807,3.4174,3.4656,3.4027,3.4192,3.4729,3.4729,3.4307,3.3899,3.4509,3.4839,3.5151,3.6028,3.685,3.7621,3.823,3.8414,3.8469,3.8652,3.8707,3.8707,3.8707,3.8707,3.8707,3.8707,3.8707,3.8707,3.8707,3.8707,3.8707,3.8707,3.8707,3.8707,3.8707,3.8707,3.8707,3.8707,3.8707,3.8707,0.0,3.8707,3.8707,3.8707,3.8707,3.8707,0.0,0.0,3.8707,3.8707,3.9276,3.9698,3.9882,4.1277,4.2121,4.2304,4.3094,4.3515,4.3515,4.3515,4.3515,4.3515,4.3515,4.3515,4.3515,4.3515,4.3268,4.2883,4.2883,4.2541,4.1958,4.1512,4.1155,4.0833,4.0424,4.0204,4.0096,3.0404,3.0404,3.0404,3.0404,3.0404,3.0712,3.1615,3.2102,3.2814,3.4135,3.4661,3.5004,3.5258,3.5289,3.5122,3.4724,3.4822,3.4793,3.4478,3.4311,3.4147,3.4018,3.3876,3.3807,3.3807,3.3807,3.3807,3.3807,3.3807,3.3807,3.3807,3.3807,3.3807,3.3807,3.3807,3.3807,3.3807,3.3807,3.3807,3.3807,3.3807,3.4064,3.4399,3.3972,3.4289,3.5004,3.5004,3.4968,3.5018,3.5459,3.5844,3.6229,3.6688,3.7386,3.812,3.8579,3.8707,3.8707,3.8707,3.8707,3.8707,3.8707,3.8707,3.8707,3.8707,3.8707,3.8707,3.8707,3.8707,3.8707,3.8707,3.8707,3.8707,3.8707,3.8707,3.8707,3.8707,3.8707,3.8707,3.8707,3.8707,3.8707,3.8707,3.8707,3.8707,3.8707,3.8707,0.0,3.8707,3.946,3.99,3.99,4.146,4.2304,4.2304,4.3094,4.3515,4.3515,4.3515,4.3515,4.3515,4.3515,4.3515,4.3497,4.3232,4.2976,4.2674,4.2382,4.1937,4.1358,4.1041,4.0733,4.0497,4.0204,4.0096,4.0096,3.0404,3.0404,3.0404,3.0404,3.0404,3.05,3.0731,3.1404,3.2218,3.3179,3.393,3.4654,3.5369,3.5486,3.5289,3.4763,3.4734,3.4603,3.4223,3.42,3.4099,3.3863,3.3815,3.3807,3.3807,3.3807,3.3807,3.3807,3.3807,3.3807,3.3807,3.3807,3.3807,3.3807,3.3807,3.3807,3.3807,3.3807,3.3807,3.3807,3.3807,3.3862,3.399,3.399,3.4491,3.5206,3.5334,3.5771,3.6321,3.6431,3.6942,3.7492,3.7492,3.8046,3.8707,3.8707,3.8707,3.8707,3.8707,3.8707,3.8707,3.8707,3.8707,3.8707,3.8707,3.8707,3.8707,3.8707,3.8707,3.8707,3.8707,3.8707,3.8707,3.8707,3.8707,3.8707,3.8707,0.0,3.8707,3.8707,3.8707,3.8707,3.8707,3.8707,3.8707,3.8707,3.8707,3.8707,3.8707,3.946,3.9827,3.9717,4.1405,4.2359,4.2488,4.3039,4.3386,4.3515,4.3515,4.3515,4.3515,4.3515,4.3444,4.3357,4.2902,4.2596,4.2382,4.1874,4.1313,4.078,4.078,4.0497,4.0096,4.0096,4.0096,4.0096,3.0404,3.0404,3.0404,3.0404,3.0404,3.0885,3.2295,3.2622,3.3295,3.4885,3.5212,3.5271,3.5171,3.5369,3.5289,3.4763,3.4908,3.4794,3.4235,3.42,3.4176,3.4147,3.3928,3.3807,3.3807,3.3807,3.3807,3.3807,3.3807,3.3807,3.3807,3.3807,3.3807,3.3807,3.3807,3.3807,3.3807,3.3807,3.3807,3.3807,3.3807,3.4211,3.4821,3.4821,3.5353,3.6193,3.6868,3.6762,3.6395,3.7088,3.7401,3.7492,3.7492,3.8046,3.8707,3.8707,3.8707,3.8707,3.8707,3.8707,3.8707,3.8707,3.8707,3.8707,3.8707,3.8707,3.8707,3.8707,3.8707,3.8707,3.8707,3.8707,3.8707,3.8707,3.8707,3.8707,3.8707,0.0,3.8707,3.8707,3.8707,3.8707,3.8707,3.8707,3.8707,3.8707,3.8707,3.8707,3.8707,3.946,3.9588,3.8909,4.1111,4.2635,4.3296,4.2763,4.2818,4.3515,4.3515,4.3515,4.3515,4.3515,4.325,4.2826,4.275,4.2121,4.1178,4.1087,4.0726,4.0229,4.0229,4.0154,4.0096,4.0096,4.0096,4.0096,3.0404,3.0404,3.0404,3.0404,3.0788,3.1365,3.2141,3.3026,3.3891,3.4699,3.5212,3.5391,3.5122,3.5207,3.5051,3.4478,3.4542,3.4445,3.4006,3.4123,3.4135,3.3999,3.3881,3.3807,3.3807,3.3807,3.3807,3.3807,3.3807,3.3807,3.3807,3.3807,3.3807,3.3807,3.3807,3.3807,3.3807,3.3807,3.3807,3.3844,3.427,3.4674,3.5059,3.5518,3.6211,3.6997,3.7364,3.7547,3.7643,3.801,3.8138,3.8138,3.8138,3.8395,3.8707,3.8707,3.8707,3.8707,3.8707,3.8707,3.8707,3.8707,3.8707,3.8707,3.8707,3.8707,3.8707,3.8707,3.8707,3.8707,3.8707,3.8707,3.8707,3.8707,3.8707,3.8707,3.8707,3.8707,3.8707,3.8707,3.8707,3.8707,3.8707,3.8707,3.8707,3.8707,3.8707,3.8707,3.8707,3.9056,3.9276,3.9331,4.0855,4.2047,4.2837,4.291,4.313,4.3515,4.3515,4.3515,4.3479,4.3196,4.2939,4.2655,4.2,4.1424,4.088,4.0601,4.0336,4.0096,4.0096,4.0096,4.0096,4.0096,4.0096,4.0096,3.0692,3.0692,3.0692,3.0692,3.1404,3.2045,3.2256,3.3372,3.4263,3.4468,3.5084,3.5391,3.5122,3.5105,3.4851,3.4246,3.42,3.4093,3.3815,3.3999,3.4006,3.382,3.3807,3.3807,3.3807,3.3807,3.3807,3.3807,3.3807,3.3807,3.3807,3.3807,3.3807,3.3807,3.3807,3.3807,3.3807,3.4009,3.4082,3.4156,3.4968,3.5298,3.5389,3.6248,3.696,3.7529,3.7713,3.8175,3.8707,3.8707,3.8707,3.8707,3.8707,3.8707,3.8707,3.8707,3.8707,3.8707,3.8707,3.8707,3.8707,3.8707,3.8707,3.8707,3.8707,3.8707,3.8707,3.8707,3.8707,3.8707,3.8707,3.8707,3.8707,3.8707,0.0,3.8707,3.8707,3.8707,3.8707,3.8707,3.8707,3.8707,3.8707,3.8707,3.8707,3.8707,3.8707,3.8707,3.8707,3.8707,3.8982,3.9588,4.0579,4.148,4.2286,4.291,4.3296,4.3515,4.3515,4.3427,4.3303,4.2883,4.2557,4.2223,4.1313,4.0827,4.0679,4.0262,4.0096,4.0096,4.0096,4.0096,4.0096,4.0096,4.0096,4.0096,3.1602,3.1602,3.1602,3.1602,3.2275,3.3083,3.3898,3.4129,3.4487,3.5288,3.5462,3.5391,3.5122,3.5105,3.4851,3.4246,3.42,3.4093,3.3815,3.3815,3.3815,3.3807,3.3807,3.3807,3.3807,3.3807,3.3807,3.3807,3.3807,3.3807,3.3807,3.3807,3.3807,3.3807,3.3807,3.3807,3.3844,3.4601,3.4912,3.4986,3.5862,3.6193,3.6285,3.7107,3.7456,3.7603,3.834,3.8652,3.8707,3.8707,3.8707,3.8707,3.8707,3.8707,3.8707,3.8707,3.8707,3.8707,3.8707,3.8707,3.8707,3.8707,3.8707,3.8707,3.8707,3.8707,3.8707,3.8707,3.8707,3.8707,3.8707,3.8707,3.8707,3.8707,0.0,0.0,3.8707,3.8707,3.8707,3.8707,3.8707,3.8707,3.8707,3.8707,3.8707,3.8707,3.8707,3.8707,3.8707,3.8707,3.8726,3.8799,4.0288,4.148,4.2286,4.2359,4.2763,4.3515,4.3515,4.3232,4.2769,4.2731,4.2101,4.1041,4.0949,4.0607,4.0171,4.0121,4.0096,4.0096,4.0096,4.0096,4.0096,4.0096,4.0096,4.0096,3.2449,3.2449,3.2449,3.2449,3.3141,3.3821,3.4148,3.4661,3.5081,3.5224,3.5246,3.5069,3.4586,3.4534,3.4371,3.3986,3.3948,3.3915,3.382,3.3807,3.3807,3.3807,3.3807,3.3807,3.3807,3.3807,3.3807,3.3807,3.3807,3.3807,3.3807,3.3807,3.3807,3.3807,3.3807,3.4082,3.4564,3.4876,3.5316,3.5881,3.6707,3.7052,3.7125,3.7936,3.823,3.8285,3.8597,3.8707,3.8707,3.8707,3.8707,3.8707,3.8707,3.8707,3.8707,3.8707,3.8707,3.8707,3.8707,3.8707,3.8707,3.8707,3.8707,3.8707,3.8707,3.8707,3.8707,3.8707,3.8707,3.8707,3.8707,3.8707,3.8707,3.8707,0.0,3.8707,3.8707,3.8707,3.8707,3.8707,3.8707,3.8707,3.8707,3.8707,3.8707,3.8707,3.8707,3.8707,3.8707,3.8707,3.8707,3.8707,3.9772,4.0744,4.1535,4.2543,4.3028,4.2995,4.2995,4.2694,4.2142,4.175,4.1335,4.088,4.0552,4.0286,4.0096,4.0096,4.0096,4.0096,4.0096,4.0096,4.0096,4.0096,4.0096,4.0096,3.3314,3.3314,3.3314,3.3314,3.4026,3.4603,3.4603,3.5028,3.5304,3.5122,3.5035,3.4774,3.4246,3.42,3.4086,3.3815,3.3807,3.3807,3.3807,3.3807,3.3807,3.3807,3.3807,3.3807,3.3807,3.3807,3.3807,3.3807,3.3807,3.3807,3.3807,3.3807,3.3935,3.4192,3.4192,3.4637,3.5426,3.5683,3.6138,3.6758,3.7547,3.7878,3.7951,3.8487,3.8707,3.8707,3.8707,3.8707,3.8707,3.8707,3.8707,3.8707,3.8707,3.8707,3.8707,3.8707,3.8707,3.8707,3.8707,3.8707,3.8707,3.8707,3.8707,3.8707,3.8707,3.8707,3.8707,3.8707,3.8707,3.8707,3.8707,3.8707,3.8707,3.8707,3.8707,3.8707,3.8707,3.8707,3.8707,3.8707,3.8707,3.8707,3.8707,3.8707,3.8707,3.8707,3.8707,3.8707,3.8707,3.8707,3.8627,3.8465,3.9232,3.9951,4.0597,4.2102,4.2778,4.2711,4.25,4.2101,4.1512,4.1087,4.0803,4.0631,4.0262,4.0096,4.0096,4.0096,4.0096,4.0096,4.0096,4.0096,4.0096,4.0096,4.0096,4.0096,3.4205,3.4205,3.4205,3.4205,3.493,3.55,3.55,3.5273,3.5096,3.5096,3.4851,3.4561,3.4223,3.4188,3.4086,3.3815,3.3807,3.3807,3.3807,3.3807,3.3807,3.3807,3.3807,3.3807,3.3807,3.3807,3.3807,3.3807,3.3807,3.3807,3.3807,3.3807,3.4247,3.5004,3.5023,3.5481,3.6358,3.7162,3.7492,3.7584,3.8377,3.8707,3.8707,3.8707,3.8707,3.8707,3.8707,3.8707,3.8707,3.8707,3.8707,3.8707,3.8707,3.8707,3.8707,3.8707,3.8707,3.8707,3.8707,3.8707,3.8707,3.8707,3.8707,3.8707,3.8707,3.8707,3.8707,3.8707,3.8707,3.8707,3.8707,3.8707,3.8707,3.8707,3.8707,3.8707,3.8707,3.8707,3.8707,3.8707,3.8707,3.8707,3.8707,3.8707,3.8707,3.8707,3.8692,3.8692,3.8692,3.8692,3.843,3.7893,3.8669,3.9228,3.9494,4.0751,4.1826,4.2674,4.208,4.1468,4.0903,4.0903,4.0601,4.0096,4.0096,4.0096,4.0096,4.0096,4.0096,4.0096,4.0096,4.0096,4.0096,4.0096,4.0096,4.0096,3.5115,3.5115,3.5115,3.5115,3.5162,3.5215,3.5215,3.499,3.4725,3.4492,3.4401,3.423,3.3948,3.3928,3.3889,3.382,3.3807,3.3807,3.3807,3.3807,3.3807,3.3807,3.3807,3.3807,3.3807,3.3807,3.3807,3.3807,3.3807,3.3807,3.3807,3.438,3.4766,3.5041,3.5628,3.6376,3.7162,3.7401,3.7841,3.8358,3.8597,3.8707,3.8707,3.8707,3.8707,3.8707,3.8707,3.8707,3.8707,3.8707,3.8707,3.8707,3.8707,3.8707,3.8707,3.8707,3.8707,3.8707,3.8707,3.8707,3.8707,3.8707,3.8707,3.8707,3.8707,3.8707,3.8707,3.8707,3.8707,3.8707,3.8707,3.8707,3.8707,3.8707,3.8707,3.8707,3.8707,3.8707,3.8707,3.8707,3.8707,3.8707,3.8707,3.8707,3.8707,3.8707,3.835,3.8386,3.8947,3.8131,3.7578,3.7415,3.7646,3.807,3.8734,4.0188,4.1097,4.1446,4.1251,4.0874,4.0343,4.0343,4.0237,4.0096,4.0096,4.0096,4.0096,4.0096,4.0096,4.0096,4.0096,4.0096,4.0096,4.0096,4.0096,4.0096,3.55,3.55,3.5479,3.5361,3.5207,3.5051,3.4954,3.4685,3.4423,3.4242,3.4099,3.3986,3.3815,3.3807,3.3807,3.3807,3.3807,3.3807,3.3807,3.3807,3.3807,3.3807,3.3807,3.3807,3.3807,3.3807,3.3807,3.3807,3.4119,3.427,3.4302,3.5133,3.5665,3.6009,3.6541,3.7217,3.7955,3.7955,3.8248,3.8707,3.8707,3.8707,3.8707,3.8707,3.8707,3.8707,3.8707,3.8707,3.8707,3.8707,3.8707,3.8707,3.8707,3.8707,3.8707,3.8707,3.8707,3.8707,3.8707,3.8707,3.8707,3.8707,3.8707,3.8707,3.8707,3.8707,3.8707,3.8707,3.8707,3.8707,3.8707,3.8707,3.8707,3.8707,3.8707,3.8707,3.8707,3.8707,3.8707,3.8707,3.8707,3.8707,3.8707,3.8707,3.8611,3.8399,3.8082,3.8041,3.8331,3.7892,3.7554,3.7321,3.7321,3.7746,3.8637,3.9269,3.9882,4.047,4.0541,4.04,4.0096,4.0096,4.0096,4.0096,4.0096,4.0096,4.0096,4.0096,4.0096,4.0096,4.0096,4.0096,4.0096,4.0096,4.0096,4.0096,3.5479,3.5453,3.5376,3.5113,3.5034,3.4944,3.4694,3.4368,3.4152,3.4152,3.3948,3.3807,3.3807,3.3807,3.3807,3.3807,3.3807,3.3807,3.3807,3.3807,3.3807,3.3807,3.3807,3.3825,3.3917,3.3844,3.3844,3.3917,3.4637,3.5041,3.5151,3.6009,3.6813,3.7492,3.7584,3.8025,3.8707,3.8707,3.8707,3.8707,3.8707,3.8707,3.8707,3.8707,3.8707,3.8707,3.8707,3.8707,3.8707,3.8707,3.8707,3.8707,3.8707,3.8707,3.8707,3.8707,3.8707,3.8707,3.8707,3.8707,3.8707,3.8707,3.8707,3.8707,3.8707,3.8707,3.8707,3.8707,3.8707,3.8707,3.8707,3.8707,3.8707,3.8707,3.8707,3.8707,3.8707,3.8707,3.8707,3.8707,3.8707,3.8692,3.8627,3.8596,3.8403,3.7967,3.7826,3.7632,3.7366,3.7868,3.7977,3.756,3.7538,3.7979,3.8886,3.8311,3.8598,3.9824,4.0012,4.0096,4.0096,4.0096,4.0096,4.0096,4.0096,4.0096,4.0096,4.0096,4.0096,4.0096,4.0096,4.0096,4.0096,4.0096,4.0096,4.0096,3.5223,3.519,3.5105,3.4822,3.4563,3.4371,3.4323,3.4068,3.3889,3.3889,3.3842,3.3807,3.3807,3.3807,3.3807,3.3807,3.3807,3.3807,3.3807,3.3807,3.3807,3.3807,3.3807,3.41,3.4729,3.4119,3.4119,3.4747,3.4912,3.5353,3.6046,3.6868,3.7327,3.7529,3.8157,3.8542,3.8707,3.8707,3.8707,3.8707,3.8707,3.8707,3.8707,3.8707,3.8707,3.8707,3.8707,3.8707,3.8707,3.8707,3.8707,3.8707,3.8707,3.8707,3.8707,3.8707,3.8707,3.8707,3.8707,3.8707,3.8707,3.8707,3.8707,3.8707,3.8707,3.8707,3.8707,3.8707,3.8707,3.8707,3.8707,3.8707,3.8707,3.8707,3.8707,3.8707,3.8707,3.8707,3.8707,3.8707,3.8707,3.853,3.8115,3.7738,3.7737,3.8249,3.7314,3.721,3.8314,3.7585,3.7331,3.7789,3.7806,3.7905,3.8142,3.8548,3.918,4.0041,4.0086,4.0096,4.0096,4.0096,4.0096,4.0096,4.0096,4.0096,4.0096,4.0096,4.0096,4.0096,4.0096,4.0096,4.0096,4.0096,4.0096,4.0096,3.5122,3.499,3.4813,3.45,3.4323,3.4159,3.4031,3.3889,3.3807,3.3807,3.3807,3.3807,3.3807,3.3807,3.3807,3.3807,3.3807,3.3807,3.3807,3.3807,3.3807,3.3807,3.3807,3.4009,3.4417,3.438,3.4784,3.561,3.6009,3.6431,3.6905,3.7698,3.8065,3.8083,3.8505,3.8707,3.8707,3.8707,3.8707,3.8707,3.8707,3.8707,3.8707,3.8707,3.8707,3.8707,3.8707,3.8707,3.8707,3.8707,3.8707,3.8707,3.8707,3.8707,3.8707,3.8707,3.8707,3.8707,3.8707,3.8707,3.8707,3.8707,3.8707,3.8707,3.8707,3.8707,3.8707,3.8707,3.8707,3.8707,3.8707,3.8707,3.8707,3.8707,3.8707,3.8707,3.8707,3.8707,3.8611,3.835,3.8316,3.8262,3.8115,3.7872,3.7941,3.8474,3.7847,3.7707,3.8288,3.801,3.8024,3.8413,3.843,3.8582,3.8937,3.8971,3.9385,4.0096,4.0096,4.0096,4.0096,4.0096,4.0096,4.0096,4.0096,4.0096,4.0096,4.0096,4.0096,4.0096,4.0096,4.0096,4.0096,4.0096,4.0096,4.0096,3.4981,3.4774,3.4518,3.4195,3.4135,3.4056,3.3829,3.3807,3.3807,3.3807,3.3807,3.3807,3.3807,3.3807,3.3807,3.3807,3.3807,3.3807,3.3807,3.3807,3.3807,3.3807,3.3807,3.3862,3.4009,3.4802,3.5573,3.6303,3.7107,3.7566,3.7731,3.8395,3.8707,3.8707,3.8707,3.8707,3.8707,3.8707,3.8707,3.8707,3.8707,3.8707,3.8707,3.8707,3.8707,3.8707,3.8707,3.8707,3.8707,3.8707,3.8707,3.8707,3.8707,3.8707,3.8707,3.8707,3.8707,3.8707,3.8707,3.8707,3.8707,3.8707,3.8707,3.8707,3.8707,3.8707,3.8707,3.8707,3.8707,3.8707,3.8707,3.8707,3.8707,3.8707,3.8707,3.8658,3.8596,3.8562,3.8366,3.7843,3.781,3.7969,3.8327,3.8274,3.8311,3.8461,3.8469,3.8368,3.8099,3.8667,3.9056,3.9174,3.9174,3.9486,4.0096,3.9503,3.9503,4.0096,4.0096,4.0096,4.0096,4.0096,4.0096,4.0096,4.0096,4.0096,4.0096,4.0096,4.0096,4.0096,4.0096,4.0096,4.0096,4.0096,4.0096,4.0096,3.4427,3.4292,3.4183,3.3902,3.3855,3.3842,3.382,3.3807,3.3807,3.3807,3.3807,3.3807,3.3807,3.3807,3.3807,3.3807,3.3807,3.3807,3.3807,3.3807,3.3807,3.3807,3.3807,3.4137,3.4821,3.5679,3.6174,3.6303,3.7107,3.786,3.8542,3.8652,3.8707,3.8707,3.8707,3.8707,3.8707,3.8707,3.8707,3.8707,3.8707,3.8707,3.8707,3.8707,3.8707,3.8707,3.8707,3.8707,3.8707,3.8707,3.8707,3.8707,3.8707,3.8707,3.8707,3.8707,3.8707,3.8707,3.8707,3.8707,3.8707,3.8707,3.8707,3.8707,3.8707,3.8707,3.8707,3.8707,3.8707,3.8707,3.8707,3.8707,3.8707,3.8707,3.8707,3.8546,3.8082,3.7997,3.7843,3.7341,3.7444,3.7833,3.8495,3.8185,3.7959,3.799,3.799,3.8231,3.8802,3.8937,3.9276,3.9943,3.996,3.9994,4.0096,4.0011,4.0011,4.0096,4.0096,4.0096,4.0096,4.0096,4.0096,4.0096,4.0096,4.0096,4.0096,4.0096,4.0096,4.0096,4.0096,4.0096,4.0096,4.0096,4.0096,4.0096,3.4246,3.4093,3.3935,3.3815,3.3807,3.3807,3.3807,3.3807,3.3807,3.3807,3.3807,3.3807,3.3807,3.3807,3.3807,3.3807,3.3807,3.3807,3.3807,3.3807,3.3807,3.3807,3.3807,3.3972,3.4307,3.5624,3.6303,3.6303,3.7551,3.8358,3.8707,3.8707,3.8707,3.8707,3.8707,3.8707,3.8707,3.8707,3.8707,3.8707,3.8707,3.8707,3.8707,3.8707,3.8707,3.8707,3.8707,3.8707,3.8781,3.9221,3.9074,3.8781,3.9239,3.9056,3.8707,3.8707,3.8707,3.8707,3.8707,3.8707,3.8817,3.9258,3.9368,3.9496,3.9955,3.9467,3.8879,3.8734,3.8707,3.8707,3.8707,3.8707,3.8707,3.8707,3.8449,3.8312,3.8489,3.8277,3.8102,3.7991,3.784,3.8014,3.8766,3.8649,3.8684,3.9089,3.9123,3.9259,3.9605,3.9622,3.9774,4.0096,4.0096,4.0096,4.0096,4.0096,4.0096,4.0096,4.0096,4.0096,4.0096,4.0096,4.0096,4.0096,4.0096,4.0096,4.0096,4.0096,4.0096,4.0096,4.0096,4.0096,4.0096,4.0096,4.0096,4.0096]}]]